     2              OBSERVATION DATA    GPS                 RINEX VERSION / TYPE
ASHTORIN CICESE 05 - JUL - 01 13:04                         PGM / RUN BY / DATE
                                                            COMMENT
--> THIS IS THE START OF A NEW SITE <---                    COMMENT
--> THIS IS THE START OF A NEW SITE <---                    COMMENT
Original Marker Name: GUAD                                  COMMENT
Campaign Name: Northern Baja 2001                           COMMENT
4-Character Station Name: GUAD                              COMMENT
6-Character Antenna Code: DMRCHT                            COMMENT
Vertical Measurement Point: BCR                             COMMENT
Vertical Offset to Rinex Ref. Point: 0.0348                 COMMENT
Radial Measurement Point: ECF                               COMMENT
Radial Offset to Rinex Ref. Point: 0.1897                   COMMENT
Antenna Height from Field Measurement: 1.3601 m             COMMENT
Additional Antenna Identification Info.:                    COMMENT
Turborogue and Ashtech Choke Ring                           COMMENT
Original XYZ: 0.0000 0.0000 0.0000                          COMMENT
New XYZ position is based on association with SCEC monument COMMENT
D5S5Z3N7+0011. Position of that monument is believed to be  COMMENT
valid to within 1 m horizontally; vertical accuracy         COMMENT
should be no worse than 3-times this value.                 COMMENT
                                                            COMMENT
Revised Rinex header created by UCSD GPS archive for        COMMENT
GSAC on 30-Nov-2001 (2001:334) 23:55:43 GMT                 COMMENT
For assistance contact dagnew@ucsd.edu                      COMMENT
or anderson@python.ucsd.edu                                 COMMENT
                                                            COMMENT
GUADALUPE ISLAND MELPOHENE B.                               MARKER NAME
30622                                                       MARKER NUMBER
PFJ CICESE (ENSENADA)                                       OBSERVER / AGENCY
773 ASHTECH Z-XII3 CC001D0                                  REC # / TYPE / VERS
002 DORNE-MARGOL. TYPE T                                    ANT # / TYPE
 -2648786.5996 -4921527.4371  3062786.3360                  APPROX POSITION XYZ
        1.3120        0.0000        0.0000                  ANTENNA: DELTA H/E/N
     1     1     0                                          WAVELENGTH FACT L1/2
     7    L1    L2    C1    P1    P2    D1    D2            # / TYPES OF OBSERV
    30                                                      INTERVAL
  2001     1    16    20    23    0.000000                  TIME OF FIRST OBS
  2001     1    16    23    59   30.000000                  TIME OF LAST OBS
                                                            END OF HEADER
 01  1 16 20 23  0.0000000  0  2  8 11                               0.000000000
      5967.474 9      3554.23152         0.000           0.0004          0.0005
        -0.000          -0.000
    -26412.220 8    -19212.27845  24677041.660    24677039.3414   24677054.2774
        -0.000          -0.000
 01  1 16 20 23 30.0000000  0  2  8 11                               0.000000000
      9473.466 9       565.99046         0.000           0.0004   21161094.9424
        -0.000          -0.000
    -36204.673 9    -26842.77545  24675177.880    24675177.5904   24675192.4414
        -0.000          -0.000
 01  1 16 20 24  0.0000000  0  2  8 11                               0.000000000
   -806194.683 9   -635019.62748  21005868.691    21005867.9804   21005877.8624
        -0.000          -0.000
   -865122.611 9   -672752.86545  24517440.097    24517440.2104   24517454.1834
        -0.000          -0.000
 01  1 16 20 24 30.0000000  0  2  8 11                               0.000000000
   -744683.274 9   -587088.72048  21017574.185    21017573.4764   21017583.1214
        -0.000          -0.000
   -816812.404 8   -635108.63245  24526633.380    24526633.2454   24526647.8584
        -0.000          -0.000
 01  1 16 20 25  0.0000000  0  2  8 11                               0.000000000
   -682777.617 9   -538850.61248  21029354.548    21029353.7614   21029363.4244
        -0.000          -0.000
   -768060.225 8   -597120.02945  24535910.715    24535910.3734   24535925.1644
        -0.000          -0.000
 01  1 16 20 25 30.0000000  0  2  8 11                               0.000000000
   -620476.868 9   -490304.63348  21041209.991    21041209.1944   21041218.9034
        -0.000          -0.000
   -718865.677 9   -558786.71345  24545272.318    24545271.9704   24545286.7394
        -0.000          -0.000
 01  1 16 20 26  0.0000000  0  2  8 11                               0.000000000
   -557782.279 9   -441451.77648  21053140.421    21053139.6154   21053149.3384
        -0.000          -0.000
   -669230.351 9   -520109.89445  24554717.854    24554717.4424   24554731.2454
        -0.000          -0.000
 01  1 16 20 26 30.0000000  0  2  8 11                               0.000000000
   -494695.740 9   -392293.50848  21065145.397    21065144.6044   21065154.3434
        -0.000          -0.000
   -619157.118 9   -481091.83045  24564247.028    24564246.5844   24564259.8334
        -0.000          -0.000
 01  1 16 20 27  0.0000000  3  2
GUAD                                                        MARKER NAME
--> THIS IS THE START OF A NEW SITE <---                    COMMENT
 01  1 16 20 27  0.0000000  0  2  8 11                               0.000000000
   -431217.843 9   -342830.28048  21077224.903    21077224.1214   21077233.8784
        -0.000          -0.000
   -568646.278 9   -441732.79245  24573859.014    24573858.6224   24573871.8134
        -0.000          -0.000
 01  1 16 20 27 30.0000000  0  2  8 11                               0.000000000
   -367348.987 9   -293062.39948  21089378.778    21089377.9974   21089387.7794
        -0.000          -0.000
   -517699.329 9   -402033.94945  24583553.855    24583553.4304   24583567.2054
        -0.000          -0.000
 01  1 16 20 28  0.0000000  0  2  8 11                               0.000000000
   -303087.244 9   -242988.36748  21101607.455    21101606.6724   21101616.4664
        -0.000          -0.000
   -466314.605 8   -361993.94245  24593331.505    24593331.2314   24593345.5094
        -0.000          -0.000
 01  1 16 20 28 30.0000000  0  2  8 11                               0.000000000
   -238436.087 9   -192610.89748  21113910.211    21113909.4244   21113919.2404
        -0.000          -0.000
   -414496.067 9   -321615.91645  24603192.260    24603191.9844   24603206.5904
        -0.000          -0.000
 01  1 16 20 29 30.0000000  0  2  8 11                               0.000000000
   -107912.592 9    -90904.37048  21138748.123    21138747.3004   21138757.1124
        -0.000          -0.000
   -309506.590 8   -239806.03845  24623171.542    24623171.0954   24623185.2694
        -0.000          -0.000
 01  1 16 20 30  0.0000000  0  2  8 11                               0.000000000
    -42117.836 9    -39635.77948  21151268.508    21151267.6824   21151277.4984
        -0.000          -0.000
   -256414.611 8   -198435.80345  24633274.909    24633274.3304   24633288.1544
        -0.000          -0.000
 01  1 16 20 30 30.0000000  0  2  8 11                               0.000000000
     24072.803 9     11941.29648  21163864.232    21163863.4124   21163873.2614
        -0.000          -0.000
   -202884.438 8   -156724.00345  24643461.299    24643460.7794   24643474.4284
        -0.000          -0.000
 01  1 16 20 31  0.0000000  0  2  8 11                               0.000000000
     90655.833 9     63824.13048  21176534.624    21176533.8204   21176543.6804
        -0.000          -0.000
   -148920.137 8   -114673.85245  24653730.432    24653729.9094   24653743.3564
        -0.000          -0.000
 01  1 16 20 31 30.0000000  0  2  8 11                               0.000000000
  -1417790.474 9  -1111588.63148  20889486.881    20889486.0804   20889495.9414
        -0.000          -0.000
  -1669944.491 9  -1299887.72545  24364289.242    24364288.8044   24364302.5884
        -0.000          -0.000
 01  1 16 20 32  0.0000000  0  2  8 11                               0.000000000
  -1350430.401 9  -1059100.31548  20902305.088    20902304.3064   20902314.2044
        -0.000          -0.000
  -1615121.336 9  -1257168.57945  24374721.817    24374721.1714   24374735.7814
        -0.000          -0.000
 01  1 16 20 32 30.0000000  0  2  8 11                               0.000000000
  -1282685.258 9  -1006311.94948  20915196.700    20915195.8714   20915205.7764
        -0.000          -0.000
  -1559872.937 9  -1214117.92445  24385235.363    24385234.7534   24385249.1654
        -0.000          -0.000
 01  1 16 20 33  0.0000000  0  2  8 11                               0.000000000
  -1214556.630 9   -953224.76448  20928161.233    20928160.3864   20928170.3024
        -0.000          -0.000
  -1504201.265 9  -1170737.44445  24395829.534    24395828.9584   24395843.1164
        -0.000          -0.000
 01  1 16 20 33 30.0000000  0  2  8 11                               0.000000000
  -1146044.592 9   -899838.81448  20941198.705    20941197.8504   20941207.7454
        -0.000          -0.000
  -1448107.479 9  -1127028.01945  24406503.707    24406503.0984   24406517.2724
        -0.000          -0.000
 01  1 16 20 34  0.0000000  0  4  7 26  8 11                         0.000000000
  -2688354.509 9  -2084708.34349  20243180.418    20243179.4294   20243188.3374
        -0.000          -0.000
  -1120975.225 9   -860439.98847  22378014.518    22378014.4134   22378024.4394
        -0.000          -0.000
   -776290.841 9   -611719.06048  21011560.528    21011559.7104   21011569.6064
        -0.000          -0.000
  -1090732.923 9   -848554.45845  24474509.800    24474509.1394   24474523.6224
        -0.000          -0.000
 01  1 16 20 34 30.0000000  0  4  7 26  8 11                        -0.000142065
  -2503981.729 9  -1941041.23949  20278265.594    20278264.4204   20278273.3294
        -0.000          -0.000
   -942110.049 9   -721064.52247  22412051.073    22412051.2204   22412061.2774
        -0.000          -0.000
   -530635.427 9   -420299.30848  21058307.294    21058306.4584   21058316.3634
        -0.000          -0.000
   -857418.447 9   -666750.98045  24518908.354    24518907.6334   24518922.2354
        -0.000          -0.000
 01  1 16 20 35  0.0000000  0  5  7 26  2  8 11                     -0.000077717
  -2403096.108 9  -1862429.06449  20297463.377    20297462.3094   20297471.2284
        -0.000          -0.000
   -846648.604 9   -646678.97847  22430216.832    22430216.9044   22430227.0634
        -0.000          -0.000
   -723986.878 9   -548000.63649  21498003.427    21498002.6024   21498011.8734
        -0.000          -0.000
   -368513.139 9   -293970.31048  21089158.224    21089157.3704   21089167.2564
        -0.000          -0.000
   -707599.578 8   -550008.99545  24547417.869    24547417.1474   24547431.8124
        -0.000          -0.000
 01  1 16 20 35 30.0000000  0  5  7 26  2  8 11                     -0.000042492
  -2347686.723 9  -1819252.90849  20308007.374    20308006.3504   20308015.2814
        -0.000          -0.000
   -796579.259 9   -607663.89947  22439744.943    22439744.7984   22439754.7824
        -0.000          -0.000
   -666922.193 9   -503534.65749  21508862.980    21508861.6754   21508870.9734
        -0.000          -0.000
   -251912.415 9   -203112.64948  21111346.665    21111345.8094   21111355.6994
        -0.000          -0.000
   -603265.376 8   -468709.65945  24567272.030    24567271.2834   24567286.3334
        -0.000          -0.000
 01  1 16 20 36  0.0000000  0  7  7 26  2 27  4  8 11               -0.000023236
  -2316949.112 9  -1795301.51749  20313856.538    20313855.5404   20313864.4654
        -0.000          -0.000
   -771097.070 9   -587807.63747  22444594.007    22444593.9114   22444603.9834
        -0.000          -0.000
   -634909.169 9   -478589.45949  21514954.688    21514953.5484   21514962.8574
        -0.000          -0.000
   -303045.440 9   -240745.70146  23358288.801    23358287.3044   23358302.6084
        -0.000          -0.000
   -749343.435 9   -558786.44645  23744206.818    23744207.1374   23744223.1414
        -0.000          -0.000
   -160028.708 9   -131515.00848  21128831.580    21128830.7454   21128840.6734
        -0.000          -0.000
   -523611.729 9   -406641.91645  24582429.439    24582428.7174   24582443.5014
        -0.000          -0.000
 01  1 16 20 36 30.0000000  0  7  7 26  2 27  4  8 11               -0.000012731
  -2299506.172 9  -1781709.60449  20317175.799    20317174.8134   20317183.7444
        -0.000          -0.000
   -758824.256 9   -578244.39747  22446929.508    22446929.3444   22446939.5244
        -0.000          -0.000
   -616569.203 9   -464298.59049  21518444.637    21518443.5424   21518452.8674
        -0.000          -0.000
   -193253.695 9   -155193.92946  23379178.539    23379180.0514   23379194.7624
        -0.000          -0.000
   -832144.361 9   -623306.38945  23728449.334    23728449.4384   23728466.3514
        -0.000          -0.000
    -81484.663 9    -70311.90848  21143778.090    21143777.2374   21143787.1764
        -0.000          -0.000
   -457261.817 9   -354940.65345  24595055.787    24595055.0674   24595069.5774
        -0.000          -0.000
 01  1 16 20 37  0.0000000  0  7  7 26  2 27  4  8 11               -0.000006957
  -2289140.131 9  -1773632.16149  20319148.367    20319147.3874   20319156.3494
        -0.000          -0.000
   -753542.369 9   -574128.64447  22447934.616    22447934.5184   22447944.6054
        -0.000          -0.000
   -605683.152 9   -455815.96649  21520516.144    21520515.1174   21520524.4794
        -0.000          -0.000
    -90706.768 9    -75287.45046  23398694.001    23398694.8114   23398708.8194
        -0.000          -0.000
   -922491.532 9   -693706.60546  23711262.442    23711258.1174   23711273.7324
        -0.000          -0.000
    -10061.700 9    -14657.69248  21157369.524    21157368.6384   21157378.6044
        -0.000          -0.000
   -397997.615 9   -308760.71145  24606333.530    24606332.6914   24606347.3034
        -0.000          -0.000
 01  1 16 20 37 30.0000000  0  7  7 26  2 27  4  8 11               -0.000003807
  -2282447.461 9  -1768417.08349  20320421.897    20320420.9554   20320429.9044
        -0.000          -0.000
   -751847.427 9   -572807.89247  22448257.140    22448256.9654   22448267.2034
        -0.000          -0.000
   -598846.353 9   -450488.60749  21521817.157    21521816.1674   21521825.5254
        -0.000          -0.000
      7998.171 9      1625.22646  23417477.443    23417477.4364   23417491.8624
        -0.000          -0.000
  -1016977.921 9   -767332.12346  23693279.909    23693277.8334   23693293.5344
        -0.000          -0.000
     57643.704 9     38099.70448  21170253.498    21170252.6094   21170262.5944
        -0.000          -0.000
   -342416.231 8   -265450.56145  24616910.295    24616909.6184   24616924.1504
        -0.000          -0.000
 01  1 16 20 38  0.0000000  0  7  7 26  2 27  4  8 11               -0.000002082
  -2277563.649 9  -1764611.50549  20321351.242    20321350.3024   20321359.2774
        -0.000          -0.000
   -751874.093 9   -572828.67447  22448252.006    22448251.9284   22448262.0574
        -0.000          -0.000
   -594192.961 9   -446862.59649  21522702.647    21522701.6444   21522711.0364
        -0.000          -0.000
    104725.374 9     76996.82646  23435884.325    23435883.9654   23435898.6664
        -0.000          -0.000
  -1113734.582 9   -842726.68946  23674866.979    23674865.5534   23674881.4984
        -0.000          -0.000
    123496.707 9     89413.67748  21182784.938    21182784.0344   21182794.0624
        -0.000          -0.000
   -288653.157 9   -223557.29545  24627140.837    24627140.3054   24627154.9104
        -0.000          -0.000
 01  1 16 20 38 30.0000000  0  7  7 26  2 27  4  8 11               -0.000001137
  -2273472.124 9  -1761423.29049  20322129.834    20322128.9134   20322137.8964
        -0.000          -0.000
   -752605.369 9   -573398.49847  22448113.029    22448112.8254   22448123.0024
        -0.000          -0.000
   -590704.985 9   -444144.70949  21523366.382    21523365.4144   21523374.8474
        -0.000          -0.000
    200490.644 9    151618.88046  23454107.958    23454107.5204   23454122.4024
        -0.000          -0.000
  -1211741.170 9   -919095.24545  23656216.423    23656215.2344   23656231.2024
        -0.000          -0.000
    188514.114 9    140076.53048  21195157.365    21195156.4684   21195166.4904
        -0.000          -0.000
   -235691.894 9   -182288.83745  24637219.041    24637218.4694   24637233.0904
        -0.000          -0.000
 01  1 16 20 39  0.0000000  0  7  7 26  2 27  4  8 11               -0.000000620
  -2269617.192 9  -1758419.43249  20322863.432    20322862.4954   20322871.4684
        -0.000          -0.000
   -753484.889 9   -574083.84247  22447945.690    22447945.5114   22447955.7254
        -0.000          -0.000
   -587825.404 9   -441900.89749  21523914.380    21523913.4254   21523922.8594
        -0.000          -0.000
    295849.329 9    225924.10146  23472254.249    23472253.7264   23472268.9054
        -0.000          -0.000
  -1310437.623 9   -996001.36546  23637434.818    23637433.9554   23637449.8894
        -0.000          -0.000
    253252.261 9    190521.79348  21207476.675    21207475.8004   21207485.8284
        -0.000          -0.000
   -182977.079 9   -141212.35045  24647250.581    24647250.0054   24647264.2944
        -0.000          -0.000
 01  1 16 20 39 30.0000000  0  7  7 26  2 27  4  8 11               -0.000000338
  -2265694.229 9  -1755362.56649  20323609.945    20323609.0084   20323617.9704
        -0.000          -0.000
   -754207.549 9   -574646.95147  22447808.106    22447807.9264   22447818.1804
        -0.000          -0.000
   -585248.314 9   -439892.78649  21524404.799    21524403.8454   21524413.3234
        -0.000          -0.000
    391105.535 9    300149.54146  23490381.057    23490380.6174   23490395.4054
        -0.000          -0.000
  -1409515.728 9  -1073204.89446  23618580.499    23618579.9474   23618595.5954
        -0.000          -0.000
    318015.953 9    240986.95548  21219800.823    21219799.9384   21219809.9724
        -0.000          -0.000
   -130204.235 8   -100090.74345  24657293.008    24657292.5224   24657306.1274
        -0.000          -0.000
 01  1 16 20 40  0.0000000  0  7  7 26  2 27  4  8 11               -0.000000183
  -2261537.749 9  -1752123.73849  20324400.872    20324399.9514   20324408.9174
        -0.000          -0.000
   -754607.093 9   -574958.29147  22447732.096    22447731.9484   22447742.2144
        -0.000          -0.000
   -582806.687 9   -437990.23149  21524869.459    21524868.4744   21524877.9734
        -0.000          -0.000
    486424.408 9    374423.67246  23508519.862    23508519.4294   23508534.5864
        -0.000          -0.000
  -1508805.688 9  -1150573.49546  23599685.865    23599685.5174   23599701.1654
        -0.000          -0.000
    382971.430 9    291601.56348  21232161.518    21232160.6214   21232170.6584
        -0.000          -0.000
    -77208.083 8    -58795.15045  24667377.709    24667377.0414   24667391.0424
        -0.000          -0.000
 01  1 16 20 40 30.0000000  0  7  7 26  2 27  4  8 11               -0.000000098
  -2257057.400 9  -1748632.54249  20325253.481    20325252.5404   20325261.4914
        -0.000          -0.000
   -754592.785 9   -574947.14847  22447734.845    22447734.6774   22447744.9054
        -0.000          -0.000
   -580408.823 9   -436121.77949  21525325.794    21525324.8574   21525334.3064
        -0.000          -0.000
    581895.576 9    448816.59446  23526687.685    23526687.1234   23526702.1594
        -0.000          -0.000
  -1608213.177 9  -1228033.65646  23580769.036    23580768.7134   23580784.5034
        -0.000          -0.000
    448209.054 9    342436.02248  21244575.845    21244574.9774   21244585.0474
        -0.000          -0.000
    -23898.500 8    -17255.21445  24677522.244    24677521.7374   24677535.2344
        -0.000          -0.000
 01  1 16 20 41  0.0000000  0  7  7 26  2 27  4  8 11               -0.000000052
  -2252205.808 9  -1744852.07049  20326176.721    20326175.7814   20326184.7024
        -0.000          -0.000
   -754116.522 9   -574576.05347  22447825.557    22447825.3644   22447835.4884
        -0.000          -0.000
   -578005.591 9   -434249.14149  21525783.245    21525782.2714   21525791.6594
        -0.000          -0.000
    677566.371 9    523365.03546  23544893.579    23544892.9514   23544908.0554
        -0.000          -0.000
  -1707686.457 9  -1305545.14346  23561839.794    23561839.4474   23561855.1074
        -0.000          -0.000
    513776.763 9    393527.68248  21257053.022    21257052.1594   21257062.2234
        -0.000          -0.000
     29772.053 9     24565.81145  24687735.428    24687734.8754   24687748.8824
        -0.000          -0.000
 01  1 16 20 41 30.0000000  0  8  7 26  9  2 27  4  8 11            -0.000000026
  -2246954.662 9  -1740760.26549  20327175.997    20327175.0504   20327183.9594
        -0.000          -0.000
   -753149.722 9   -573822.72147  22448009.492    22448009.3074   22448019.4054
        -0.000          -0.000
  -1796774.86418  -1367772.41045         0.000           0.0005   24865394.9724
        -0.000          -0.000
   -575567.375 9   -432349.24649  21526247.251    21526246.2604   21526255.6094
        -0.000          -0.000
    773464.427 9    598090.55246  23563142.509    23563141.9754   23563156.8714
        -0.000          -0.000
  -1807193.250 9  -1383082.71946  23542904.154    23542903.7784   23542919.4974
        -0.000          -0.000
    579702.907 9    444898.63348  21269598.344    21269597.5144   21269607.6024
        -0.000          -0.000
     83831.590 9     66689.94045  24698022.655    24698021.9954   24698036.4194
        -0.000          -0.000
 01  1 16 20 42  0.0000000  0  8  7 26  9  2 27  4  8 11            -0.000000012
  -2241291.527 9  -1736347.42849  20328253.649    20328252.7134   20328261.6264
        -0.000          -0.000
   -751679.281 9   -572676.94947  22448289.281    22448289.1334   22448299.2474
        -0.000          -0.000
  -1896777.869 8  -1445696.64745  24846349.961    24846350.4004   24846365.1264
        -0.000          -0.000
   -573080.201 9   -430411.19549  21526720.532    21526719.5524   21526728.8814
        -0.000          -0.000
    869601.712 9    673002.45846  23581437.117    23581436.5204   23581451.5684
        -0.000          -0.000
  -1906716.904 9  -1460633.45746  23523965.254    23523964.9884   23523980.6264
        -0.000          -0.000
    646000.669 9    496559.16148  21282214.443    21282213.6104   21282223.7464
        -0.000          -0.000
    138292.185 8    109126.63245  24708386.444    24708385.6914   24708400.2014
        -0.000          -0.000
 01  1 16 20 42 30.0000000  0  8  7 26  9  2 27  4  8 11            -0.000000005
  -2235208.222 9  -1731607.18749  20329411.259    20329410.3224   20329419.2404
        -0.000          -0.000
   -749696.550 9   -571131.97847  22448666.603    22448666.4224   22448676.6124
        -0.000          -0.000
  -1996785.779 9  -1523624.76145  24827318.818    24827318.9454   24827334.7504
        -0.000          -0.000
   -570534.139 9   -428427.26249  21527205.031    21527204.0674   21527213.3884
        -0.000          -0.000
    965985.834 9    748106.70146  23599778.569    23599777.8634   23599793.0634
        -0.000          -0.000
  -2006245.069 9  -1538187.71846  23505025.411    23505025.2504   23505040.8354
        -0.000          -0.000
    712678.588 9    548515.90448  21294902.914    21294902.0464   21294912.2004
        -0.000          -0.000
    193162.158 9    151882.18545  24718827.768    24718826.8424   24718841.9514
        -0.000          -0.000
 01  1 16 20 43  0.0000000  0  8  7 26  9  2 27  4  8 11            -0.000000000
  -2228702.399 9  -1726537.71449  20330649.267    20330648.3454   20330657.2364
        -0.000          -0.000
   -747198.419 9   -569185.40947  22449142.042    22449141.8634   22449151.9854
        -0.000          -0.000
  -2096793.093 8  -1601552.41145  24808288.545    24808288.0404   24808304.0974
        -0.000          -0.000
   -567925.551 9   -426394.60149  21527701.423    21527700.4734   21527709.8174
        -0.000          -0.000
   1062618.897 9    823404.95046  23618167.465    23618166.7844   23618182.0564
        -0.000          -0.000
  -2105771.134 9  -1615740.35746  23486086.295    23486086.0824   23486101.3284
        -0.000          -0.000
    779739.483 9    600771.07648  21307664.251    21307663.3814   21307673.5364
        -0.000          -0.000
    248443.546 9    194958.50945  24729347.498    24729346.8484   24729361.4134
        -0.000          -0.000
 01  1 16 20 43 30.0000000  0  8  7 26  9  2 27  4  8 11            -0.000000029
  -2221774.926 9  -1721139.68749  20331967.502    20331966.6024   20331975.4764
        -0.000          -0.000
   -744185.485 9   -566837.68847  22449715.411    22449715.1964   22449725.3964
        -0.000          -0.000
  -2196797.629 8  -1679477.91345  24789258.424    24789257.7244   24789273.8604
        -0.000          -0.000
   -565253.642 9   -424312.60649  21528209.927    21528208.9614   21528218.3014
        -0.000          -0.000
   1159499.668 9    898896.21246  23636603.324    23636602.7404   23636618.1034
        -0.000          -0.000
  -2205291.825 9  -1693288.79246  23467148.022    23467147.8134   23467163.2044
        -0.000          -0.000
    847182.904 9    653324.31448  21320498.355    21320497.4774   21320507.6764
        -0.000          -0.000
    304135.368 9    238354.60645  24739945.634    24739944.9414   24739959.3514
        -0.000          -0.000
 01  1 16 20 44  0.0000000  0  8  7 26  9  2 27  4  8 11            -0.000000029
  -2214422.530 9  -1715410.55249  20333366.647    20333365.7444   20333374.5954
        -0.000          -0.000
   -740654.044 9   -564085.93247  22450387.398    22450387.2104   22450397.4834
        -0.000          -0.000
  -2296793.561 8  -1757396.70845  24770229.840    24770229.2074   24770245.2374
        -0.000          -0.000
   -562513.699 9   -422177.59749  21528731.304    21528730.3404   21528739.6644
        -0.000          -0.000
   1256630.806 9    974582.53246  23655086.969    23655086.4144   23655101.9124
        -0.000          -0.000
  -2304799.663 9  -1770827.23946  23448212.262    23448212.0914   23448227.4234
        -0.000          -0.000
    915012.290 9    706178.30048  21333405.904    21333405.0114   21333415.2514
        -0.000          -0.000
    360240.526 9    282072.69945  24750622.194    24750621.5894   24750636.1704
        -0.000          -0.000
 01  1 16 20 44 30.0000000  0  8  7 26  9  2 27  4  8 11            -0.000000029
  -2206645.584 9  -1709350.59949  20334846.577    20334845.6694   20334854.5334
        -0.000          -0.000
   -736603.780 9   -560929.91247  22451158.160    22451157.9774   22451168.1754
        -0.000          -0.000
  -2396777.831 8  -1835306.41845  24751203.457    24751202.8594   24751218.6094
        -0.000          -0.000
   -559704.118 9   -419988.32449  21529265.956    21529264.9904   21529274.3194
        -0.000          -0.000
   1354011.609 9   1050463.39745  23673618.011    23673617.4954   23673632.8784
        -0.000          -0.000
  -2404290.533 9  -1848352.48846  23429279.512    23429279.3274   23429294.6324
        -0.000          -0.000
    983227.810 9    759333.15748  21346386.963    21346386.0644   21346396.3224
        -0.000          -0.000
    416758.805 8    326112.69345  24761377.415    24761376.7174   24761391.5944
        -0.000          -0.000
 01  1 16 20 45  0.0000000  0  8  7 26  9  2 27  4  8 11            -0.000000028
  -2198445.218 9  -1702960.71249  20336407.081    20336406.1794   20336415.0194
        -0.000          -0.000
   -732035.335 9   -557370.12047  22452027.555    22452027.3744   22452037.5224
        -0.000          -0.000
  -2496748.682 8  -1913205.67345  24732179.609    24732179.1884   24732194.6654
        -0.000          -0.000
   -556824.488 9   -417744.47049  21529813.931    21529812.9614   21529822.3414
        -0.000          -0.000
   1451640.437 9   1126537.50246  23692196.471    23692195.8154   23692211.6224
        -0.000          -0.000
  -2503761.513 9  -1925862.23846  23410350.678    23410350.4324   23410365.7434
        -0.000          -0.000
   1051828.777 9    812788.35848  21359441.356    21359440.4574   21359450.7104
        -0.000          -0.000
    473688.758 8    370473.42645  24772210.631    24772209.8844   24772225.0174
        -0.000          -0.000
 01  1 16 20 45 30.0000000  0  8  7 26  9  2 27  4  8 11            -0.000000027
  -2189822.812 9  -1696241.96149  20338047.879    20338046.9834   20338055.8264
        -0.000          -0.000
   -726949.922 9   -553407.48047  22452995.299    22452995.1154   22453005.3344
        -0.000          -0.000
  -2596704.204 8  -1991093.00045  24713158.677    24713158.2274   24713173.8194
        -0.000          -0.000
   -553874.706 9   -415445.95349  21530375.235    21530374.2824   21530383.6544
        -0.000          -0.000
   1549515.226 9   1202803.34246  23710821.779    23710821.0914   23710836.7714
        -0.000          -0.000
  -2603209.698 9  -2003354.21146  23391426.220    23391425.9944   23391441.3394
        -0.000          -0.000
   1120814.100 9    866543.04748  21372568.889    21372568.0294   21372578.2654
        -0.000          -0.000
    531028.890 8    415153.85745  24783122.275    24783121.6114   24783136.6514
        -0.000          -0.000
 01  1 16 20 46  0.0000000  0  8  7 26  9  2 27  4  8 11            -0.000000028
  -2180779.496 9  -1689195.22849  20339768.777    20339767.8624   20339776.7224
        -0.000          -0.000
   -721347.940 9   -549042.32347  22454061.280    22454061.1174   22454071.4854
        -0.000          -0.000
  -2696642.199 8  -2068966.66745  24694141.056    24694140.5524   24694156.1804
        -0.000          -0.000
   -550854.005 9   -413092.17449  21530950.053    21530949.1044   21530958.4844
        -0.000          -0.000
   1647634.872 9   1279259.88746  23729493.152    23729492.6844   23729508.6414
        -0.000          -0.000
  -2702631.593 9  -2080825.73546  23372506.899    23372506.6814   23372522.0164
        -0.000          -0.000
   1190182.997 9    920596.62748  21385769.460    21385768.6004   21385778.8254
        -0.000          -0.000
    588777.794 9    460152.83145  24794111.812    24794111.2024   24794126.1194
        -0.000          -0.000
 01  1 16 20 46 30.0000000  0  8  7 26  9  2 27  4  8 11            -0.000000027
  -2171316.749 9  -1681821.66849  20341569.506    20341568.5854   20341577.4334
        -0.000          -0.000
   -715230.453 9   -544275.48247  22455225.480    22455225.3214   22455235.5634
        -0.000          -0.000
  -2796561.203 8  -2146825.54345  24675127.019    24675126.5054   24675142.1284
        -0.000          -0.000
   -547762.123 9   -410682.93249  21531538.480    21531537.5274   21531546.9074
        -0.000          -0.000
   1745997.420 9   1355905.74945  23748211.229    23748210.7554   23748226.5884
        -0.000          -0.000
  -2802024.658 9  -2158274.76046  23353592.786    23353592.6064   23353608.0154
        -0.000          -0.000
   1259934.542 9    974948.38548  21399042.820    21399041.9514   21399052.2164
        -0.000          -0.000
    646933.790 9    505469.04145  24805178.774    24805178.1424   24805192.8614
        -0.000          -0.000
 01  1 16 20 47  0.0000000  0  8  7 26  9  2 27  4  8 11            -0.000000026
  -2161435.787 9  -1674122.22849  20343449.793    20343448.8934   20343457.7394
        -0.000          -0.000
   -708598.264 9   -539107.57247  22456487.630    22456487.4974   22456497.5774
        -0.000          -0.000
  -2896459.544 8  -2224668.28645  24656116.922    24656116.5354   24656132.1864
        -0.000          -0.000
   -544598.549 9   -408217.82349  21532140.504    21532139.5804   21532149.0054
        -0.000          -0.000
   1844601.192 9   1432739.55245  23766975.140    23766974.6054   23766990.5634
        -0.000          -0.000
  -2901385.602 9  -2235698.76946  23334684.877    23334684.7444   23334700.1534
        -0.000          -0.000
   1330067.724 9   1029597.51748  21412388.759    21412387.9224   21412398.2294
        -0.000          -0.000
    705495.540 8    551101.44245  24816323.032    24816322.4374   24816336.9404
        -0.000          -0.000
 01  1 16 20 47 30.0000000  0  8  7 26  9  2 27  4  8 11            -0.000000025
  -2151138.786 9  -1666098.59649  20345409.270    20345408.3574   20345417.2074
        -0.000          -0.000
   -701453.218 9   -533540.02547  22457847.366    22457847.1664   22457857.2194
        -0.000          -0.000
  -2996335.909 8  -2302493.91745  24637110.997    24637110.7244   24637126.3824
        -0.000          -0.000
   -541363.971 9   -405697.38349  21532756.074    21532755.1344   21532764.5504
        -0.000          -0.000
   1943443.557 8   1509759.27645  23785784.564    23785783.8854   23785800.0144
        -0.000          -0.000
  -3000712.212 9  -2313096.01646  23315783.522    23315783.4494   23315798.7074
        -0.000          -0.000
   1400580.854 9   1084542.72548  21425807.056    21425806.2034   21425816.5504
        -0.000          -0.000
    764460.507 8    597047.97145  24827543.700    24827543.0484   24827557.6424
        -0.000          -0.000
 01  1 16 20 48  0.0000000  0  8  7 26  9  2 27  4  8 11            -0.000000025
  -2140425.788 9  -1657750.81949  20347447.938    20347447.0164   20347455.8604
        -0.000          -0.000
   -693794.786 9   -527572.44147  22459304.611    22459304.4774   22459314.7254
        -0.000          -0.000
  -3096187.022 8  -2380299.88045  24618109.966    24618109.6184   24618125.5264
        -0.000          -0.000
   -538056.527 9   -403120.16749  21533385.497    21533384.5584   21533393.9514
        -0.000          -0.000
   2042524.089 8   1586964.57645  23804639.174    23804638.6414   23804654.7044
        -0.000          -0.000
  -3100000.226 9  -2390463.19446  23296889.550    23296889.4294   23296904.7564
        -0.000          -0.000
   1471474.227 9   1139784.21248  21439297.723    21439296.8434   21439307.2014
        -0.000          -0.000
    823828.816 8    643308.76445  24838841.087    24838840.6084   24838855.6214
        -0.000          -0.000
 01  1 16 20 48 30.0000000  0  8  7 26  9  2 27  4  8 11            -0.000000024
  -2129298.593 9  -1649080.29249  20349565.402    20349564.4704   20349573.3164
        -0.000          -0.000
   -685624.475 9   -521205.99247  22460859.462    22460859.3104   22460869.5864
        -0.000          -0.000
  -3196011.581 8  -2458085.15245  24599113.886    24599113.5494   24599129.4344
        -0.000          -0.000
   -534676.090 9   -400486.07849  21534028.887    21534027.8934   21534037.2774
        -0.000          -0.000
   2141840.651 9   1664353.75545  23823538.633    23823538.1064   23823554.2764
        -0.000          -0.000
  -3199246.862 9  -2467798.09746  23278003.536    23278003.3644   23278018.7234
        -0.000          -0.000
   1542746.573 9   1195321.00448  21452860.515    21452859.6344   21452870.0004
        -0.000          -0.000
    883598.220 9    689882.27045  24850214.856    24850214.4744   24850229.1334
        -0.000          -0.000
 01  1 16 20 49  0.0000000  0  8  7 26  9  2 27  4  8 11            -0.000000023
  -2117758.785 9  -1640088.24249  20351761.361    20351760.4294   20351769.2574
        -0.000          -0.000
   -676943.480 9   -514441.62347  22462511.536    22462511.3674   22462521.4394
        -0.000          -0.000
  -3295807.990 8  -2535848.48445  24580123.173    24580122.7354   24580138.5584
        -0.000          -0.000
   -531222.697 9   -397795.14149  21534686.083    21534685.0784   21534694.4594
        -0.000          -0.000
   2241391.200 8   1741925.33445  23842482.751    23842482.2744   23842498.4194
        -0.000          -0.000
  -3298449.443 9  -2545098.68446  23259125.945    23259125.7734   23259141.0494
        -0.000          -0.000
   1614396.422 9   1251151.95348  21466495.123    21466494.2654   21466504.6374
        -0.000          -0.000
    943766.790 9    736766.82845  24861664.758    24861664.6074   24861678.6834
        -0.000          -0.000
 01  1 16 20 49 30.0000000  0  8  7 26  9  2 27  4  8 11            -0.000000024
  -2105807.451 9  -1630775.52849  20354035.649    20354034.7154   20354043.5574
        -0.000          -0.000
   -667752.299 9   -507279.68647  22464260.437    22464260.2464   22464270.4124
        -0.000          -0.000
  -3395573.932 9  -2613588.07045  24561138.326    24561137.9974   24561153.4454
        -0.000          -0.000
   -527695.215 9   -395046.46649  21535357.268    21535356.2734   21535365.7314
        -0.000          -0.000
   2341174.396 9   1819678.14445  23861470.954    23861470.5774   23861486.8434
        -0.000          -0.000
  -3397604.340 9  -2622362.09546  23240257.389    23240257.1954   23240272.4104
        -0.000          -0.000
   1686423.407 9   1307276.77148  21480201.425    21480200.5664   21480210.9914
        -0.000          -0.000
   1004333.614 8    783961.60745  24873190.385    24873190.0784   24873204.7844
        -0.000          -0.000
 01  1 16 20 50  0.0000000  0  8  7 26  9  2 27  4  8 11            -0.000000023
  -2093445.170 9  -1621142.59649  20356388.139    20356387.1964   20356396.0374
        -0.000          -0.000
   -658051.294 9   -499720.49247  22466106.492    22466106.3884   22466116.6024
        -0.000          -0.000
  -3495307.002 9  -2691302.03045  24542159.727    24542159.3274   24542174.7344
        -0.000          -0.000
   -524092.702 9   -392239.32749  21536042.611    21536041.7094   21536051.2654
        -0.000          -0.000
   2441189.223 9   1897611.43945  23880503.298    23880502.8114   23880519.3744
        -0.000          -0.000
  -3496707.925 9  -2699585.50146  23221398.408    23221398.3204   23221413.5104
        -0.000          -0.000
   1758826.988 9   1363695.03848  21493979.412    21493978.5984   21493989.0434
        -0.000          -0.000
   1065297.592 9    831465.87345  24884791.585    24884791.2274   24884805.9334
        -0.000          -0.000
 01  1 16 20 50 30.0000000  0  8  7 26  9  2 27  4  8 11            -0.000000021
  -2080674.546 9  -1611191.47849  20358818.288    20358817.3644   20358826.2014
        -0.000          -0.000
   -647842.762 9   -491765.82047  22468049.331    22468049.1534   22468059.3034
        -0.000          -0.000
  -3595006.212 9  -2768989.58045  24523187.535    24523187.1814   24523202.4854
        -0.000          -0.000
   -520415.807 9   -389374.23449  21536742.298    21536741.4244   21536751.0084
        -0.000          -0.000
   2541432.725 9   1975722.93745  23899579.299    23899578.7764   23899595.4434
        -0.000          -0.000
  -3595758.072 9  -2776767.26946  23202549.586    23202549.6384   23202564.6944
        -0.000          -0.000
   1831605.283 9   1420405.29048  21507828.761    21507827.9404   21507838.3894
        -0.000          -0.000
   1126655.938 9    879277.44445  24896467.842    24896467.5144   24896482.2734
        -0.000          -0.000
 01  1 16 20 51  0.0000000  0  8  7 26  9  2 27  4  8 11            -0.000000020
  -2067496.887 9  -1600923.18449  20361325.928    20361325.0084   20361333.8604
        -0.000          -0.000
   -637127.593 9   -483416.37247  22470088.382    22470088.1824   22470098.2904
        -0.000          -0.000
  -3694669.376 9  -2846649.03645  24504222.199    24504221.7504   24504236.9634
        -0.000          -0.000
   -516664.054 9   -386450.80649  21537456.239    21537455.3604   21537464.9154
        -0.000          -0.000
   2641903.146 9   2054011.22945  23918698.474    23918698.0494   23918714.6604
        -0.000          -0.000
  -3694751.842 9  -2853905.06346  23183711.588    23183711.5414   23183726.6254
        -0.000          -0.000
   1904757.119 9   1477406.60548  21521749.124    21521748.3644   21521758.8494
        -0.000          -0.000
   1188407.119 9    927395.19845  24908218.826    24908218.4094   24908233.2884
        -0.000          -0.000
 01  1 16 20 51 30.0000000  0  8  7 26  9  2 27  4  8 11            -0.000000019
  -2053913.492 9  -1590338.73949  20363910.771    20363909.8394   20363918.7214
        -0.000          -0.000
   -625906.847 9   -474672.97147  22472223.523    22472223.3444   22472233.4854
        -0.000          -0.000
  -3794294.565 8  -2924278.89245  24485264.063    24485263.6654   24485278.7304
        -0.000          -0.000
   -512836.731 9   -383468.49449  21538184.641    21538183.7264   21538193.2334
        -0.000          -0.000
   2742598.689 9   2132474.96745  23937860.565    23937860.0734   23937876.5394
        -0.000          -0.000
  -3793685.797 9  -2930996.24646  23164884.927    23164884.9334   23164900.0664
        -0.000          -0.000
   1978281.636 9   1534698.31648  21535740.495    21535739.7274   21535750.2214
        -0.000          -0.000
   1250549.597 9    975817.89245  24920044.316    24920043.8604   24920058.7814
        -0.000          -0.000
 01  1 16 20 52  0.0000000  0  8  7 26  9  2 27  4  8 11            -0.000000019
  -2039925.518 9  -1579439.03949  20366572.601    20366571.6664   20366580.5644
        -0.000          -0.000
   -614181.106 9   -465536.07047  22474454.924    22474454.7584   22474464.9414
        -0.000          -0.000
  -3893879.669 8  -3001877.50845  24466313.580    24466313.0954   24466328.3234
        -0.000          -0.000
   -508933.055 9   -380426.68849  21538927.540    21538926.6214   21538936.1214
        -0.000          -0.000
   2843517.918 9   2211112.94745  23957064.977    23957064.5484   23957081.2504
        -0.000          -0.000
  -3892556.607 9  -3008038.21346  23146070.267    23146070.2894   23146085.3634
        -0.000          -0.000
   2052178.042 9   1592279.81548  21549802.722    21549801.8824   21549812.3594
        -0.000          -0.000
   1313082.396 8   1024544.69945  24931944.049    24931943.3954   24931958.3464
        -0.000          -0.000
 01  1 16 20 52 30.0000000  0  8  7 26  9  2 27  4  8 11             0.000000014
  -2025537.065 9  -1568227.27249  20369310.678    20369309.7404   20369318.6514
        -0.000          -0.000
   -601954.365 9   -456008.77447  22476781.699    22476781.4984   22476791.6734
        -0.000          -0.000
  -3993425.439 8  -3079445.48545  24447370.539    24447370.0394   24447385.3234
        -0.000          -0.000
   -504955.284 9   -377327.14849  21539684.476    21539683.5774   21539693.0744
        -0.000          -0.000
   2944656.259 8   2289921.74945  23976311.485    23976311.0244   23976327.3844
        -0.000          -0.000
  -3991363.782 9  -3085030.58546  23127267.875    23127267.8354   23127282.7744
        -0.000          -0.000
   2126442.526 9   1650148.13648  21563934.887    21563934.0494   21563944.5284
        -0.000          -0.000
   1376000.827 8   1073571.90245  24943916.981    24943916.3874   24943931.7434
        -0.000          -0.000
 01  1 16 20 53  0.0000000  0  8  7 26  9  2 27  4  8 11             0.000000011
  -2010748.292 9  -1556703.57249  20372124.899    20372123.9624   20372132.8514
        -0.000          -0.000
   -589226.409 9   -446090.93047  22479203.577    22479203.4314   22479213.7094
        -0.000          -0.000
  -4092928.498 8  -3156980.18045  24428435.661    24428434.8874   24428450.4424
        -0.000          -0.000
   -500901.722 9   -374168.54649  21540455.929    21540455.0034   21540464.4574
        -0.000          -0.000
   3046013.191 9   2368900.77545  23995599.317    23995598.6814   23995615.5404
        -0.000          -0.000
  -4090103.053 9  -3161969.99546  23108478.341    23108478.2444   23108493.1394
        -0.000          -0.000
   2201075.431 9   1708303.53648  21578137.112    21578136.2874   21578146.8184
        -0.000          -0.000
   1439304.516 9   1122899.24945  24955963.239    24955962.6464   24955978.0474
        -0.000          -0.000
 01  1 16 20 53 30.0000000  0  8  7 26  9  2 27  4  8 11             0.000000009
  -1995556.877 9  -1544866.12649  20375015.765    20375014.8314   20375023.7084
        -0.000          -0.000
   -575994.571 9   -435780.45147  22481721.524    22481721.3694   22481731.7364
        -0.000          -0.000
  -4192382.887 8  -3234476.96445  24409510.002    24409509.3194   24409524.7824
        -0.000          -0.000
   -496767.778 9   -370947.30549  21541242.651    21541241.6994   21541251.1344
        -0.000          -0.000
   3147590.893 9   2448051.85645  24014929.009    24014928.3704   24014945.3934
        -0.000          -0.000
  -4188767.336 9  -3238850.97146  23089703.103    23089702.8924   23089717.7244
        -0.000          -0.000
   2276079.333 9   1766748.03248  21592409.959    21592409.1364   21592419.7154
        -0.000          -0.000
   1502995.773 9   1172528.70845  24968083.468    24968082.8864   24968098.2184
        -0.000          -0.000
 01  1 16 20 54  0.0000000  0  8  7 26  9  2 27  4  8 11             0.000000009
  -1979965.548 9  -1532717.05549  20377982.675    20377981.7374   20377990.6484
        -0.000          -0.000
   -562261.259 9   -425079.21447  22484334.963    22484334.7694   22484345.1534
        -0.000          -0.000
  -4291788.004 9  -3311935.41545  24390593.751    24390593.1044   24390608.2954
        -0.000          -0.000
   -492554.253 9   -367664.05449  21542044.465    21542043.5334   21542052.9674
        -0.000          -0.000
   3249386.129 8   2527372.46445  24034300.463    24034299.8914   24034316.6574
        -0.000          -0.000
  -4287354.823 9  -3315672.10046  23070942.259    23070942.1604   23070956.8754
        -0.000          -0.000
   2351451.947 9   1825479.81948  21606752.954    21606752.1464   21606762.7414
        -0.000          -0.000
   1567071.343 9   1222457.58045  24980276.863    24980276.2144   24980291.6734
        -0.000          -0.000
 01  1 16 20 54 30.0000000  0  8  7 26  9  2 27  4  8 11             0.000000009
  -1963976.710 9  -1520258.24149  20381025.273    20381024.3504   20381033.2654
        -0.000          -0.000
   -548028.657 9   -413988.91147  22487043.425    22487043.1934   22487053.6714
        -0.000          -0.000
  -4391142.890 9  -3389354.71845  24371687.058    24371686.5624   24371701.4574
        -0.000          -0.000
   -488261.594 9   -364319.14649  21542861.399    21542860.4584   21542869.8564
        -0.000          -0.000
   3351396.137 8   2606860.44445  24053712.426    24053712.0914   24053728.7884
        -0.000          -0.000
  -4385863.205 9  -3392431.54546  23052196.497    23052196.4064   23052211.1414
        -0.000          -0.000
   2427191.221 9   1884497.31248  21621165.811    21621164.9694   21621175.5864
        -0.000          -0.000
   1631528.694 8   1272684.05045  24992542.795    24992542.3324   24992557.4944
        -0.000          -0.000
 01  1 16 20 55  0.0000000  0  8  7 26  9  2 27  4  8 11             0.000000009
  -1947591.699 9  -1507490.71849  20384143.234    20384142.3324   20384151.2524
        -0.000          -0.000
   -533297.807 9   -402510.37647  22489846.682    22489846.4534   22489856.9084
        -0.000          -0.000
  -4490445.562 9  -3466733.35745  24352790.302    24352789.7844   24352804.5674
        -0.000          -0.000
   -483889.126 9   -360912.04348  21543693.421    21543692.4824   21543701.9344
        -0.000          -0.000
   3453619.249 8   2686514.37545  24073165.193    24073164.8044   24073181.9104
        -0.000          -0.000
  -4484289.418 9  -3469126.95346  23033466.340    23033466.3734   23033480.9874
        -0.000          -0.000
   2503296.084 9   1943799.68348  21635648.156    21635647.3134   21635658.0094
        -0.000          -0.000
   1696366.528 8   1323206.88445  25004881.027    25004880.5534   25004895.6344
        -0.000          -0.000
 01  1 16 20 55 30.0000000  0  8  7 26  9  2 27  4  8 11             0.000000010
  -1930812.212 9  -1494415.81049  20387336.260    20387335.3614   20387344.2944
        -0.000          -0.000
   -518070.153 9   -390644.71847  22492744.405    22492744.2074   22492754.6604
        -0.000          -0.000
  -4589693.939 9  -3544069.66045  24333903.883    24333903.5004   24333918.2004
        -0.000          -0.000
   -479436.399 9   -357442.40048  21544540.684    21544539.7664   21544549.2594
        -0.000          -0.000
   3556053.431 8   2766332.91345  24092658.335    24092657.9694   24092674.5724
        -0.000          -0.000
  -4582630.389 9  -3545755.95646  23014752.567    23014752.5494   23014767.0574
        -0.000          -0.000
   2579765.141 9   2003385.85948  21650199.806    21650198.9794   21650209.6854
        -0.000          -0.000
   1761582.692 8   1374024.47545  25017291.316    25017290.5114   25017306.2684
        -0.000          -0.000
 01  1 16 20 56  0.0000000  0  8  7 26  9  2 27  4  8 11             0.000000010
  -1913639.879 9  -1481034.79049  20390604.092    20390603.1794   20390612.1254
        -0.000          -0.000
   -502346.997 9   -378392.95747  22495736.541    22495736.3064   22495746.7584
        -0.000          -0.000
  -4688886.062 8  -3621362.11045  24315028.244    24315027.7574   24315042.5664
        -0.000          -0.000
   -474903.002 9   -353909.89849  21545403.407    21545402.4984   21545411.9954
        -0.000          -0.000
   3658696.661 9   2846314.17145  24112190.858    24112190.4074   24112207.4214
        -0.000          -0.000
  -4680883.209 9  -3622316.23246  22996055.419    22996055.3534   22996069.8484
        -0.000          -0.000
   2656597.257 9   2063254.92748  21664820.575    21664819.7474   21664830.4734
        -0.000          -0.000
   1827175.362 9   1425135.53345  25029773.361    25029772.4384   25029788.1294
        -0.000          -0.000
 01  1 16 20 56 30.0000000  0  8  7 26  9  2 27  4  8 11             0.000000010
  -1896076.952 9  -1467349.40449  20393946.215    20393945.3064   20393954.2754
        -0.000          -0.000
   -486130.350 9   -365756.64947  22498822.459    22498822.2494   22498832.7064
        -0.000          -0.000
  -4788020.710 8  -3698609.74345  24296163.350    24296162.9774   24296177.8974
        -0.000          -0.000
   -470289.030 9   -350314.60849  21546281.432    21546280.5104   21546290.0354
        -0.000          -0.000
   3761546.393 8   2926456.53845  24131762.765    24131762.1684   24131779.1534
        -0.000          -0.000
  -4779045.111 9  -3698805.67546  22977375.508    22977375.4954   22977390.0074
        -0.000          -0.000
   2733790.505 9   2123405.40248  21679510.023    21679509.2084   21679519.9674
        -0.000          -0.000
   1893141.887 9   1476537.83345  25042326.529    25042325.6984   25042341.5064
        -0.000          -0.000
 01  1 16 20 57  0.0000000  0  8  7 26  9  2 27  4  8 11             0.000000010
  -1878122.862 9  -1453359.21849  20397362.776    20397361.8804   20397370.8364
        -0.000          -0.000
   -469419.626 9   -352735.35147  22502002.445    22502002.1984   22502012.6314
        -0.000          -0.000
  -4887093.755 8  -3775809.37445  24277310.162    24277309.7494   24277324.9164
        -0.000          -0.000
   -465591.907 9   -346654.53249  21547175.319    21547174.3824   21547183.9114
        -0.000          -0.000
   3864602.822 8   3006759.79345  24151373.978    24151373.2914   24151390.7734
        -0.000          -0.000
  -4877111.189 9  -3775220.46246  22958714.027    22958713.9444   22958728.2394
        -0.000          -0.000
   2811345.589 9   2183837.80548  21694268.352    21694267.5614   21694278.3554
        -0.000          -0.000
   1959482.911 9   1528232.03845  25054950.958    25054950.0794   25054965.9104
        -0.000          -0.000
 01  1 16 20 57 30.0000000  0  8  7 26  9  2 27  4  8 11             0.000000011
  -1859780.472 9  -1439066.45849  20400853.254    20400852.3444   20400861.2964
        -0.000          -0.000
   -452217.328 9   -339330.99947  22505276.025    22505275.7624   22505286.2124
        -0.000          -0.000
  -4986104.513 8  -3852960.45945  24258468.893    24258468.5724   24258483.8234
        -0.000          -0.000
   -460812.356 9   -342930.22148  21548084.856    21548083.9124   21548093.4884
        -0.000          -0.000
   3967862.706 9   3087221.68145  24171023.846    24171023.2174   24171040.6874
        -0.000          -0.000
  -4975079.560 9  -3851559.12046  22940071.082    22940070.9504   22940085.1774
        -0.000          -0.000
   2889260.126 9   2244550.31448  21709095.118    21709094.2874   21709105.1154
        -0.000          -0.000
   2026195.087 8   1580215.37945  25067645.933    25067645.1014   25067661.1814
        -0.000          -0.000
 01  1 16 20 58  0.0000000  0  8  7 26  9  2 27  4  8 11             0.000000012
  -1841051.795 9  -1424472.69749  20404417.234    20404416.3264   20404425.2594
        -0.000          -0.000
   -434525.225 9   -325544.98847  22508642.689    22508642.4714   22508652.9814
        -0.000          -0.000
  -5085051.423 9  -3930061.82345  24239639.879    24239639.5274   24239654.6834
        -0.000          -0.000
   -455949.919 9   -339141.32248  21549010.114    21549009.1814   21549018.8264
        -0.000          -0.000
   4071323.632 8   3167840.23745  24190712.407    24190711.6504   24190729.0034
        -0.000          -0.000
  -5072947.429 9  -3927819.44646  22921447.209    22921447.0634   22921461.2424
        -0.000          -0.000
   2967532.524 9   2305541.67448  21723990.040    21723989.1454   21724000.0004
        -0.000          -0.000
   2093276.816 8   1632486.72445  25080411.160    25080410.1444   25080426.3274
        -0.000          -0.000
 01  1 16 20 58 30.0000000  0  8  7 26  9  2 27  4  8 11             0.000000012
  -1821938.035 9  -1409578.87349  20408054.512    20408053.5884   20408062.5164
        -0.000          -0.000
   -416344.469 9   -311378.20547  22512102.388    22512102.1864   22512112.7144
        -0.000          -0.000
  -5183932.035 9  -4007111.53846  24220823.515    24220823.1734   24220838.2954
        -0.000          -0.000
   -451004.006 9   -335287.37848  21549951.237    21549950.3404   21549960.0174
        -0.000          -0.000
   4174984.067 8   3248614.17145  24210438.631    24210437.9614   24210455.4494
        -0.000          -0.000
  -5170711.200 9  -4003998.69246  22902843.126    22902843.0324   22902857.0834
        -0.000          -0.000
   3046161.702 9   2366811.04248  21738952.791    21738951.8774   21738962.7374
        -0.000          -0.000
   2160725.965 8   1685044.33245  25093246.446    25093245.7874   25093261.3634
        -0.000          -0.000
 01  1 16 20 59  0.0000000  0  8  7 26  9  2 27  4  8 11             0.000000012
  -1802441.546 9  -1394386.81649  20411764.543    20411763.6404   20411772.5904
        -0.000          -0.000
   -397677.283 9   -296832.39147  22515654.749    22515654.5074   22515665.0314
        -0.000          -0.000
  -5282745.114 9  -4084108.64145  24202020.059    24202019.6204   24202034.6174
        -0.000          -0.000
   -445974.889 9   -331368.60548  21550908.305    21550907.3674   21550917.0424
        -0.000          -0.000
   4278841.442 9   3329541.59545  24230202.262    24230201.5194   24230219.3194
        -0.000          -0.000
  -5268368.762 9  -4080095.16746  22884259.278    22884259.1284   22884273.0894
        -0.000          -0.000
   3125145.595 9   2428356.82048  21753983.003    21753982.0914   21753992.9954
        -0.000          -0.000
   2228539.989 9   1737886.31745  25106151.147    25106150.4834   25106166.0684
        -0.000          -0.000
 01  1 16 20 59 30.0000000  0  8  7 26  9  2 27  4  8 11             0.000000013
  -1782562.601 9  -1378896.74249  20415547.410    20415546.5014   20415555.4634
        -0.000          -0.000
   -378523.621 9   -281907.50247  22519299.579    22519299.3344   22519309.8774
        -0.000          -0.000
  -5381487.255 9  -4161050.46745  24183230.013    24183229.5794   24183244.3284
        -0.000          -0.000
   -440860.524 9   -327383.40348  21551881.517    21551880.6334   21551890.3034
        -0.000          -0.000
   4382895.046 8   3410621.95645  24250003.352    24250002.6734   24250020.2974
        -0.000          -0.000
  -5365915.423 9  -4156105.23646  22865696.572    22865696.3194   22865710.3364
        -0.000          -0.000
   3204484.416 9   2490179.16948  21769080.798    21769079.8704   21769090.7814
        -0.000          -0.000
   2296718.532 8   1791012.34045  25119125.266    25119124.7824   25119140.2684
        -0.000          -0.000
 01  1 16 21  0  0.0000000  0  8  7 26  9  2 27  4  8 11             0.000000013
  -1762303.004 9  -1363110.05349  20419402.734    20419401.8024   20419410.7694
        -0.000          -0.000
   -358885.168 9   -266604.85947  22523036.737    22523036.4764   22523046.9824
        -0.000          -0.000
  -5480156.363 9  -4237935.42145  24164453.889    24164453.2774   24164467.6904
        -0.000          -0.000
   -435660.437 9   -323331.40048  21552871.073    21552870.1884   21552879.8844
        -0.000          -0.000
   4487142.915 8   3491853.63245  24269841.296    24269840.6984   24269858.4334
        -0.000          -0.000
  -5463348.188 9  -4232026.58046  22847155.467    22847155.2544   22847169.1394
        -0.000          -0.000
   3284176.841 9   2552277.05247  21784245.837    21784244.9514   21784255.8884
        -0.000          -0.000
   2365259.311 8   1844420.61245  25132168.215    25132167.6824   25132183.3344
        -0.000          -0.000
 01  1 16 21  0 30.0000000  0  8  7 26  9  2 27  4  8 11             0.000000013
  -1741664.894 9  -1347028.42249  20423330.019    20423329.1034   20423338.0804
        -0.000          -0.000
   -338763.827 9   -250925.93347  22526865.719    22526865.4564   22526875.9094
        -0.000          -0.000
  -5578750.906 9  -4314762.24145  24145691.802    24145691.1864   24145705.5724
        -0.000          -0.000
   -430374.534 9   -319212.52448  21553877.006    21553876.1124   21553885.7684
        -0.000          -0.000
   4591582.700 9   3573234.87345  24289715.745    24289714.9684   24289733.2124
        -0.000          -0.000
  -5560664.384 9  -4307857.09946  22828636.635    22828636.3454   22828650.1474
        -0.000          -0.000
   3364220.862 9   2614648.90247  21799477.764    21799476.9264   21799487.8374
        -0.000          -0.000
   2434160.570 8   1898109.77845  25145279.837    25145279.2364   25145294.9704
        -0.000          -0.000
 01  1 16 21  1  0.0000000  0  8  7 26  9  2 27  4  8 11             0.000000001
  -1720646.827 9  -1330650.72149  20427329.667    20427328.7154   20427337.6984
        -0.000          -0.000
   -318157.921 9   -234869.42747  22530786.860    22530786.6704   22530797.1074
        -0.000          -0.000
  -5677265.828 8  -4391526.96745  24126944.838    24126944.2554   24126958.8294
        -0.000          -0.000
   -424999.084 9   -315023.87448  21554900.027    21554899.0844   21554908.6824
        -0.000          -0.000
   4696215.431 8   3654766.43145  24309627.054    24309626.4754   24309644.8214
        -0.000          -0.000
  -5657857.661 9  -4383591.84046  22810141.062    22810140.8194   22810154.6174
        -0.000          -0.000
   3444618.446 9   2677296.25747  21814777.028    21814776.1654   21814787.1404
        -0.000          -0.000
   2503423.243 8   1952080.51145  25158459.998    25158459.4714   25158475.5144
        -0.000          -0.000
 01  1 16 21  1 30.0000000  0  8  7 26  9  2 27  4  8 11             0.000000003
  -1699251.214 9  -1313978.83049  20431401.125    20431400.1964   20431409.1564
        -0.000          -0.000
   -297070.070 9   -218437.38047  22534799.877    22534799.6234   22534810.0874
        -0.000          -0.000
  -5775699.906 8  -4468228.66045  24108213.216    24108212.6734   24108227.4174
        -0.000          -0.000
   -419534.566 9   -310765.83348  21555939.938    21555939.0044   21555948.5544
        -0.000          -0.000
   4801038.173 8   3736446.13045  24329573.998    24329573.5954   24329591.5404
        -0.000          -0.000
  -5754925.907 9  -4459229.17946  22791669.178    22791669.0864   22791682.8444
        -0.000          -0.000
   3525367.217 9   2740217.26047  21830143.079    21830142.2174   21830153.2294
        -0.000          -0.000
   2573044.517 8   2006330.68745  25171708.572    25171707.9494   25171723.9334
        -0.000          -0.000
 01  1 16 21  2  0.0000000  0  8  7 26  9  2 27  4  8 11             0.000000005
  -1677482.655 9  -1297016.33149  20435543.596    20435542.6384   20435551.6164
        -0.000          -0.000
   -275504.505 9   -201633.08147  22538903.596    22538903.3924   22538913.8644
        -0.000          -0.000
  -5874053.832 8  -4544867.88345  24089496.833    24089496.3294   24089511.2014
        -0.000          -0.000
   -413983.010 9   -306439.95948  21556996.408    21556995.4634   21557004.9994
        -0.000          -0.000
   4906046.161 8   3818270.06045  24349556.939    24349556.5424   24349574.8794
        -0.000          -0.000
  -5851868.625 9  -4534768.71846  22773221.460    22773221.3274   22773234.9084
        -0.000          -0.000
   3606462.896 9   2803408.57947  21845575.149    21845574.2644   21845585.3034
        -0.000          -0.000
   2643019.712 8   2060856.72245  25185024.434    25185023.8804   25185040.0834
        -0.000          -0.000
 01  1 16 21  2 30.0000000  0  8  7 26  9  2 27  4  8 11             0.000000006
  -1655343.244 9  -1279764.85449  20439756.612    20439755.6524   20439764.6114
        -0.000          -0.000
   -253463.282 9   -184458.15247  22543098.015    22543097.8084   22543108.1794
        -0.000          -0.000
  -5972325.878 9  -4621443.30945  24070796.268    24070795.7154   24070810.6334
        -0.000          -0.000
   -408344.281 9   -302046.16248  21558069.448    21558068.4804   21558078.0104
        -0.000          -0.000
   5011237.129 8   3900236.69545  24369574.301    24369574.2144   24369591.9144
        -0.000          -0.000
  -5948683.173 9  -4610208.40146  22754798.060    22754797.9014   22754811.4194
        -0.000          -0.000
   3687903.803 9   2866868.91347  21861072.967    21861072.0844   21861083.1214
        -0.000          -0.000
   2713346.229 9   2115656.47945  25198407.301    25198406.8344   25198422.7664
        -0.000          -0.000
 01  1 16 21  3  0.0000000  0  8  7 26  9  2 27  4  8 11             0.000000007
  -1632833.623 9  -1262224.90749  20444040.048    20444039.1064   20444048.0644
        -0.000          -0.000
   -230947.011 9   -166913.05247  22547382.762    22547382.5324   22547392.9994
        -0.000          -0.000
  -6070513.312 9  -4697952.82646  24052111.788    24052111.2504   24052126.0504
        -0.000          -0.000
   -402616.771 9   -297583.19048  21559159.339    21559158.3754   21559167.9014
        -0.000          -0.000
   5116610.048 8   3982344.96445  24389626.289    24389625.8944   24389644.6324
        -0.000          -0.000
  -6045365.469 9  -4685545.02046  22736399.864    22736399.6484   22736413.0904
        -0.000          -0.000
   3769689.424 9   2930597.84247  21876636.339    21876635.4704   21876646.5224
        -0.000          -0.000
   2784022.735 8   2170729.09145  25211856.721    25211856.3454   25211871.7914
        -0.000          -0.000
 01  1 16 21  3 30.0000000  0  8  7 26  9  2 27  4  8 11             0.000000008
  -1609955.394 9  -1244397.73449  20448393.653    20448392.7224   20448401.6774
        -0.000          -0.000
   -207957.147 9   -148998.89947  22551757.422    22551757.2634   22551768.0074
        -0.000          -0.000
  -6168613.591 9  -4774394.43046  24033443.929    24033443.4134   24033458.0744
        -0.000          -0.000
   -396799.899 9   -293050.58648  21560266.299    21560265.3494   21560274.8634
        -0.000          -0.000
   5222162.863 8   4064593.51945  24409712.768    24409712.4174   24409730.8844
        -0.000          -0.000
  -6141912.140 9  -4760775.98446  22718027.393    22718027.2684   22718040.6324
        -0.000          -0.000
   3851818.754 9   2994594.59847  21892265.152    21892264.2714   21892275.3614
        -0.000          -0.000
   2855047.851 8   2226073.23045  25225372.475    25225372.1574   25225387.4974
        -0.000          -0.000
 01  1 16 21  4  0.0000000  0  8  7 26  9  2 27  4  8 11             0.000000008
  -1586709.793 9  -1226284.29549  20452817.140    20452816.2004   20452825.1754
        -0.000          -0.000
   -184494.902 9   -130716.66147  22556222.099    22556221.9824   22556232.8794
        -0.000          -0.000
  -6266624.510 9  -4850766.39546  24014792.983    24014792.4754   24014807.0914
        -0.000          -0.000
   -390892.594 9   -288447.52248  21561390.457    21561389.4914   21561398.9714
        -0.000          -0.000
   5327894.076 8   4146981.03645  24429833.183    24429832.7274   24429851.4854
        -0.000          -0.000
  -6238319.695 9  -4835898.56346  22699681.623    22699681.4184   22699694.6064
        -0.000          -0.000
   3934290.492 9   3058858.17347  21907959.107    21907958.2164   21907969.3384
        -0.000          -0.000
   2926420.280 8   2281687.96245  25238954.261    25238953.8654   25238969.6054
        -0.000          -0.000
 01  1 16 21  4 30.0000000  0  8  7 26  9  2 27  4  8 11             0.000000009
  -1563098.727 9  -1207886.08449  20457310.184    20457309.2594   20457318.2434
        -0.000          -0.000
   -160561.946 9   -112067.63847  22560776.474    22560776.3494   22560787.2804
        -0.000          -0.000
  -6364543.781 9  -4927066.95946  23996159.484    23996159.0644   23996173.4894
        -0.000          -0.000
   -384894.132 9   -283773.42348  21562531.902    21562530.9514   21562540.4764
        -0.000          -0.000
   5433801.836 8   4229506.08645  24449987.061    24449986.4864   24450005.7644
        -0.000          -0.000
  -6334585.000 9  -4910910.30246  22681362.860    22681362.5804   22681375.6604
        -0.000          -0.000
   4017103.521 9   3123387.68047  21923718.028    21923717.1064   21923728.2744
        -0.000          -0.000
   2998137.874 8   2337571.66345  25252601.804    25252601.5584   25252617.0264
        -0.000          -0.000
 01  1 16 21  5  0.0000000  0  8  7 26  9  2 27  4  8 11             0.000000009
  -1539123.225 9  -1189203.89649  20461872.592    20461871.6614   20461880.6634
        -0.000          -0.000
   -136159.551 9    -93052.83047  22565420.315    22565420.1344   22565430.9864
        -0.000          -0.000
  -6462368.936 9  -5003294.19946  23977543.917    23977543.5024   23977557.8034
        -0.000          -0.000
   -378803.392 9   -279027.42448  21563690.909    21563689.9884   21563699.5174
        -0.000          -0.000
   5539884.372 8   4312167.42645  24470174.404    24470173.8604   24470192.6664
        -0.000          -0.000
  -6430704.335 9  -4985808.32746  22663071.771    22663071.5334   22663084.6054
        -0.000          -0.000
   4100256.518 9   3188182.09847  21939541.580    21939540.6724   21939551.8994
        -0.000          -0.000
   3070198.857 8   2393722.93045  25266314.648    25266314.0854   25266329.7214
        -0.000          -0.000
 01  1 16 21  5 30.0000000  0  8  7 26  9  2 27  4  8 11             0.000000008
  -1514785.110 9  -1170239.15649  20466503.991    20466503.0554   20466512.0544
        -0.000          -0.000
   -111289.344 9    -73673.49647  22570153.261    22570152.9984   22570163.6414
        -0.000          -0.000
  -6560097.634 9  -5079446.28446  23958946.663    23958946.2574   23958960.5124
        -0.000          -0.000
   -372619.807 9   -274209.08048  21564867.641    21564866.7034   21564876.1964
        -0.000          -0.000
   5646139.772 8   4394963.31245  24490394.359    24490393.8144   24490413.2364
        -0.000          -0.000
  -6526674.488 9  -5060590.10946  22644809.078    22644808.8454   22644821.9624
        -0.000          -0.000
   4183748.165 9   3253240.40547  21955429.561    21955428.6834   21955439.9444
        -0.000          -0.000
   3142601.277 8   2450140.25645  25280092.493    25280091.7774   25280107.6164
        -0.000          -0.000
 01  1 16 21  6  0.0000000  0  9  7 26  9  2 27 24  4  8 11          0.000000009
  -1490086.040 9  -1150993.15649  20471204.063    20471203.1514   20471212.1664
        -0.000          -0.000
    -85953.052 9    -53930.96347  22574974.590    22574974.3514   22574985.0624
        -0.000          -0.000
  -6657727.628 9  -5155521.45246  23940368.170    23940367.7594   23940381.9074
        -0.000          -0.000
   -366342.587 9   -269317.77548  21566062.198    21566061.2664   21566070.7674
        -0.000          -0.000
   5752566.010 8   4477892.49145  24510646.801    24510646.5224   24510665.2564
        -0.000          -0.000
  -1298532.677 8   -984969.65052         0.000           0.0004          0.0005
        -0.000          -0.000
  -6622492.133 9  -5135253.06647  22626575.310    22626575.1584   22626588.2424
        -0.000          -0.000
   4267577.089 9   3318561.53047  21971381.753    21971380.8894   21971392.1724
        -0.000          -0.000
   3215343.357 8   2506822.34845  25293934.925    25293934.2344   25293950.1944
        -0.000          -0.000
 01  1 16 21  6 30.0000000  0  9  7 26  9  2 27 24  4  8 11          0.000000009
  -1465027.633 9  -1131467.15149  20475972.551    20475971.6404   20475980.6424
        -0.000          -0.000
    -60152.240 9    -33826.47447  22579884.376    22579884.1614   22579894.8944
        -0.000          -0.000
  -6755256.719 8  -5231517.95445  23921808.742    23921808.2874   23921822.5664
        -0.000          -0.000
   -359970.992 9   -264352.93248  21567274.675    21567273.7474   21567283.2864
        -0.000          -0.000
   5859161.220 8   4560953.15145  24530931.643    24530931.3794   24530950.8034
        -0.000          -0.000
   -933058.914 8   -706863.66942         0.000           0.0004          0.0004
        -0.000          -0.000
  -6718154.207 9  -5209794.81147  22608371.318    22608371.1604   22608384.1854
        -0.000          -0.000
   4351742.052 9   3384144.48547  21987397.789    21987396.9914   21987408.3794
        -0.000          -0.000
   3288423.274 9   2563767.64045  25307841.622    25307841.0174   25307856.9584
        -0.000          -0.000
 01  1 16 21  7  0.0000000  0  9  7 26  9  2 27 24  4  8 11          0.000000009
  -1439611.846 9  -1111662.67449  20480809.034    20480808.1224   20480817.1524
        -0.000          -0.000
    -33888.673 9    -13361.39747  22584882.329    22584882.0514   22584892.6694
        -0.000          -0.000
  -6852682.770 8  -5307434.17745  23903268.961    23903268.4624   23903282.8694
        -0.000          -0.000
   -353504.328 9   -259314.00848  21568505.344    21568504.3854   21568513.9144
        -0.000          -0.000
   5965922.993 8   4644143.79945  24551248.374    24551248.1434   24551266.5844
        -0.000          -0.000
  -1034432.153 8   -785855.18452         0.000           0.0004          0.0005
        -0.000          -0.000
  -6813657.474 9  -5284212.81447  22590197.522    22590197.3624   22590210.3824
        -0.000          -0.000
   4436241.258 9   3449987.89147  22003477.604    22003476.7604   22003488.1484
        -0.000          -0.000
   3361838.384 8   2620974.28345  25321812.110    25321811.5064   25321827.3144
        -0.000          -0.000
 01  1 16 21  7 30.0000000  0  9  7 26  9  2 27 24  4  8 11          0.000000010
  -1413840.442 9  -1091581.09649  20485713.188    20485712.2764   20485721.3044
        -0.000          -0.000
     -7164.365 9      7462.68747  22589967.873    22589967.6014   22589978.0534
        -0.000          -0.000
  -6950004.139 9  -5383268.87645  23884749.253    23884748.6934   23884762.8824
        -0.000          -0.000
   -346942.112 9   -254200.62648  21569754.147    21569753.1514   21569762.7394
        -0.000          -0.000
   6072849.514 8   4727462.65345  24571595.858    24571595.4584   24571614.9464
        -0.000          -0.000
  -1135946.464 8   -864956.28252         0.000           0.0004          0.0005
        -0.000          -0.000
  -6908998.994 9  -5358504.78247  22572054.443    22572054.3124   22572067.4194
        -0.000          -0.000
   4521073.259 9   3516090.62447  22019620.648    22019619.8544   22019631.2974
        -0.000          -0.000
   3435586.934 8   2678440.61845  25335846.062    25335845.0104   25335861.3664
        -0.000          -0.000
 01  1 16 21  8  0.0000000  0  9  7 26  9  2 27 24  4  8 11          0.000000011
  -1387713.237 9  -1071222.26549  20490685.048    20490684.1254   20490693.1824
        -0.000          -0.000
     20020.825 9     28645.90947  22595141.026    22595140.7794   22595151.0664
        -0.000          -0.000
  -7047216.606 9  -5459018.71945  23866250.258    23866249.7194   23866263.7494
        -0.000          -0.000
   -340281.738 9   -249010.76448  21571021.595    21571020.6434   21571030.2044
        -0.000          -0.000
   6179940.388 8   4810909.70145  24591975.174    24591974.8104   24591994.0364
        -0.000          -0.000
  -1237597.19518   -944163.96144         0.000           0.0005   25103334.6084
        -0.000          -0.000
  -7004173.457 9  -5432666.59047  22553943.232    22553943.1104   22553956.1844
        -0.000          -0.000
   4606238.315 9   3582452.87047  22035827.133    22035826.3054   22035837.8164
        -0.000          -0.000
   3509669.303 8   2736167.15444  25349943.521    25349942.3694   25349958.9034
        -0.000          -0.000
 01  1 16 21  8 30.0000000  0  9  7 26  9  2 27 24  4  8 11          0.000000010
  -1361234.644 9  -1050589.62649  20495723.790    20495722.8864   20495731.9274
        -0.000          -0.000
     47662.673 9     50184.96347  22600401.088    22600400.8084   22600411.1194
        -0.000          -0.000
  -7144320.273 9  -5534683.77046  23847771.870    23847771.3824   23847785.4164
        -0.000          -0.000
   -333525.166 9   -243745.93948  21572307.359    21572306.4134   21572315.9634
        -0.000          -0.000
   6287191.116 8   4894481.29845  24612384.516    24612384.0914   24612403.7434
        -0.000          -0.000
  -1339384.533 8  -1023477.55745  25083941.102    25083940.9594   25083966.6894
        -0.000          -0.000
  -7099180.400 9  -5506697.86647  22535863.879    22535863.8164   22535876.7624
        -0.000          -0.000
   4691732.396 9   3649071.50747  22052096.239    22052095.3824   22052106.9554
        -0.000          -0.000
   3584080.576 8   2794150.18444  25364103.570    25364103.0874   25364118.6564
        -0.000          -0.000
 01  1 16 21  9  0.0000000  0  9  7 26  9  2 27 24  4  8 11          0.000000011
  -1334405.959 9  -1029684.18749  20500829.152    20500828.2424   20500837.3084
        -0.000          -0.000
     75759.500 9     72078.55447  22605747.662    22605747.3874   22605757.6764
        -0.000          -0.000
  -7241312.845 9  -5610262.22046  23829314.733    23829314.2694   23829328.3424
        -0.000          -0.000
   -326671.253 9   -238405.26448  21573611.698    21573610.7504   21573620.2714
        -0.000          -0.000
   6394600.044 8   4978176.07145  24632823.845    24632823.4314   24632843.3564
        -0.000          -0.000
  -1441305.790 8  -1102895.70645  25064546.160    25064545.3164   25064571.0184
        -0.000          -0.000
  -7194016.247 9  -5580595.81047  22517817.137    22517817.0704   22517829.9444
        -0.000          -0.000
   4777554.444 9   3715945.72047  22068427.751    22068426.8964   22068438.4504
        -0.000          -0.000
   3658818.849 8   2852387.70445  25378325.817    25378325.2114   25378341.1874
        -0.000          -0.000
 01  1 16 21  9 30.0000000  0  9  7 26  9  2 27 24  4  8 11          0.000000012
  -1307228.657 9  -1008507.09449  20506000.877    20505999.9624   20506009.0204
        -0.000          -0.000
    104310.091 9     94325.73147  22611180.601    22611180.3564   22611190.6874
        -0.000          -0.000
  -7338191.666 9  -5685752.04146  23810879.276    23810878.7924   23810892.9064
        -0.000          -0.000
   -319718.994 9   -232987.95648  21574934.695    21574933.7444   21574943.2894
        -0.000          -0.000
   6502165.528 8   5061992.97445  24653293.013    24653292.9394   24653312.0794
        -0.000          -0.000
  -1543358.267 8  -1182416.11345  25045126.114    25045125.4624   25045150.7524
        -0.000          -0.000
  -7288677.255 9  -5654357.50747  22499803.685    22499803.6204   22499816.4314
        -0.000          -0.000
   4863703.213 9   3783074.50347  22084821.432    22084820.5474   22084832.1244
        -0.000          -0.000
   3733881.911 8   2910878.38445  25392609.869    25392609.5224   25392625.2174
        -0.000          -0.000
 01  1 16 21 10  0.0000000  0  9  7 26  9  2 27 24  4  8 11          0.000000012
  -1279704.369 9   -987059.62849  20511238.583    20511237.6764   20511246.7354
        -0.000          -0.000
    133312.461 9    116924.93547  22616699.556    22616699.3154   22616709.8274
        -0.000          -0.000
  -7434954.532 9  -5761151.52746  23792465.878    23792465.3694   23792479.4854
        -0.000          -0.000
   -312667.561 9   -227493.36848  21576276.504    21576275.5854   21576285.1454
        -0.000          -0.000
   6609885.564 8   5145930.20745  24673791.947    24673791.7894   24673811.5744
        -0.000          -0.000
  -1645539.573 8  -1262036.87745  25025681.312    25025680.5924   25025706.1254
        -0.000          -0.000
  -7383160.255 9  -5727980.47847  22481824.127    22481824.0174   22481836.7744
        -0.000          -0.000
   4950177.217 9   3850456.72947  22101276.910    22101276.1054   22101287.6884
        -0.000          -0.000
   3809268.409 8   2969621.06945  25406955.444    25406955.0024   25406971.0574
        -0.000          -0.000
 01  1 16 21 10 30.0000000  0  9  7 26  9  2 27 24  4  8 11          0.000000013
  -1251834.775 9   -965343.08949  20516542.014    20516541.1044   20516550.1954
        -0.000          -0.000
    162765.096 9    139874.99247  22622304.165    22622303.9844   22622314.5454
        -0.000          -0.000
  -7531598.839 8  -5836458.60846  23774074.941    23774074.4024   23774088.5794
        -0.000          -0.000
   -305516.116 9   -221920.85448  21577637.397    21577636.4634   21577646.0554
        -0.000          -0.000
   6717758.499 8   5229986.61145  24694319.821    24694319.4984   24694339.1584
        -0.000          -0.000
  -1747847.008 8  -1341755.94045  25006212.496    25006211.4224   25006237.4184
        -0.000          -0.000
  -7477461.892 9  -5801462.11247  22463879.088    22463878.9014   22463891.6554
        -0.000          -0.000
   5036975.274 9   3918091.46747  22117794.167    22117793.3104   22117804.9454
        -0.000          -0.000
   3884976.408 7   3028614.25044  25421362.160    25421361.6664   25421378.1574
        -0.000          -0.000
 01  1 16 21 11  0.0000000  0  9  7 26  9  2 27 24  4  8 11          0.000000013
  -1223621.124 9   -943358.45449  20521910.911    20521910.0074   20521919.1164
        -0.000          -0.000
    192666.547 9    163174.77547  22627994.310    22627994.0954   22628004.7124
        -0.000          -0.000
  -7628122.133 9  -5911671.36845  23755706.815    23755706.2784   23755720.5444
        -0.000          -0.000
   -298263.562 9   -216269.56048  21579017.495    21579016.5874   21579026.1824
        -0.000          -0.000
   6825782.483 8   5314160.71345  24714876.538    24714876.2754   24714896.0404
        -0.000          -0.000
  -1850278.231 8  -1421571.47445  24986719.821    24986718.6064   24986744.7754
        -0.000          -0.000
  -7571578.435 9  -5874799.50947  22445969.294    22445969.0994   22445981.7874
        -0.000          -0.000
   5124095.972 9   3985977.61247  22134372.722    22134371.9334   22134383.6034
        -0.000          -0.000
   3961004.801 7   3087857.11554  25435829.984    25435830.2214          0.0005
        -0.000          -0.000
 01  1 16 21 11 30.0000000  0  9  7 26  9  2 27 24  4  8 11          0.000000014
  -1195065.485 9   -921107.33149  20527344.896    20527343.9754   20527353.0864
        -0.000          -0.000
    223014.470 9    186822.44847  22633769.355    22633769.1484   22633779.8634
        -0.000          -0.000
  -7724522.510 9  -5986788.40246  23737362.286    23737361.8164   23737375.8994
        -0.000          -0.000
   -290909.317 9   -210539.01948  21580417.058    21580416.1194   21580425.7394
        -0.000          -0.000
   6933954.930 8   5398450.48645  24735461.232    24735461.1474   24735480.9344
        -0.000          -0.000
  -1952830.829 8  -1501481.66445  24967204.082    24967203.1354   24967229.0034
        -0.000          -0.000
  -7665507.019 9  -5947990.41847  22428095.194    22428095.0044   22428107.5764
        -0.000          -0.000
   5211537.660 9   4054113.86247  22151012.447    22151011.6434   22151023.3524
        -0.000          -0.000
   4037349.79616   3147346.68953         0.000           0.0005          0.0005
        -0.000          -0.000
 01  1 16 21 12  0.0000000  0  8  7 26  9  2 27 24  4  8             0.000000015
  -1166170.223 9   -898591.57149  20532843.542    20532842.6194   20532851.7244
        -0.000          -0.000
    253806.682 9    210816.33547  22639628.821    22639628.6424   22639639.5364
        -0.000          -0.000
  -7820797.846 9  -6061808.00246  23719041.741    23719041.2694   23719055.2334
        -0.000          -0.000
   -283452.952 9   -204728.90348  21581835.987    21581835.0374   21581844.7124
        -0.000          -0.000
   7042273.696 8   5482854.26345  24756073.913    24756073.8064   24756093.5094
        -0.000          -0.000
  -2055502.488 8  -1581484.65445  24947665.517    24947664.8224   24947690.4544
        -0.000          -0.000
  -7759244.753 9  -6021032.59047  22410257.353    22410257.1524   22410269.7224
        -0.000          -0.000
   5299298.423 9   4122498.76047  22167712.834    22167712.0524   22167723.8034
        -0.000          -0.000
 01  1 16 21 12 30.0000000  0  8  7 26  9  2 27 24  4  8             0.000000016
  -1136936.840 9   -875812.33349  20538406.492    20538405.5884   20538414.6824
        -0.000          -0.000
    285041.507 9    235155.10447  22645572.566    22645572.3974   22645583.4184
        -0.000          -0.000
  -7916945.771 9  -6136728.29946  23700745.338    23700744.8564   23700758.7834
        -0.000          -0.000
   -275893.637 9   -198838.56548  21583274.393    21583273.5114   21583283.2394
        -0.000          -0.000
   7150737.016 8   5567370.67945  24776714.199    24776713.8684   24776733.6814
        -0.000          -0.000
  -2158290.441 8  -1661578.31545  24928104.911    24928104.4344   24928129.5724
        -0.000          -0.000
  -7852788.151 9  -6093923.30947  22392456.579    22392456.3554   22392468.9014
        -0.000          -0.000
   5387376.747 9   4191131.10147  22184473.645    22184472.8694   22184484.6764
        -0.000          -0.000
 01  1 16 21 13  0.0000000  0  8  7 26  9  2 27 24  4  8             0.000000016
  -1107366.436 9   -852770.48749  20544033.610    20544032.6824   20544041.7824
        -0.000          -0.000
    316717.564 9    259837.68447  22651600.310    22651600.1334   22651611.1074
        -0.000          -0.000
  -8012963.707 9  -6211547.28745  23682473.507    23682473.0254   23682486.9744
        -0.000          -0.000
   -268229.925 9   -192866.87748  21584732.835    21584731.9514   21584741.6824
        -0.000          -0.000
   7259343.255 8   5651998.46445  24797381.779    24797381.1614   24797401.4154
        -0.000          -0.000
  -2261192.069 8  -1741760.67845  24908522.778    24908522.3614   24908547.4474
        -0.000          -0.000
  -7946133.666 9  -6166659.82647  22374693.373    22374693.1534   22374705.6444
        -0.000          -0.000
   5475771.591 9   4260010.07347  22201294.766    22201293.9344   22201305.7734
        -0.000          -0.000
 01  1 16 21 13 30.0000000  0  8  7 26  9  2 27 24  4  8             0.000000017
  -1077461.355 9   -829467.85449  20549724.347    20549723.4124   20549732.5244
        -0.000          -0.000
    348832.416 9    284862.18447  22657711.636    22657711.4434   22657722.2904
        -0.000          -0.000
  -8108849.574 9  -6286263.42246  23664227.000    23664226.5774   23664240.3254
        -0.000          -0.000
   -260461.421 9   -186813.53248  21586211.134    21586210.2574   21586220.0334
        -0.000          -0.000
   7368089.984 8   5736735.76345  24818076.133    24818075.5024   24818095.6554
        -0.000          -0.000
  -2364205.450 8  -1822030.11545  24888919.126    24888918.7414   24888943.9034
        -0.000          -0.000
  -8039278.328 9  -6239239.82147  22356968.343    22356968.1634   22356980.6654
        -0.000          -0.000
   5564480.969 9   4329134.15047  22218175.768    22218174.9174   22218186.7124
        -0.000          -0.000
 01  1 16 21 14  0.0000000  0  8  7 26  9  2 27 24  4  8             0.000000018
  -1047223.557 9   -805905.96349  20555478.419    20555477.5094   20555486.6354
        -0.000          -0.000
    381383.894 9    310226.90947  22663906.058    22663905.8944   22663916.6954
        -0.000          -0.000
  -8204601.311 9  -6360875.00746  23646006.090    23646005.6314   23646019.2654
        -0.000          -0.000
   -252587.465 9   -180678.01548  21587709.565    21587708.6804   21587718.4344
        -0.000          -0.000
   7476974.814 8   5821580.64445  24838796.641    24838796.0794   24838816.5294
        -0.000          -0.000
  -2467327.837 8  -1902384.57645  24869295.185    24869294.8864   24869319.6304
        -0.000          -0.000
  -8132219.142 9  -6311660.95847  22339282.159    22339281.9474   22339294.3794
        -0.000          -0.000
   5653503.174 9   4398501.98747  22235116.229    22235115.3604   22235127.2054
        -0.000          -0.000
 01  1 16 21 14 30.0000000  0  8  7 26  9  2 27 24  4  8             0.000000018
  -1016654.625 9   -782086.05049  20561295.526    20561294.6124   20561303.7544
        -0.000          -0.000
    414370.301 9    335930.53547  22670183.242    22670183.0694   22670193.8064
        -0.000          -0.000
  -8300216.616 9  -6435380.21846  23627810.968    23627810.4784   23627824.1744
        -0.000          -0.000
   -244607.033 9   -174459.52448  21589228.178    21589227.3094   21589237.0994
        -0.000          -0.000
   7585996.062 8   5906531.81045  24859542.723    24859542.4574   24859563.3424
        -0.000          -0.000
  -2570557.006 8  -1982822.32745  24849650.705    24849650.4364   24849674.9714
        -0.000          -0.000
  -8224952.607 9  -6383920.53047  22321635.349    22321635.1444   22321647.5334
        -0.000          -0.000
   5742836.604 9   4468112.33047  22252116.018    22252115.1014   22252126.9214
        -0.000          -0.000
 01  1 16 21 15  0.0000000  0  8  7 26  9  2 27 24  4  8             0.000000018
   -985755.652 9   -758008.96349  20567175.429    20567174.5114   20567183.6584
        -0.000          -0.000
    447790.396 9    361972.09547  22676543.001    22676542.8264   22676553.5404
        -0.000          -0.000
  -8395692.362 9  -6509776.67446  23609642.257    23609641.7664   23609655.5844
        -0.000          -0.000
   -236518.861 9   -168157.08248  21590767.363    21590766.4634   21590776.2854
        -0.000          -0.000
   7695152.261 8   5991588.15845  24880314.941    24880314.4764   24880335.0974
        -0.000          -0.000
  -2673889.263 8  -2063340.46845  24829986.844    24829986.3114   24830010.6174
        -0.000          -0.000
  -8317474.957 9  -6456015.61047  22304028.732    22304028.5624   22304040.8854
        -0.000          -0.000
   5832480.472 9   4537964.57747  22269174.754    22269173.8214   22269185.7354
        -0.000          -0.000
 01  1 16 21 15 30.0000000  0  8  7 26  9  2 27 24  4  8             0.000000018
   -954528.875 9   -733676.44149  20573117.732    20573116.8084   20573125.9384
        -0.000          -0.000
    481641.649 9    388349.62147  22682984.663    22682984.5074   22682995.3504
        -0.000          -0.000
  -8491026.452 9  -6584062.85746  23591500.733    23591500.2844   23591513.7774
        -0.000          -0.000
   -228322.592 9   -161770.40548  21592327.067    21592326.1744   21592336.0304
        -0.000          -0.000
   7804441.122 8   6076747.83745  24901112.224    24901111.6894   24901132.2914
        -0.000          -0.000
  -2777323.109 8  -2143937.81245  24810303.711    24810303.2164   24810327.3684
        -0.000          -0.000
  -8409783.228 9  -6527943.86747  22286462.907    22286462.6834   22286474.9624
        -0.000          -0.000
   5922432.849 9   4608057.22147  22286292.133    22286291.2424   22286303.2274
        -0.000          -0.000
 01  1 16 21 16  0.0000000  0  8  7 26  9  2 27 24  4  8             0.000000019
   -922976.235 9   -709090.00949  20579122.021    20579121.1014   20579130.2444
        -0.000          -0.000
    515921.986 9    415061.50547  22689508.041    22689507.8904   22689518.7854
        -0.000          -0.000
  -8586216.846 9  -6658237.03546  23573386.516    23573386.0854   23573399.4314
        -0.000          -0.000
   -220017.508 9   -155298.95148  21593907.540    21593906.6194   21593916.4964
        -0.000          -0.000
   7913860.345 8   6162009.07145  24921934.272    24921933.8454   24921954.4074
        -0.000          -0.000
  -2880855.743 8  -2224612.19345  24790601.574    24790601.2144   24790625.0904
        -0.000          -0.000
  -8501874.423 9  -6599702.98247  22268938.302    22268938.0954   22268950.3714
        -0.000          -0.000
   6012691.815 9   4678388.75747  22303467.899    22303467.0314   22303479.0514
        -0.000          -0.000
 01  1 16 21 16 30.0000000  0  8  7 26  9  2 27 24  4  8             0.000000019
   -891099.343 9   -684250.91249  20585188.042    20585187.1214   20585196.2624
        -0.000          -0.000
    550629.486 9    442106.24847  22696112.719    22696112.5384   22696123.4964
        -0.000          -0.000
  -8681261.196 9  -6732297.30646  23555299.810    23555299.4264   23555313.0944
        -0.000          -0.000
   -211602.549 9   -148741.86748  21595508.907    21595507.9914   21595517.8304
        -0.000          -0.000
   8023407.978 8   6247370.48145  24942780.807    24942780.2504   24942800.6404
        -0.000          -0.000
  -2984484.720 9  -2305361.65245  24770881.278    24770880.8184   24770904.6194
        -0.000          -0.000
  -8593744.932 9  -6671290.15347  22251455.792    22251455.5684   22251467.7524
        -0.000          -0.000
   6103256.016 9   4748958.15647  22320701.780    22320700.9304   22320712.9974
        -0.000          -0.000
 01  1 16 21 17  0.0000000  0  8  7 26  9  2 27 24  4  8             0.000000020
   -858899.465 9   -659160.14049  20591315.484    20591314.5704   20591323.7324
        -0.000          -0.000
    585762.667 9    469482.68647  22702798.374    22702798.2404   22702809.2424
        -0.000          -0.000
  -8776156.429 9  -6806241.43146  23537241.778    23537241.3274   23537255.0874
        -0.000          -0.000
   -203076.272 9   -142098.04848  21597131.523    21597130.5584   21597140.3024
        -0.000          -0.000
   8133084.760 8   6332832.91145  24963651.897    24963651.4034   24963672.3034
        -0.000          -0.000
  -3088206.857 9  -2386183.79245  24751143.390    24751142.7614   24751166.4564
        -0.000          -0.000
  -8685391.149 9  -6742702.57547  22234015.897    22234015.6814   22234027.7574
        -0.000          -0.000
   6194124.193 9   4819764.40147  22337993.458    22337992.6794   22338004.7324
        -0.000          -0.000
 01  1 16 21 17 30.0000000  0  8  7 26  9  2 27 24  4  8             0.000000021
   -826381.146 9   -633821.23349  20597503.504    20597502.6064   20597511.7964
        -0.000          -0.000
    621316.881 9    497187.18147  22709564.270    22709564.1264   22709575.0534
        -0.000          -0.000
  -8870903.106 9  -6880069.85446  23519212.092    23519211.5994   23519225.2454
        -0.000          -0.000
   -194440.419 9   -135368.84048  21598774.904    21598773.9604   21598783.6924
        -0.000          -0.000
   8242881.811 8   6418388.69745  24984545.870    24984545.4694   24984567.0214
        -0.000          -0.000
  -3192021.945 9  -2467078.44245  24731387.732    24731387.0184   24731410.5844
        -0.000          -0.000
  -8776812.426 9  -6813939.72947  22216618.810    22216618.6654   22216630.6324
        -0.000          -0.000
   6285292.118 9   4890804.21847  22355342.343    22355341.4694   22355353.4964
        -0.000          -0.000
 01  1 16 21 18  0.0000000  0  8  7 26  9  2 27 24  4  8             0.000000021
   -793543.730 9   -608233.67449  20603752.302    20603751.4204   20603760.6174
        -0.000          -0.000
    657292.285 9    525219.89247  22716410.236    22716410.0964   22716420.9814
        -0.000          -0.000
  -8965496.469 9  -6953778.81146  23501211.442    23501210.9304   23501224.3734
        -0.000          -0.000
   -185691.932 9   -128551.86348  21600439.753    21600438.8074   21600448.5454
        -0.000          -0.000
   8352801.211 8   6504039.70145  25005462.668    25005462.7064   25005484.5054
        -0.000          -0.000
  -3295925.225 8  -2548041.84745  24711615.317    24711614.6764   24711637.7324
        -0.000          -0.000
  -8868003.323 9  -6884997.38047  22199265.620    22199265.4694   22199277.3284
        -0.000          -0.000
   6376760.394 9   4962078.06547  22372748.198    22372747.3994   22372759.4324
        -0.000          -0.000
 01  1 16 21 18 30.0000000  0  8  7 26  9  2 27 24  4  8             0.000000021
   -760388.999 9   -582398.85849  20610061.508    20610060.6224   20610069.8224
        -0.000          -0.000
    693686.972 9    553579.32347  22723336.015    22723335.8224   22723346.7844
        -0.000          -0.000
  -9059934.080 9  -7027366.36146  23483240.347    23483239.9314   23483253.3194
        -0.000          -0.000
   -176829.796 9   -121646.33348  21602126.254    21602125.2804   21602135.0224
        -0.000          -0.000
   8462841.216 8   6589784.76745  25026403.177    25026403.3294   25026423.7894
        -0.000          -0.000
  -3399913.953 8  -2629071.82845  24691826.582    24691826.2554   24691849.0414
        -0.000          -0.000
  -8958960.361 9  -6955872.82147  22181956.917    22181956.7614   22181968.6094
        -0.000          -0.000
   6468527.593 9   5033584.84347  22390211.095    22390210.2404   22390222.3244
        -0.000          -0.000
 01  1 16 21 19  0.0000000  0  8  7 26  9  2 27 24  4  8             0.000000021
   -726919.191 9   -556318.52749  20616430.636    20616429.7334   20616438.9464
        -0.000          -0.000
    730498.508 9    582263.55347  22730341.008    22730340.8324   22730351.8784
        -0.000          -0.000
  -9154213.785 9  -7100830.87646  23465299.385    23465298.9824   23465312.3584
        -0.000          -0.000
   -167853.488 9   -114651.83648  21603834.469    21603833.4674   21603843.2154
        -0.000          -0.000
   8572998.789 8   6675621.35054  25047365.324    25047364.3654          0.0005
        -0.000          -0.000
  -3503986.234 8  -2710166.95245  24672022.038    24672021.7464   24672044.3314
        -0.000          -0.000
  -9049680.654 9  -7026563.79847  22164693.241    22164693.0934   22164704.9554
        -0.000          -0.000
   6560591.677 9   5105322.96447  22407730.446    22407729.5624   22407741.6254
        -0.000          -0.000
 01  1 16 21 19 30.0000000  0  8  7 26  9  2 27 24  4  8             0.000000022
   -693135.962 9   -529993.96849  20622859.379    20622858.4724   20622867.7114
        -0.000          -0.000
    767724.760 9    611270.96147  22737424.969    22737424.7984   22737435.8504
        -0.000          -0.000
  -9248333.293 9  -7174170.58946  23447388.907    23447388.5314   23447401.7724
        -0.000          -0.000
   -158762.101 9   -107567.66148  21605564.544    21605563.5404   21605573.2984
        -0.000          -0.000
   8683273.266 8   6761548.86045  25068350.102    25068349.3494   25068370.9184
        -0.000          -0.000
  -3608139.427 8  -2791325.20345  24652202.349    24652201.6874   24652224.0684
        -0.000          -0.000
  -9140160.908 9  -7097067.75747  22147475.274    22147475.1334   22147486.9224
        -0.000          -0.000
   6652950.798 9   5177290.98847  22425305.895    22425305.0144   22425317.1184
        -0.000          -0.000
 01  1 16 21 20  0.0000000  0  8  7 26  9  2 27 24  4  8             0.000000022
   -659041.119 9   -503426.59449  20629347.441    20629346.5604   20629355.7964
        -0.000          -0.000
    805363.654 9    640599.89547  22744587.550    22744587.3404   22744598.3804
        -0.000          -0.000
  -9342290.058 9  -7247383.50546  23429509.350    23429508.9684   23429522.1134
        -0.000          -0.000
   -149554.802 9   -100393.17048  21607316.612    21607315.5874   21607325.3884
        -0.000          -0.000
   8793661.909 7   6847565.68945  25089357.015    25089356.5194   25089376.5724
        -0.000          -0.000
  -3712370.399 8  -2872543.92745  24632367.740    24632366.9464   24632389.6084
        -0.000          -0.000
  -9230397.886 9  -7167382.15347  22130303.691    22130303.4804   22130315.1994
        -0.000          -0.000
   6745603.313 9   5249487.64347  22442937.152    22442936.2784   22442948.5114
        -0.000          -0.000
 01  1 16 21 20 30.0000000  0  8  7 26  9  2 27 24  4  8             0.000000023
   -624636.746 9   -476618.02449  20635894.412    20635893.5184   20635902.7724
        -0.000          -0.000
    843412.816 9    670248.51247  22751828.148    22751827.9274   22751838.9704
        -0.000          -0.000
  -9436082.067 9  -7320468.01346  23411661.268    23411660.8954   23411673.9754
        -0.000          -0.000
   -140230.877 9    -93127.80648  21609090.895    21609089.9084   21609099.7094
        -0.000          -0.000
   8904162.676 8   6933669.76245  25110385.276    25110384.7714   25110405.1884
        -0.000          -0.000
  -3816676.820 8  -2953821.50845  24612518.847    24612517.8584   24612540.7374
        -0.000          -0.000
  -9320388.596 9  -7237504.67147  22113178.859    22113178.6654   22113190.3404
        -0.000          -0.000
   6838547.431 9   5321911.50747  22460623.859    22460623.0844   22460635.3594
        -0.000          -0.000
 01  1 16 21 21  0.0000000  0  8  7 26  9  2 27 24  4  8             0.000000023
   -589924.385 9   -449569.46149  20642500.013    20642499.1154   20642508.3594
        -0.000          -0.000
    881870.438 9    700215.40447  22759146.403    22759146.2114   22759157.2824
        -0.000          -0.000
  -9529706.682 9  -7393422.04546  23393844.921    23393844.5394   23393857.7294
        -0.000          -0.000
   -130789.208 9    -85770.68548  21610887.632    21610886.6254   21610896.4344
        -0.000          -0.000
   9014773.398 8   7019859.39545  25131434.027    25131433.5104   25131454.5314
        -0.000          -0.000
  -3921056.292 9  -3035156.01945  24592655.982    24592655.0894   24592677.3924
        -0.000          -0.000
  -9410129.498 9  -7307432.55047  22096101.610    22096101.4384   22096113.0744
        -0.000          -0.000
   6931781.605 9   5394561.37547  22478365.868    22478365.0424   22478377.3204
        -0.000          -0.000
 01  1 16 21 21 30.0000000  0  8  7 26  9  2 27 24  4  8             0.000000024
   -554905.961 9   -422282.40149  20649163.864    20649162.9224   20649172.1624
        -0.000          -0.000
    920734.152 9    730498.75047  22766542.014    22766541.8014   22766552.8974
        -0.000          -0.000
  -9623161.690 9  -7466243.98646  23376060.920    23376060.4614   23376073.6004
        -0.000          -0.000
   -121228.995 9    -78321.19748  21612706.829    21612705.8454   21612715.7164
        -0.000          -0.000
   9125492.228 8   7106133.35945  25152503.572    25152503.1444   25152524.3254
        -0.000          -0.000
  -4025505.735 8  -3116544.93045  24572779.718    24572779.0004   24572801.1974
        -0.000          -0.000
  -9499617.394 9  -7377163.27947  22079072.446    22079072.3274   22079083.9794
        -0.000          -0.000
   7025304.138 9   5467435.92847  22496162.745    22496161.8714   22496174.1914
        -0.000          -0.000
 01  1 16 21 22  0.0000000  0  8  7 26  9  2 27 24  4  8             0.000000025
   -519584.035 9   -394758.84649  20655885.412    20655884.5094   20655893.7664
        -0.000          -0.000
    960001.105 9    761096.29647  22774014.244    22774014.0584   22774025.2554
        -0.000          -0.000
  -9716445.133 9  -7538932.24646  23358309.691    23358309.1394   23358322.1514
        -0.000          -0.000
   -111549.987 9    -70779.14848  21614548.756    21614547.8004   21614557.5934
        -0.000          -0.000
   9236314.224 8   7192487.57354  25173592.577    25173592.0814          0.0005
        -0.000          -0.000
  -4130023.397 8  -3197986.94745  24552890.373    24552889.6794   24552911.8044
        -0.000          -0.000
  -9588849.723 9  -7446694.87647  22062091.987    22062091.9324   22062103.5144
        -0.000          -0.000
   7119112.769 9   5540533.41947  22514014.037    22514013.1934   22514025.4664
        -0.000          -0.000
 01  1 16 21 22 30.0000000  0  8  7 26  9  2 27 24  4  8             0.000000026
   -483960.057 9   -366999.92649  20662664.416    20662663.5264   20662672.8094
        -0.000          -0.000
    999669.507 9    792006.67247  22781562.958    22781562.7724   22781573.9974
        -0.000          -0.000
  -9809554.427 9  -7611484.75346  23340591.435    23340590.8354   23340603.9724
        -0.000          -0.000
   -101750.908 9    -63143.52448  21616413.537    21616412.5294   21616422.3364
        -0.000          -0.000
   9347241.42818   7278923.30054         0.000           0.0005          0.0005
        -0.000          -0.000
  -4234606.031 8  -3279479.62645  24532988.932    24532988.2054   24533010.1664
        -0.000          -0.000
  -9677822.914 9  -7516024.54147  22045160.938    22045160.8134   22045172.3534
        -0.000          -0.000
   7213205.712 9   5613852.46947  22531919.502    22531918.6674   22531930.9664
        -0.000          -0.000
 01  1 16 21 23  0.0000000  0  8  7 26  9  2 27 24  4  8             0.000000051
   -448042.203 9   -339012.01349  20669499.428    20669498.5144   20669507.8154
        -0.000          -0.000
   1039730.761 9    823223.14047  22789186.490    22789186.2844   22789197.4774
        -0.000          -0.000
  -9902493.508 9  -7683904.65146  23322905.510    23322904.9394   23322918.0954
        -0.000          -0.000
    -91837.166 9    -55418.55648  21618300.020    21618299.0534   21618308.9344
        -0.000          -0.000
   9458264.95516   7365434.66744  25215829.845    25215827.5715   25215852.7964
        -0.000          -0.000
  -4339257.718 9  -3361026.00745  24513073.978    24513073.4734   24513095.1544
        -0.000          -0.000
  -9766540.086 9  -7585154.71347  22028278.611    22028278.4404   22028289.8974
        -0.000          -0.000
   7307575.060 9   5687386.88447  22549877.486    22549876.6154   22549888.9394
        -0.000          -0.000
 01  1 16 21 23 30.0000000  0  8  7 26  9  2 27 24  4  8             0.000000044
   -411829.227 9   -310794.13849  20676390.526    20676389.6234   20676398.9374
        -0.000          -0.000
   1080185.668 9    854746.36447  22796884.835    22796884.6754   22796895.8284
        -0.000          -0.000
  -9995256.751 9  -7756187.56046  23305253.114    23305252.5894   23305265.6294
        -0.000          -0.000
    -81804.723 9    -47601.10148  21620209.125    21620208.1714   21620218.1164
        -0.000          -0.000
   9569385.088 7   7452021.32645  25236975.654    25236974.0864   25236998.4624
        -0.000          -0.000
  -4443972.349 8  -3442621.44845  24493147.158    24493146.8094   24493168.5914
        -0.000          -0.000
  -9854994.977 9  -7654080.49547  22011446.062    22011445.9234   22011457.3514
        -0.000          -0.000
   7402221.988 9   5761137.61047  22567888.317    22567887.4464   22567899.8184
        -0.000          -0.000
 01  1 16 21 24  0.0000000  0  8  7 26  9  2 27 24  4  8             0.000000041
   -375314.953 9   -282341.48349  20683339.014    20683338.1134   20683347.4214
        -0.000          -0.000
   1121040.152 9    886580.94447  22804659.277    22804659.1334   22804670.2254
        -0.000          -0.000
 -10087833.708 9  -7828325.28146  23287636.256    23287635.6754   23287648.7184
        -0.000          -0.000
    -71644.693 9    -39684.22948  21622142.486    21622141.5534   21622151.4764
        -0.000          -0.000
   9680608.48017   7538688.52154  25258141.296    25258140.7385          0.0005
        -0.000          -0.000
  -4548739.288 9  -3524257.57045  24473210.488    24473209.9394   24473231.9334
        -0.000          -0.000
  -9943176.032 9  -7722792.90647  21994665.677    21994665.5704   21994676.9564
        -0.000          -0.000
   7497153.021 9   5835109.70247  22585953.246    22585952.3614   22585964.7384
        -0.000          -0.000
 01  1 16 21 24 30.0000000  0  8  7 26  9  2 27 24  4  8             0.000000039
   -338503.474 9   -253657.24849  20690344.041    20690343.1044   20690352.4164
        -0.000          -0.000
   1162289.431 9    918723.15247  22812508.858    22812508.7094   22812519.7544
        -0.000          -0.000
 -10180224.497 9  -7900317.94246  23270054.697    23270054.1574   23270067.1984
        -0.000          -0.000
    -61358.488 9    -31669.04448  21624099.966    21624099.0084   21624108.8354
        -0.000          -0.000
   9791929.29417   7625431.77244  25279325.045    25279325.7565   25279345.6844
        -0.000          -0.000
  -4653558.624 8  -3605934.55945  24453263.925    24453263.2794   24453285.1744
        -0.000          -0.000
 -10031082.650 9  -7791291.44047  21977937.481    21977937.3714   21977948.7884
        -0.000          -0.000
   7592364.015 9   5909299.95447  22604071.348    22604070.4474   22604082.9234
        -0.000          -0.000
 01  1 16 21 25  0.0000000  0  8  7 26  9  2 27 24  4  8             0.000000039
   -301397.400 9   -224743.46049  20697405.132    20697404.2054   20697413.5014
        -0.000          -0.000
   1203930.904 9    951170.98047  22820432.967    22820432.8434   22820443.9414
        -0.000          -0.000
 -10272427.174 9  -7972164.04346  23252509.037    23252508.5534   23252521.4904
        -0.000          -0.000
    -50945.861 9    -23555.34848  21626081.490    21626080.5264   21626090.2824
        -0.000          -0.000
   9903347.089 8   7712250.40545  25300527.565    25300527.9504   25300550.1484
        -0.000          -0.000
  -4758427.864 9  -3687650.39445  24433307.725    24433307.1134   24433328.8074
        -0.000          -0.000
 -10118712.172 9  -7859574.06047  21961262.079    21961261.9354   21961273.3684
        -0.000          -0.000
   7687852.395 9   5983706.34247  22622242.280    22622241.4284   22622253.9624
        -0.000          -0.000
 01  1 16 21 25 30.0000000  0  8  7 26  9  2 27 24  4  8             0.000000038
   -263999.694 9   -195602.43149  20704521.724    20704520.8084   20704530.0894
        -0.000          -0.000
   1245961.080 9    983921.67647  22828431.109    22828430.9964   22828442.1154
        -0.000          -0.000
 -10364440.246 9  -8043862.44046  23234999.512    23234999.0354   23235011.7274
        -0.000          -0.000
    -40406.984 9    -15343.27548  21628086.994    21628086.0084   21628095.7644
        -0.000          -0.000
  10014856.50717   7799140.36844  25321747.452    25321746.5395   25321769.8404
        -0.000          -0.000
  -4863345.599 8  -3769403.99345  24413342.157    24413341.4564   24413363.3444
        -0.000          -0.000
 -10206062.420 9  -7927639.05647  21944639.825    21944639.6824   21944651.0734
        -0.000          -0.000
   7783615.438 9   6058326.76847  22640465.426    22640464.5824   22640477.2024
        -0.000          -0.000
 01  1 16 21 26  0.0000000  0  8  7 26  9  2 27 24  4  8             0.000000038
   -226312.129 9   -166235.54449  20711693.482    20711692.5634   20711701.8204
        -0.000          -0.000
   1288377.416 9   1016973.27947  22836502.798    22836502.6584   22836513.8474
        -0.000          -0.000
 -10456261.515 9  -8115411.32246  23217526.333    23217525.8824   23217538.6024
        -0.000          -0.000
    -29740.915 9     -7032.09648  21630116.601    21630115.6824   21630125.4694
        -0.000          -0.000
  10126455.14417   7886099.74854  25342984.346    25342983.9765          0.0005
        -0.000          -0.000
  -4968309.237 8  -3851193.36245  24393368.097    24393367.5144   24393389.2004
        -0.000          -0.000
 -10293130.241 9  -7995483.96647  21928071.284    21928071.1234   21928082.4894
        -0.000          -0.000
   7879651.144 9   6133159.62547  22658740.528    22658739.6514   22658752.2704
        -0.000          -0.000
 01  1 16 21 26 30.0000000  0  8  7 26  9  2 27 24  4  8             0.000000037
   -188336.344 9   -136644.07449  20718920.064    20718919.1414   20718928.4254
        -0.000          -0.000
   1331178.002 9   1050324.29147  22844647.626    22844647.4804   22844658.6054
        -0.000          -0.000
 -10547888.288 9  -8186808.64546  23200090.029    23200089.6624   23200102.5124
        -0.000          -0.000
    -18946.556 9      1379.05148  21632170.787    21632169.8604   21632179.6624
        -0.000          -0.000
  10238143.29517   7973128.19254         0.000           0.0005          0.0005
        -0.000          -0.000
  -5073315.581 8  -3933015.93445  24373385.480    24373384.9774   24373406.7664
        -0.000          -0.000
 -10379912.319 9  -8063106.22347  21911557.115    21911556.9754   21911568.2984
        -0.000          -0.000
   7975958.052 9   6208203.83547  22677067.217    22677066.4034   22677079.0324
        -0.000          -0.000
 01  1 16 21 27  0.0000000  0  8  7 26  9  2 27 24  4  8             0.000000038
   -150075.293 9   -106830.32349  20726200.943    20726200.0304   20726209.3274
        -0.000          -0.000
   1374359.454 9   1083972.09247  22852864.834    22852864.7314   22852875.8054
        -0.000          -0.000
 -10639319.337 9  -8258053.51846  23182691.333    23182690.8774   23182703.6024
        -0.000          -0.000
     -8023.877 9      9890.18948  21634249.291    21634248.3524   21634258.2534
        -0.000          -0.000
  10349915.41218   8060222.61253         0.000           0.0005          0.0005
        -0.000          -0.000
  -5178363.055 8  -4014870.56245  24353395.341    24353394.8364   24353416.5124
        -0.000          -0.000
 -10466406.367 9  -8130504.03047  21895097.804    21895097.6294   21895108.8754
        -0.000          -0.000
   8072533.165 9   6283457.02447  22695444.957    22695444.1504   22695456.7204
        -0.000          -0.000
 01  1 16 21 27 30.0000000  0  7  7 26  9  2 24  4  8                0.000000037
   -111530.640 9    -76795.59249  20733535.766    20733534.8524   20733544.1784
        -0.000          -0.000
   1417919.732 9   1117915.07347  22861154.212    22861154.0424   22861165.1434
        -0.000          -0.000
 -10730551.784 9  -8329143.54746  23165330.116    23165329.6364   23165342.4974
        -0.000          -0.000
      3028.350 9     18502.27048  21636352.398    21636351.5154   21636361.5074
        -0.000          -0.000
  -5283448.890 9  -4096754.97645  24333397.743    24333397.1904   24333418.8214
        -0.000          -0.000
 -10552608.832 9  -8197674.62747  21878693.905    21878693.8054   21878704.9464
        -0.000          -0.000
   8169375.173 9   6358918.18647  22713873.476    22713872.7034   22713885.2994
        -0.000          -0.000
 01  1 16 21 28  0.0000000  0  7  7 26  9  2 24  4  8                0.000000038
    -72703.644 9    -46540.85149  20740924.359    20740923.4274   20740932.7684
        -0.000          -0.000
   1461856.799 9   1152151.65747  22869515.262    22869515.0544   22869526.2494
        -0.000          -0.000
 -10821582.901 9  -8400076.79646  23148007.442    23148007.0484   23148019.5764
        -0.000          -0.000
     14211.464 9     27216.33148  21638480.545    21638479.6324   21638489.6204
        -0.000          -0.000
  -5388569.921 8  -4178666.82245  24313393.644    24313393.1094   24313414.2854
        -0.000          -0.000
 -10638516.339 9  -8264615.38947  21862346.184    21862346.0734   21862357.1754
        -0.000          -0.000
   8266482.423 9   6434586.03047  22732352.479    22732351.7204   22732364.3644
        -0.000          -0.000
 01  1 16 21 28 30.0000000  0  7  7 26  9  2 24  4  8                0.000000039
    -33597.471 9    -16068.57549  20748366.026    20748365.1264   20748374.4894
        -0.000          -0.000
   1506167.335 9   1186679.24547  22877947.348    22877947.1474   22877958.4084
        -0.000          -0.000
 -10912411.325 9  -8470852.06646  23130723.410    23130722.9244   23130735.4204
        -0.000          -0.000
     25525.235 9     36032.20948  21640633.516    21640632.6024   21640642.6354
        -0.000          -0.000
  -5493724.281 9  -4260604.55845  24293382.915    24293382.4124   24293403.4674
        -0.000          -0.000
 -10724126.740 9  -8331324.64647  21846054.949    21846054.8414   21846065.9374
        -0.000          -0.000
   8363851.777 9   6510458.09447  22750881.442    22750880.6324   22750893.2744
        -0.000          -0.000
 01  1 16 21 29  0.0000000  0  7  7 26  9  2 24  4  8                0.000000038
      5787.064 9     14620.61049  20755860.715    20755859.8074   20755869.1824
        -0.000          -0.000
   1550849.901 9   1221496.73547  22886450.262    22886450.0404   22886461.3624
        -0.000          -0.000
 -11003033.386 9  -8541466.46846  23113478.251    23113477.8624   23113490.5514
        -0.000          -0.000
     36971.747 9     44951.52748  21642811.707    21642810.7944   21642820.9294
        -0.000          -0.000
  -5598908.143 9  -4342565.30245  24273366.644    24273366.1794   24273387.0874
        -0.000          -0.000
 -10809435.784 9  -8397799.08047  21829821.125    21829820.9504   21829832.0354
        -0.000          -0.000
   8461482.841 9   6586534.08747  22769460.153    22769459.3124   22769472.0194
        -0.000          -0.000
 01  1 16 21 29 30.0000000  0  7  7 26  9  2 24  4  8                0.000000039
     45448.027 9     45525.19249  20763407.997    20763407.1024   20763416.4694
        -0.000          -0.000
   1595901.856 9   1256602.04347  22895023.435    22895023.2354   22895034.5764
        -0.000          -0.000
 -11093447.002 9  -8611918.54346  23096273.192    23096272.8134   23096285.2024
        -0.000          -0.000
     48551.677 9     53974.79848  21645015.295    21645014.4084   21645024.5574
        -0.000          -0.000
  -5704119.326 9  -4424547.29045  24253345.254    24253344.6404   24253365.4534
        -0.000          -0.000
 -10894440.449 9  -8464036.34947  21813645.150    21813645.0284   21813656.0624
        -0.000          -0.000
   8559373.323 9   6662812.22447  22788088.155    22788087.3254   22788100.0494
        -0.000          -0.000
 01  1 16 21 30  0.0000000  0  7  7 26  9  2 24  4  8                0.000000039
     85382.846 9     76643.17149  20771007.391    20771006.4914   20771015.8764
        -0.000          -0.000
   1641320.089 9   1291992.77347  22903666.295    22903666.1414   22903677.4824
        -0.000          -0.000
 -11183650.451 9  -8682206.77446  23079107.923    23079107.4474   23079119.9454
        -0.000          -0.000
     60265.448 9     63102.36448  21647244.376    21647243.5154   21647253.6524
        -0.000          -0.000
  -5809356.089 9  -4506549.22145  24233318.917    24233318.1544   24233338.8674
        -0.000          -0.000
 -10979138.523 9  -8530034.71847  21797527.530    21797527.4064   21797538.4474
        -0.000          -0.000
   8657520.681 9   6739290.52246  22806765.150    22806764.2764   22806777.0884
        -0.000          -0.000
 01  1 16 21 30 30.0000000  0  7  7 26  9  2 24  4  8                0.000000039
    125590.330 9    107973.61749  20778658.665    20778657.7644   20778667.1824
        -0.000          -0.000
   1687103.070 9   1327667.72447  22912378.600    22912378.4104   22912389.7424
        -0.000          -0.000
 -11273640.152 9  -8752328.45547  23061983.348    23061982.9614   23061995.4824
        -0.000          -0.000
     72114.587 9     72335.41048  21649499.307    21649498.4144   21649508.5194
        -0.000          -0.000
  -5914614.582 9  -4588568.04345  24213288.388    24213287.6604   24213308.3504
        -0.000          -0.000
 -11063525.861 9  -8595790.96147  21781469.058    21781468.9134   21781479.9374
        -0.000          -0.000
   8755923.668 9   6815968.00846  22825490.754    22825489.8824   22825502.7244
        -0.000          -0.000
 01  1 16 21 31  0.0000000  0  7  7 26  9  2 24  4  8                0.000000040
    166068.147 9    139514.72049  20786361.413    20786360.4924   20786369.9144
        -0.000          -0.000
   1733247.918 9   1363624.63247  22921159.689    22921159.5414   22921170.9364
        -0.000          -0.000
 -11363414.583 9  -8822282.45446  23044899.890    23044899.3794   23044911.6604
        -0.000          -0.000
     84099.601 9     81674.34248  21651780.041    21651779.1254   21651789.2744
        -0.000          -0.000
  -6019892.549 9  -4670602.14845  24193254.100    24193253.3504   24193273.9684
        -0.000          -0.000
 -11147599.697 9  -8661302.93147  21765470.260    21765470.0694   21765481.0724
        -0.000          -0.000
   8854580.239 9   6892843.08846  22844264.640    22844263.7954   22844276.6284
        -0.000          -0.000
 01  1 16 21 31 30.0000000  0  7  7 26  9  2 24  4  8                0.000000039
    206815.103 9    171265.54749  20794115.348    20794114.4144   20794123.8924
        -0.000          -0.000
   1779752.667 9   1399861.99847  22930009.337    22930009.2144   22930020.6214
        -0.000          -0.000
 -11452970.569 9  -8892066.20446  23027857.721    23027857.2464   23027869.4634
        -0.000          -0.000
     96222.230 9     91120.49948  21654086.906    21654086.0084   21654096.1954
        -0.000          -0.000
  -6125186.286 8  -4752648.47645  24173216.796    24173216.1224   24173236.5624
        -0.000          -0.000
 -11231356.348 9  -8726567.74947  21749531.836    21749531.6234   21749542.6164
        -0.000          -0.000
   8953488.820 9   6969914.55246  22863086.392    22863085.5454   22863098.4004
        -0.000          -0.000
 01  1 16 21 32  0.0000000  0  7  7 26  9  2 24  4  8                0.000000039
    247828.652 9    203224.11649  20801919.969    20801919.0714   20801928.5584
        -0.000          -0.000
   1826614.392 9   1436377.52147  22938927.046    22938926.9014   22938938.3174
        -0.000          -0.000
 -11542305.982 9  -8961678.06147  23010857.797    23010857.2854   23010869.5614
        -0.000          -0.000
    108482.855 9    100674.18148  21656420.118    21656419.2234   21656429.3534
        -0.000          -0.000
  -6230494.021 8  -4834705.78545  24153176.943    24153176.1854   24153196.3524
        -0.000          -0.000
 -11314793.300 9  -8791583.44847  21733654.152    21733653.9754   21733664.9524
        -0.000          -0.000
   9052647.121 9   7047180.59146  22881955.658    22881954.9014   22881967.8014
        -0.000          -0.000
 01  1 16 21 32 30.0000000  0  7  7 26  9  2 24  4  8                0.000000039
    289107.227 9    235389.19849  20809775.033    20809774.1534   20809783.6604
        -0.000          -0.000
   1873830.757 9   1473169.38647  22947912.201    22947911.9714   22947923.3254
        -0.000          -0.000
 -11631418.361 9  -9031116.14446  22993900.089    22993899.6054   22993911.8744
        -0.000          -0.000
    120882.610 9    110336.28848  21658779.778    21658778.8694   21658788.9474
        -0.000          -0.000
  -6335812.860 9  -4916771.74245  24133134.934    24133134.2404   24133154.2704
        -0.000          -0.000
 -11397907.205 9  -8856347.44247  21717837.953    21717837.8344   21717848.7774
        -0.000          -0.000
   9152053.250 9   7124639.74746  22900872.149    22900871.3464   22900884.3544
        -0.000          -0.000
 01  1 16 21 33  0.0000000  0  7  7 26  9  2 24  4  8                0.000000038
    330649.406 9    267759.68849  20817680.314    20817679.4204   20817688.9564
        -0.000          -0.000
   1921399.891 9   1510236.13347  22956964.338    22956964.1254   22956975.4924
        -0.000          -0.000
 -11720304.784 9  -9100378.15246  22976985.352    22976984.9344   22976997.1904
        -0.000          -0.000
    133423.088 9    120108.04148  21661166.235    21661165.2774   21661175.3444
        -0.000          -0.000
  -6441139.460 9  -4998843.80145  24113091.257    24113090.6364   24113110.5344
        -0.000          -0.000
 -11480694.396 9  -8920856.86347  21702084.015    21702083.8804   21702094.8234
        -0.000          -0.000
   9251705.900 9   7202291.02446  22919835.460    22919834.7584   22919847.7554
        -0.000          -0.000
 01  1 16 21 33 30.0000000  0  7  7 26  9  2 24  4  8                0.000000039
    372452.691 9    300333.64049  20825635.222    20825634.3434   20825643.8874
        -0.000          -0.000
   1969318.731 9   1547575.37847  22966083.018    22966082.8214   22966094.1824
        -0.000          -0.000
 -11808963.231 9  -9169462.52047  22960114.212    22960113.7744   22960126.0024
        -0.000          -0.000
    146104.614 9    129989.70248  21663579.431    21663578.5374   21663588.6434
        -0.000          -0.000
  -6546471.650 8  -5080920.19045  24093046.768    24093046.1834   24093065.9274
        -0.000          -0.000
 -11563152.113 9  -8985109.54748  21686392.809    21686392.6734   21686403.5634
        -0.000          -0.000
   9351602.637 9   7280132.45246  22938845.246    22938844.4794   22938857.5724
        -0.000          -0.000
 01  1 16 21 34  0.0000000  0  7  7 26  9  2 24  4  8                0.000000039
    414515.436 9    333109.77949  20833639.565    20833638.6424   20833648.1974
        -0.000          -0.000
   2017584.822 9   1585185.20747  22975267.843    22975267.6434   22975279.0274
        -0.000          -0.000
 -11897391.184 9  -9238367.29446  22943286.763    22943286.3544   22943298.5804
        -0.000          -0.000
    158928.329 9    139982.16048  21666019.758    21666018.8474   21666028.9654
        -0.000          -0.000
  -6651806.538 9  -5162998.76945  24073001.806    24073001.2394   24073020.5534
        -0.000          -0.000
 -11645277.523 9  -9049103.29848  21670764.767    21670764.6724   21670775.5364
        -0.000          -0.000
   9451741.538 9   7358162.61346  22957901.197    22957900.4664   22957913.5794
        -0.000          -0.000
 01  1 16 21 34 30.0000000  0  7  7 26  9  2 24  4  8                0.000000039
    456835.573 9    366086.49049  20841692.863    20841691.9374   20841701.4754
        -0.000          -0.000
   2066195.577 9   1623063.61447  22984518.083    22984517.9194   22984529.4584
        -0.000          -0.000
 -11985586.234 9  -9307090.59047  22926503.779    22926503.4324   22926515.5774
        -0.000          -0.000
    171895.109 9    150086.10348  21668487.294    21668486.3994   21668496.5504
        -0.000          -0.000
  -6757141.456 9  -5245077.32745  24052956.480    24052956.1164   24052975.4264
        -0.000          -0.000
 -11727067.309 9  -9112835.53248  21655200.654    21655200.5474   21655211.4034
        -0.000          -0.000
   9552120.590 9   7436379.89446  22977002.886    22977002.1324   22977015.2584
        -0.000          -0.000
 01  1 16 21 35  0.0000000  0  7  7 26  9  2 24  4  8                0.000000040
    499410.910 9    399262.05649  20849794.701    20849793.7884   20849803.3184
        -0.000          -0.000
   2115147.982 9   1661208.24047  22993833.509    22993833.3204   22993844.9294
        -0.000          -0.000
 -12073546.492 9  -9375630.93047  22909765.563    22909765.0414   22909777.0974
        -0.000          -0.000
    185005.503 9    160301.95348  21670982.181    21670981.2724   21670991.4484
        -0.000          -0.000
  -6862473.816 9  -5327153.99745  24032911.962    24032911.5734   24032930.6124
        -0.000          -0.000
 -11808518.978 9  -9176304.29748  21639700.844    21639700.7474   21639711.6084
        -0.000          -0.000
   9652737.453 9   7514782.49046  22996149.876    22996149.0564   22996162.1944
        -0.000          -0.000
 01  1 16 21 35 30.0000000  0  7  7 26  9  2 24  4  8                0.000000039
    542239.985 9    432635.34549  20857944.858    20857943.9364   20857953.4534
        -0.000          -0.000
   2164440.124 9   1699617.60947  23003213.457    23003213.2674   23003224.9304
        -0.000          -0.000
 -12161268.734 9  -9443985.77347  22893072.277    22893071.8664   22893084.0004
        -0.000          -0.000
    198261.019 9    170630.89448  21673504.665    21673503.7254   21673513.9234
        -0.000          -0.000
  -6967800.661 9  -5409226.29345  24012868.573    24012868.0984   24012887.1354
        -0.000          -0.000
 -11889628.865 9  -9239506.74348  21624266.048    21624266.0024   21624276.8324
        -0.000          -0.000
   9753590.534 9   7593369.13546  23015341.710    23015340.8114   23015354.1174
        -0.000          -0.000
 01  1 16 21 36  0.0000000  0  7  7 26  9  2 24  4  8                0.000000040
    585320.822 9    466204.81149  20866142.865    20866141.9504   20866151.4934
        -0.000          -0.000
   2214069.385 9   1738289.64347  23012657.529    23012657.3894   23012669.1584
        -0.000          -0.000
 -12248750.420 9  -9512153.20647  22876425.245    22876424.7314   22876436.7164
        -0.000          -0.000
    211662.639 9    181073.68148  21676054.982    21676054.0504   21676064.1634
        -0.000          -0.000
  -7073119.204 9  -5491292.21345  23992826.617    23992826.2124   23992844.9894
        -0.000          -0.000
 -11970393.995 9  -9302440.54848  21608896.917    21608896.9024   21608907.6864
        -0.000          -0.000
   9854677.966 9   7672138.40646  23034578.180    23034577.2944   23034590.6054
        -0.000          -0.000
 01  1 16 21 36 30.0000000  0  7  7 26  9  2 24  4  8                0.000000039
    628650.907 9    499968.49349  20874388.288    20874387.4024   20874396.9454
        -0.000          -0.000
   2264032.413 9   1777221.76947  23022165.241    23022165.1374   23022176.9944
        -0.000          -0.000
 -12335990.160 9  -9580132.10147  22859823.796    22859823.3434   22859835.2264
        -0.000          -0.000
    225210.579 9    191630.48648  21678633.115    21678632.1854   21678642.2864
        -0.000          -0.000
  -7178427.037 9  -5573349.77645  23972786.951    23972786.3464   23972805.0644
        -0.000          -0.000
 -12050811.844 9  -9365103.75048  21593593.885    21593593.8464   21593604.5634
        -0.000          -0.000
   9955996.970 9   7751088.10646  23053858.658    23053857.7764   23053871.0174
        -0.000          -0.000
 01  1 16 21 37  0.0000000  0  7  7 26  9  2 24  4  8                0.000000039
    672229.878 9    533926.12149  20882681.154    20882680.2514   20882689.7984
        -0.000          -0.000
   2314328.359 9   1816413.30947  23031736.392    23031736.2704   23031748.1384
        -0.000          -0.000
 -12422983.584 9  -9647919.08347  22843269.589    22843269.1544   22843280.9954
        -0.000          -0.000
    238907.353 9    202303.26948  21681239.550    21681238.6314   21681248.7674
        -0.000          -0.000
  -7283720.122 9  -5655395.86645  23952750.039    23952749.2864   23952767.8364
        -0.000          -0.000
 -12130877.946 9  -9427492.86448  21578357.750    21578357.7044   21578368.3794
        -0.000          -0.000
  10057547.154 9   7830217.91946  23073183.029    23073182.2274   23073195.7084
        -0.000          -0.000
 01  1 16 21 37 30.0000000  0  7  7 26  9  2 24  4  8                0.000000038
    716055.095 9    568075.62049  20891020.838    20891019.9384   20891029.4724
        -0.000          -0.000
   2364953.537 9   1855861.39647  23041370.192    23041370.0914   23041381.9514
        -0.000          -0.000
 -12509729.322 9  -9715512.96447  22826762.171    22826761.6624   22826773.8044
        -0.000          -0.000
    252753.198 9    213092.21348  21683874.354    21683873.4374   21683883.5794
        -0.000          -0.000
  -7388995.873 9  -5737428.40145  23932716.387    23932715.7064   23932734.1194
        -0.000          -0.000
 -12210589.973 9  -9489606.07448  21563189.024    21563188.9654   21563199.6114
        -0.000          -0.000
  10159325.602 9   7909525.62246  23092550.995    23092550.1594   23092563.7294
        -0.000          -0.000
 01  1 16 21 38  0.0000000  0  7  7 26  9  2 24  4  8                0.000000038
    760125.230 9    602415.96349  20899407.100    20899406.2124   20899415.7854
        -0.000          -0.000
   2415906.256 9   1895564.69147  23051066.372    23051066.2094   23051078.1464
        -0.000          -0.000
 -12596224.173 9  -9782911.49847  22810302.702    22810302.2964   22810313.9574
        -0.000          -0.000
    266749.917 9    223998.72848  21686537.880    21686536.9634   21686547.0964
        -0.000          -0.000
  -7494251.227 9  -5819445.06045  23912686.480    23912685.8534   23912704.0704
        -0.000          -0.000
 -12289944.191 9  -9551440.47048  21548088.361    21548088.3094   21548098.9114
        -0.000          -0.000
  10261331.148 9   7989010.30546  23111962.221    23111961.3614   23111974.7424
        -0.000          -0.000
 01  1 16 21 38 30.0000000  0  7  7 26  9  2 24  4  8                0.000000038
    804437.814 9    636945.22749  20907839.535    20907838.6344   20907848.2014
        -0.000          -0.000
   2467183.183 9   1935520.62147  23060824.175    23060823.9834   23060835.8994
        -0.000          -0.000
 -12682466.464 9  -9850113.06947  22793891.118    22793890.6394   22793902.7194
        -0.000          -0.000
    280897.697 9    235022.94848  21689230.213    21689229.2494   21689239.3614
        -0.000          -0.000
  -7599484.169 9  -5901444.20845  23892660.819    23892660.2254   23892678.3434
        -0.000          -0.000
 -12368938.342 9  -9612994.30048  21533056.288    21533056.2154   21533066.7974
        -0.000          -0.000
  10363560.966 9   8068669.67946  23131416.103    23131415.1654   23131428.8134
        -0.000          -0.000
 01  1 16 21 39  0.0000000  0  7  7 26  9  2 24  4  8                0.000000038
    848991.607 9    671662.43649  20916317.855    20916316.9654   20916326.5244
        -0.000          -0.000
   2518782.541 9   1975727.79547  23070643.367    23070643.1964   23070655.0184
        -0.000          -0.000
 -12768452.613 9  -9917115.18347  22777528.433    22777528.0664   22777539.8354
        -0.000          -0.000
    295198.166 9    246166.13848  21691951.511    21691950.5554   21691960.6754
        -0.000          -0.000
  -7704691.164 9  -5983423.15445  23872640.094    23872639.5164   23872657.5644
        -0.000          -0.000
 -12447568.610 9  -9674264.57348  21518093.413    21518093.3344   21518103.9174
        -0.000          -0.000
  10466013.898 9   8148502.93246  23150912.377    23150911.4174   23150925.0214
        -0.000          -0.000
 01  1 16 21 39 30.0000000  0  7  7 26  9  2 24  4  8                0.000000037
    893783.806 9    706565.42049  20924841.605    20924840.7044   20924850.2104
        -0.000          -0.000
   2570700.512 9   2016183.23147  23080523.192    23080522.9964   23080534.8504
        -0.000          -0.000
 -12854181.487 9  -9983916.78547  22761214.624    22761214.1104   22761225.8894
        -0.000          -0.000
    309651.446 9    257428.40948  21694701.849    21694700.9214   21694711.0594
        -0.000          -0.000
  -7809870.060 9  -6065380.17745  23852624.895    23852624.2934   23852642.2084
        -0.000          -0.000
 -12525832.950 9  -9735249.71948  21503200.226    21503200.0944   21503210.6724
        -0.000          -0.000
  10568686.876 9   8228507.63846  23170450.506    23170449.6024   23170463.2814
        -0.000          -0.000
 01  1 16 21 40  0.0000000  0  7  7 26  9  2 24  4  8                0.000000038
    938813.574 9    741653.51449  20933410.535    20933409.6224   20933419.0834
        -0.000          -0.000
   2622935.674 9   2056885.82947  23090463.257    23090463.1654   23090474.9194
        -0.000          -0.000
 -12939649.282 9 -10050514.91447  22744950.624    22744950.2184   22744962.0884
        -0.000          -0.000
    324259.701 9    268811.44048  21697481.669    21697480.7774   21697490.9484
        -0.000          -0.000
  -7915017.156 9  -6147312.42145  23832615.631    23832615.0944   23832632.9994
        -0.000          -0.000
 -12603727.383 9  -9795946.61848  21488377.372    21488377.2564   21488387.8224
        -0.000          -0.000
  10671578.984 9   8308683.10446  23190030.444    23190029.5564   23190043.3784
        -0.000          -0.000
 01  1 16 21 40 30.0000000  0  7  7 26  9  2 24  4  8                0.000000037
    984077.987 9    776924.44849  20942024.121    20942023.2094   20942032.6544
        -0.000          -0.000
   2675484.280 9   2097832.66647  23100463.083    23100462.9424   23100474.6644
        -0.000          -0.000
 -13024854.826 9 -10116908.74647  22728736.441    22728735.9644   22728747.6594
        -0.000          -0.000
    339022.851 9    280315.17048  21700291.019    21700290.1324   21700300.3684
        -0.000          -0.000
  -8020130.750 9  -6229218.58245  23812612.710    23812612.2424   23812630.1234
        -0.000          -0.000
 -12681249.955 9  -9856353.75448  21473625.305    21473625.1294   21473635.6944
        -0.000          -0.000
  10774686.981 9   8389026.83446  23209651.283    23209650.5134   23209664.1714
        -0.000          -0.000
 01  1 16 21 41  0.0000000  0  7  7 26  9  2 24  4  8                0.000000037
   1029576.152 9    812377.52449  20950682.186    20950681.2554   20950690.7024
        -0.000          -0.000
   2728344.729 9   2139022.49047  23110522.095    23110521.9594   23110533.7884
        -0.000          -0.000
 -13109794.489 9 -10183095.39147  22712572.850    22712572.5034   22712584.1204
        -0.000          -0.000
    353942.879 9    291941.13348  21703130.163    21703129.2864   21703139.5554
        -0.000          -0.000
  -8125207.382 9  -6311095.95946  23792616.939    23792616.4454   23792634.2654
        -0.000          -0.000
 -12758396.551 9  -9916467.92048  21458944.713    21458944.5724   21458955.1414
        -0.000          -0.000
  10878009.921 9   8469538.00246  23229313.026    23229312.3304   23229326.2094
        -0.000          -0.000
 01  1 16 21 41 30.0000000  0  7  7 26  9  2 24  4  8                0.000000037
   1075304.911 9    848010.27749  20959384.094    20959383.1714   20959392.6434
        -0.000          -0.000
   2781513.097 9   2180452.26147  23120639.750    23120639.6044   23120651.5524
        -0.000          -0.000
 -13194467.053 9 -10249073.80747  22696460.161    22696459.6684   22696471.6044
        -0.000          -0.000
    369019.580 9    303689.18448  21705999.123    21705998.2904   21706008.5554
        -0.000          -0.000
  -8230244.732 8  -6392942.79846  23772628.702    23772628.2744   23772645.6224
        -0.000          -0.000
 -12835165.590 9  -9976287.89348  21444336.040    21444335.8754   21444346.3874
        -0.000          -0.000
  10981544.512 9   8550214.11846  23249015.186    23249014.4514   23249028.2754
        -0.000          -0.000
 01  1 16 21 42  0.0000000  0  7  7 26  9  2 24  4  8                0.000000037
   1121263.342 9    883821.99349  20968129.706    20968128.7964   20968138.2564
        -0.000          -0.000
   2834987.596 9   2222120.56447  23130815.644    23130815.5204   23130827.5034
        -0.000          -0.000
 -13278869.132 9 -10314841.63947  22680398.949    22680398.5574   22680409.8714
        -0.000          -0.000
    384254.925 9    315560.85548  21708898.466    21708897.5634   21708907.8124
        -0.000          -0.000
  -8335239.384 9  -6474756.30546  23752648.361    23752648.0164   23752665.2934
        -0.000          -0.000
 -12911553.039 9 -10035810.52048  21429799.965    21429799.8084   21429810.2954
        -0.000          -0.000
  11085289.582 9   8631054.24746  23268757.431    23268756.6554   23268770.4594
        -0.000          -0.000
 01  1 16 21 42 30.0000000  0  7  7 26  9  2 24  4  8                0.000000036
   1167449.309 9    919811.01749  20976918.626    20976917.7024   20976927.1924
        -0.000          -0.000
   2888765.326 9   2264025.14147  23141049.270    23141049.0854   23141061.0864
        -0.000          -0.000
 -13362998.494 9 -10380396.77747  22664389.412    22664388.9904   22664400.7154
        -0.000          -0.000
    399649.361 9    327556.48948  21711827.995    21711827.0854   21711837.2554
        -0.000          -0.000
  -8440188.699 9  -6556534.51645  23732676.728    23732676.2524   23732693.4364
        -0.000          -0.000
 -12987556.374 9 -10095033.83048  21415336.965    21415336.8114   21415347.2584
        -0.000          -0.000
  11189243.000 9   8712056.71246  23288539.146    23288538.5304   23288552.4394
        -0.000          -0.000
 01  1 16 21 43  0.0000000  0  7  7 26  9  2 24  4  8                0.000000038
   1213861.144 9    955976.03749  20985750.484    20985749.5884   20985759.1314
        -0.000          -0.000
   2942843.746 9   2306164.03047  23151340.182    23151340.0304   23151351.9684
        -0.000          -0.000
 -13446852.299 9 -10445737.33647  22648432.702    22648432.2974   22648443.7264
        -0.000          -0.000
    415204.299 9    339677.19248  21714788.083    21714787.1464   21714797.2744
        -0.000          -0.000
  -8545089.646 9  -6638275.03346  23712714.548    23712713.9224   23712731.1414
        -0.000          -0.000
 -13063172.397 9 -10153955.34648  21400947.667    21400947.5134   21400957.9494
        -0.000          -0.000
  11293402.552 9   8793219.78946  23308360.239    23308359.6074   23308373.4754
        -0.000          -0.000
 01  1 16 21 43 30.0000000  0  7  7 26  9  2 24  4  8                0.000000036
   1260496.238 9    992315.02549  20994624.838    20994624.0044   20994633.5474
        -0.000          -0.000
   2997219.495 9   2348534.59347  23161687.586    23161687.4574   23161699.5034
        -0.000          -0.000
 -13530429.195 9 -10510862.03147  22632528.267    22632527.7974   22632539.3324
        -0.000          -0.000
    430920.029 9    351923.19848  21717778.648    21717777.7554   21717787.9094
        -0.000          -0.000
  -8649940.069 9  -6719976.21146  23692761.655    23692761.1944   23692778.2774
        -0.000          -0.000
 -13138398.755 9 -10212573.22748  21386632.518    21386632.3534   21386642.7774
        -0.000          -0.000
  11397765.789 9   8874541.55846  23328220.060    23328219.3894   23328233.5144
        -0.000          -0.000
 01  1 16 21 44  0.0000000  0  7  7 26  9  2 24  4  8                0.000000037
   1307353.824 9   1028827.38549  21003541.631    21003540.7814   21003550.2994
        -0.000          -0.000
   3051890.934 9   2391135.56247  23172091.288    23172091.2354   23172103.2064
        -0.000          -0.000
 -13613725.379 9 -10575768.02447  22616677.588    22616677.1604   22616688.6464
        -0.000          -0.000
    446798.719 9    364296.17648  21720800.354    21720799.4434   21720809.6074
        -0.000          -0.000
  -8754736.304 9  -6801635.16146  23672819.249    23672818.7604   23672835.7614
        -0.000          -0.000
 -13213231.524 9 -10270884.41148  21372392.243    21372392.1214   21372402.5264
        -0.000          -0.000
  11502331.509 9   8956021.15746  23348118.586    23348117.6854   23348131.8654
        -0.000          -0.000
 01  1 16 21 44 30.0000000  0  7  7 26  9  2 24  4  8                0.000000036
   1354431.363 9   1065511.13649  21012500.235    21012499.3694   21012508.8664
        -0.000          -0.000
   3106854.686 9   2433964.31847  23182550.846    23182550.6944   23182562.5424
        -0.000          -0.000
 -13696739.272 9 -10640454.04347  22600880.346    22600879.8574   22600891.3404
        -0.000          -0.000
    462840.671 9    376796.37548  21723853.143    21723852.1804   21723862.3464
        -0.000          -0.000
  -8859475.919 9  -6883250.00546  23652887.686    23652887.1774   23652904.0224
        -0.000          -0.000
 -13287668.638 9 -10328887.30048  21358227.268    21358227.1174   21358237.5474
        -0.000          -0.000
  11607096.932 9   9037656.37546  23368054.997    23368054.2234   23368068.2084
        -0.000          -0.000
 01  1 16 21 45  0.0000000  0  7  7 26  9  2 24  4  8                0.000000037
   1401727.738 9   1102365.40949  21021500.492    21021499.6194   21021509.1314
        -0.000          -0.000
   3162108.768 9   2477019.30247  23193065.407    23193065.2754   23193077.2064
        -0.000          -0.000
 -13779467.344 9 -10704917.34947  22585137.760    22585137.2954   22585148.7344
        -0.000          -0.000
    479047.742 9    389425.23648  21726937.318    21726936.3354   21726946.4714
        -0.000          -0.000
  -8964155.193 9  -6964817.89846  23632967.570    23632967.0984   23632983.6784
        -0.000          -0.000
 -13361706.181 9 -10386578.84348  21344138.331    21344138.2104   21344148.6414
        -0.000          -0.000
  11712060.878 9   9119446.24146  23388029.072    23388028.3354   23388042.3654
        -0.000          -0.000
 01  1 16 21 45 30.0000000  0  7  7 26  9  2 24  4  8                0.000000036
   1449240.500 9   1139388.29249  21030541.882    21030541.0094   21030550.5384
        -0.000          -0.000
   3217650.110 9   2520298.11447  23203634.615    23203634.5274   23203646.5134
        -0.000          -0.000
 -13861907.920 9 -10769156.62847  22569449.681    22569449.2054   22569460.6264
        -0.000          -0.000
    495420.562 9    402183.24448  21730052.980    21730052.0184   21730062.1324
        -0.000          -0.000
  -9068771.793 9  -7046336.96246  23613059.275    23613058.9394   23613075.2994
        -0.000          -0.000
 -13435341.973 9 -10443957.33148  21330125.881    21330125.7414   21330136.1614
        -0.000          -0.000
  11817220.628 9   9201388.67546  23408040.406    23408039.5914   23408053.7174
        -0.000          -0.000
 01  1 16 21 46  0.0000000  0  7  7 26  9  2 24  4  8                0.000000035
   1496967.983 9   1176578.48849  21039624.182    21039623.3124   21039632.8624
        -0.000          -0.000
   3273475.854 9   2563798.54147  23214258.043    23214257.9534   23214269.9864
        -0.000          -0.000
 -13944058.007 9 -10833169.56147  22553816.941    22553816.4884   22553827.8774
        -0.000          -0.000
    511960.278 9    415071.31848  21733200.390    21733199.3894   21733209.5524
        -0.000          -0.000
  -9173323.120 9  -7127805.16446  23593163.530    23593163.1544   23593179.3234
        -0.000          -0.000
 -13508573.017 9 -10501020.43148  21316190.409    21316190.2894   21316200.7194
        -0.000          -0.000
  11922574.264 9   9283482.18846  23428088.686    23428087.8134   23428102.0804
        -0.000          -0.000
 01  1 16 21 46 30.0000000  0  7  7 26  9  2 24  4  8                0.000000035
   1544908.977 9   1213935.05848  21048747.110    21048746.2164   21048755.8064
        -0.000          -0.000
   3329583.971 9   2607518.99747  23224935.175    23224935.0624   23224947.2524
        -0.000          -0.000
 -14025914.742 9 -10896953.89347  22538239.922    22538239.5114   22538250.9444
        -0.000          -0.000
    528668.490 9    428090.67148  21736379.834    21736378.8784   21736389.0904
        -0.000          -0.000
  -9277805.431 9  -7209219.62746  23573280.840    23573280.5684   23573296.6814
        -0.000          -0.000
 -13581395.674 9 -10557765.31348  21302332.666    21302332.5324   21302342.9374
        -0.000          -0.000
  12028120.309 9   9365725.64946  23448173.631    23448172.7684   23448186.9644
        -0.000          -0.000
 01  1 16 21 47  0.0000000  0  7  7 26  9  2 24  4  8                0.000000035
   1593060.728 9   1251455.85249  21057910.133    21057909.2534   21057918.8524
        -0.000          -0.000
   3385970.936 9   2651456.72947  23235665.335    23235665.2434   23235677.6024
        -0.000          -0.000
 -14107476.581 9 -10960508.46747  22522719.141    22522718.6774   22522730.0444
        -0.000          -0.000
    545545.329 9    441241.42048  21739591.325    21739590.3854   21739600.6864
        -0.000          -0.000
  -9382216.476 9  -7290578.50346  23553411.694    23553411.3844   23553427.5834
        -0.000          -0.000
 -13653807.776 9 -10614190.28548  21288553.051    21288552.9324   21288563.3004
        -0.000          -0.000
  12133855.848 9   9448116.73746  23468294.549    23468293.7284   23468308.0924
        -0.000          -0.000
 01  1 16 21 47 30.0000000  0  7  7 26  9  2 24  4  8                0.000000034
   1641421.934 9   1289139.86348  21067113.022    21067112.1024   21067121.7244
        -0.000          -0.000
   3442634.484 9   2695609.99647  23246448.280    23246448.1584   23246460.5204
        -0.000          -0.000
 -14188740.828 9 -11023831.11547  22507254.934    22507254.5324   22507265.9834
        -0.000          -0.000
    562592.182 9    454524.65048  21742835.227    21742834.2994   21742844.6194
        -0.000          -0.000
  -9486553.606 9  -7371879.85546  23533556.693    23533556.5094   23533572.5334
        -0.000          -0.000
 -13725806.420 9 -10670293.07748  21274852.168    21274852.0364   21274862.3714
        -0.000          -0.000
  12239779.113 9   9530654.13446  23488451.242    23488450.3154   23488464.7534
        -0.000          -0.000
 01  1 16 21 48  0.0000000  0  7  7 26  9  2 24  4  8                0.000000034
   1689990.552 9   1326985.49248  21076355.310    21076354.4334   21076364.0534
        -0.000          -0.000
   3499571.539 9   2739976.39647  23257283.273    23257283.1074   23257295.4264
        -0.000          -0.000
 -14269705.059 9 -11086920.02647  22491847.894    22491847.4484   22491858.8034
        -0.000          -0.000
    579809.927 9    467941.04148  21746111.664    21746110.7414   21746121.0284
        -0.000          -0.000
  -9590813.489 9  -7453121.00946  23513716.418    23513716.2534   23513732.1974
        -0.000          -0.000
 -13797388.861 9 -10726071.55448  21261230.462    21261230.3074   21261240.6664
        -0.000          -0.000
  12345887.950 9   9613336.09146  23508643.430    23508642.3864   23508656.9854
        -0.000          -0.000
 01  1 16 21 48 30.0000000  0  7  7 26  9  2 24  4  8                0.000000034
   1738764.371 9   1364991.01948  21085636.725    21085635.8284   21085645.4644
        -0.000          -0.000
   3556779.178 9   2784553.61847  23268169.633    23268169.4314   23268181.7414
        -0.000          -0.000
 -14350366.714 9 -11149773.13747  22476498.466    22476498.0444   22476509.3374
        -0.000          -0.000
    597199.241 9    481491.12848  21749420.759    21749419.8304   21749430.1154
        -0.000          -0.000
  -9694993.678 9  -7534300.07146  23493891.422    23493891.1674   23493907.0454
        -0.000          -0.000
 -13868552.328 9 -10781523.56548  21247688.467    21247688.3414   21247698.6814
        -0.000          -0.000
  12452179.820 9   9696160.71546  23528870.312    23528869.3034   23528883.7074
        -0.000          -0.000
 01  1 16 21 49  0.0000000  0  8  7 26  9  2  5 24  4  8             0.000000034
   1787741.923 9   1403155.30248  21094956.889    21094955.9864   21094965.6604
        -0.000          -0.000
   3614254.862 9   2829339.69847  23279106.939    23279106.8194   23279119.1554
        -0.000          -0.000
 -14430723.363 9 -11212388.60247  22461206.954    22461206.5204   22461217.8244
        -0.000          -0.000
    614761.478 9    495175.94848  21752762.739    21752761.8164   21752772.1544
        -0.000          -0.000
   -764486.446 9   -570548.80452         0.000           0.0004          0.0005
        -0.000          -0.000
  -9799091.048 9  -7615414.62346  23474082.162    23474081.9224   23474097.6564
        -0.000          -0.000
 -13939294.036 9 -10836646.92548  21234226.708    21234226.5914   21234236.9364
        -0.000          -0.000
  12558652.775 9   9779126.39546  23549131.650    23549130.6964   23549145.1014
        -0.000          -0.000
 01  1 16 21 49 30.0000000  0  8  7 26  9  2  5 24  4  8             0.000000034
   1836921.615 9   1441477.10248  21104315.503    21104314.6074   21104324.3184
        -0.000          -0.000
   3671996.046 9   2874332.67447  23290094.981    23290094.8224   23290107.2654
        -0.000          -0.000
 -14510772.214 9 -11274764.23247  22445974.137    22445973.6674   22445984.8104
        -0.000          -0.000
    632498.093 9    508996.64448  21756137.912    21756136.9804   21756147.3114
        -0.000          -0.000
   -839202.63018   -352846.40552         0.000           0.0005          0.0005
        -0.000          -0.000
  -9903102.300 9  -7696462.06146  23454289.295    23454289.0144   23454304.5854
        -0.000          -0.000
 -14009610.745 9 -10891439.11548  21220845.828    21220845.6744   21220856.0494
        -0.000          -0.000
  12665305.312 9   9862232.02346  23569427.150    23569426.1754   23569440.6804
        -0.000          -0.000
 01  1 16 21 50  0.0000000  0  7  7 26  9  2 24  4  8                0.000000033
   1886301.465 9   1479954.86948  21113712.248    21113711.3524   21113721.0724
        -0.000          -0.000
   3729999.967 9   2919530.38247  23301133.007    23301132.7614   23301145.2294
        -0.000          -0.000
 -14590510.892 9 -11336898.16247  22430800.276    22430799.8414   22430811.0654
        -0.000          -0.000
    650410.113 9    522954.02948  21759546.403    21759545.5204   21759555.8474
        -0.000          -0.000
 -10007024.297 9  -7777439.92446  23434513.360    23434513.0254   23434528.7014
        -0.000          -0.000
 -14079499.769 9 -10945898.04848  21207546.347    21207546.2014   21207556.5774
        -0.000          -0.000
  12772134.988 9   9945475.64846  23589756.339    23589755.3924   23589770.0224
        -0.000          -0.000
 01  1 16 21 50 30.0000000  0  7  7 26  9  2 24  4  8                0.000000032
   1935879.752 9   1518587.27148  21123146.755    21123145.8104   21123155.5034
        -0.000          -0.000
   3788263.894 9   2964930.70046  23312220.312    23312220.0864   23312232.5784
        -0.000          -0.000
 -14669936.966 9 -11398788.51047  22415685.879    22415685.4134   22415696.6344
        -0.000          -0.000
    668498.480 9    537048.82848  21762988.505    21762987.6174   21762997.9844
        -0.000          -0.000
 -10110854.771 9  -7858346.47246  23414754.853    23414754.4234   23414770.1194
        -0.000          -0.000
 -14148958.247 9 -11000021.48748  21194328.806    21194328.6824   21194339.0304
        -0.000          -0.000
  12879139.886 9  10028855.77246  23610118.736    23610117.7134   23610132.8144
        -0.000          -0.000
 01  1 16 21 51  0.0000000  0  8  7 26  9  2  5 24  4  8             0.000000032
   1985654.430 9   1557372.70348  21132618.567    21132617.6334   21132627.3314
        -0.000          -0.000
   3846784.638 9   3010531.13346  23323356.479    23323356.3274   23323368.7504
        -0.000          -0.000
 -14749048.071 9 -11460433.46647  22400631.679    22400631.1664   22400642.1564
        -0.000          -0.000
    686763.736 9    551281.45348  21766464.286    21766463.4014   21766473.7694
        -0.000          -0.000
  -1063745.746 8   -527812.33552         0.000           0.0004          0.0005
        -0.000          -0.000
 -10214591.201 9  -7939179.76546  23395014.325    23395013.8594   23395029.3894
        -0.000          -0.000
 -14217983.806 9 -11053807.58048  21181193.705    21181193.5554   21181203.8714
        -0.000          -0.000
  12986317.370 9  10112370.49646  23630514.205    23630513.2254   23630527.9244
        -0.000          -0.000
 01  1 16 21 51 30.0000000  0  8  7 26  9  2  5 24  4  8             0.000000032
   2035624.254 9   1596310.19448  21142127.502    21142126.5904   21142136.3004
        -0.000          -0.000
   3905560.161 9   3056330.10446  23334541.177    23334541.0234   23334553.5794
        -0.000          -0.000
 -14827841.296 9 -11521830.65047  22385637.540    22385637.1464   22385648.3324
        -0.000          -0.000
    705207.862 9    565653.45448  21769974.114    21769973.2314   21769983.6264
        -0.000          -0.000
  -1138724.590 8   -308433.74242         0.000           0.0004          0.0004
        -0.000          -0.000
 -10318229.716 9  -8019936.75346  23375292.353    23375291.8834   23375307.2684
        -0.000          -0.000
 -14286572.882 9 -11107253.55648  21168141.575    21168141.4514   21168151.7374
        -0.000          -0.000
  13093666.001 9  10196018.50146  23650942.255    23650941.2854   23650956.1644
        -0.000          -0.000
 01  1 16 21 52  0.0000000  0  7  7 26  9  2 24  4  8                0.000000031
   2085787.228 9   1635398.19548  21151673.269    21151672.3324   21151682.0514
        -0.000          -0.000
   3964587.520 9   3102325.29746  23345773.717    23345773.6174   23345786.3904
        -0.000          -0.000
 -14906314.114 9 -11582978.25547  22370704.806    22370704.3144   22370715.1844
        -0.000          -0.000
    723831.805 9    580165.57948  21773518.133    21773517.2784   21773527.7724
        -0.000          -0.000
 -10421767.273 9  -8100615.06546  23355589.581    23355589.0934   23355604.3474
        -0.000          -0.000
 -14354722.919 9 -11160357.42148  21155173.015    21155172.9094   21155183.1964
        -0.000          -0.000
  13201183.631 9  10279798.17146  23671402.061    23671401.1984   23671416.1104
        -0.000          -0.000
 01  1 16 21 52 30.0000000  0  7  7 26  9  2 24  4  8                0.000000030
   2136141.376 9   1674635.16748  21161255.392    21161254.4484   21161264.1664
        -0.000          -0.000
   4023863.696 9   3148514.38547  23357053.712    23357053.6384   23357066.5514
        -0.000          -0.000
 -14984464.546 9 -11643874.56847  22355833.005    22355832.6494   22355843.7754
        -0.000          -0.000
    742636.262 9    594818.36148  21777096.519    21777095.6404   21777106.2214
        -0.000          -0.000
 -10525201.362 9  -8181212.74746  23335906.587    23335906.0294   23335921.2714
        -0.000          -0.000
 -14422431.673 9 -11213117.42148  21142288.492    21142288.3494   21142298.6204
        -0.000          -0.000
  13308867.784 9  10363707.57546  23691893.875    23691893.0124   23691908.1554
        -0.000          -0.000
 01  1 16 21 53  0.0000000  0  7  7 26  9  2 24  4  8                0.000000031
   2186684.024 9   1714019.02648  21170873.292    21170872.3804   21170882.1444
        -0.000          -0.000
   4083384.982 9   3194894.47647  23368380.507    23368380.3564   23368393.1944
        -0.000          -0.000
 -15062290.902 9 -11704518.41647  22341023.302    22341022.7634   22341033.7094
        -0.000          -0.000
    761621.512 9    609612.02248  21780709.340    21780708.4594   21780719.0284
        -0.000          -0.000
 -10628530.012 9  -8261728.28646  23316243.664    23316243.1114   23316258.1204
        -0.000          -0.000
 -14489697.060 9 -11265531.93248  21129488.227    21129488.1004   21129498.3814
        -0.000          -0.000
  13416715.310 9  10447744.40646  23712417.168    23712416.1474   23712430.9744
        -0.000          -0.000
 01  1 16 21 53 30.0000000  0  7  7 26  9  2 24  4  8                0.000000030
   2237414.663 9   1753549.37348  21180527.046    21180526.1474   21180535.8764
        -0.000          -0.000
   4143149.899 9   3241464.40447  23379753.484    23379753.3134   23379766.2944
        -0.000          -0.000
 -15139789.476 9 -11764906.83947  22326275.633    22326275.2514   22326286.1064
        -0.000          -0.000
    780789.885 9    624548.37248  21784357.084    21784356.1844   21784366.7224
        -0.000          -0.000
 -10731748.866 9  -8342158.28746  23296601.513    23296600.9294   23296615.7884
        -0.000          -0.000
 -14556515.288 9 -11317598.01248  21116773.106    21116773.0024   21116783.2394
        -0.000          -0.000
  13524725.512 9  10531907.84646  23732970.877    23732970.0874   23732985.1424
        -0.000          -0.000
 01  1 16 21 54  0.0000000  0  7  7 26  9  2 24  4  8                0.000000028
   2288330.728 9   1793224.20248  21190216.108    21190215.1994   21190224.9414
        -0.000          -0.000
   4203154.818 9   3288221.36646  23391172.149    23391171.9884   23391185.0134
        -0.000          -0.000
 -15216958.639 9 -11825038.53247  22311590.858    22311590.3084   22311601.3844
        -0.000          -0.000
    800141.721 9    639627.68848  21788039.742    21788038.7854   21788049.2454
        -0.000          -0.000
 -10834855.818 9  -8422501.06246  23276980.602    23276980.0234   23276994.9274
        -0.000          -0.000
 -14622884.325 9 -11369314.06448  21104143.510    21104143.3364   21104153.5554
        -0.000          -0.000
  13632895.441 9  10616195.80746  23753554.883    23753554.1764   23753569.3274
        -0.000          -0.000
 01  1 16 21 54 30.0000000  0  7  7 26  9  2 24  4  8                0.000000028
   2339431.650 9   1833043.07948  21199940.345    21199939.4074   21199949.1524
        -0.000          -0.000
   4263398.151 9   3335164.07646  23402636.002    23402635.8534   23402649.0404
        -0.000          -0.000
 -15293794.626 9 -11884910.69547  22296969.298    22296968.9194   22296979.7134
        -0.000          -0.000
    819679.125 9    654851.59048  21791757.677    21791756.7214   21791767.0894
        -0.000          -0.000
 -10937846.660 9  -8502753.40046  23257381.799    23257381.3604   23257396.0664
        -0.000          -0.000
 -14688800.251 9 -11420677.05048  21091600.078    21091599.8994   21091610.1144
        -0.000          -0.000
  13741224.108 9  10700607.46646  23774169.437    23774168.7454   23774183.7294
        -0.000          -0.000
 01  1 16 21 55  0.0000000  0  7  7 26  9  2 24  4  8                0.000000028
   2390714.324 9   1873003.58048  21209699.131    21209698.1914   21209707.9494
        -0.000          -0.000
   4323875.667 9   3382289.29246  23414144.464    23414144.2854   23414157.5814
        -0.000          -0.000
 -15370296.514 9 -11944522.40247  22282411.465    22282410.9194   22282422.0954
        -0.000          -0.000
    839401.733 9    670219.81248  21795510.831    21795509.8734   21795520.1814
        -0.000          -0.000
 -11040720.249 9  -8582914.40146  23237805.336    23237805.0124   23237819.5514
        -0.000          -0.000
 -14754261.946 9 -11471686.08448  21079143.053    21079142.8934   21079153.0954
        -0.000          -0.000
  13849708.157 9  10785140.18346  23794813.554    23794812.8644   23794827.9824
        -0.000          -0.000
 01  1 16 21 55 30.0000000  0  7  7 26  9  2 24  4  8                0.000000028
   2442177.386 9   1913104.64548  21219492.205    21219491.2824   21219501.0654
        -0.000          -0.000
   4384585.043 9   3429595.17046  23425697.033    23425696.9374   23425710.1934
        -0.000          -0.000
 -15446461.123 9 -12003871.42047  22267917.776    22267917.3424   22267928.0474
        -0.000          -0.000
    859311.145 9    685733.59948  21799299.604    21799298.5794   21799308.8804
        -0.000          -0.000
 -11143473.160 9  -8662981.37346  23218251.955    23218251.5604   23218266.0564
        -0.000          -0.000
 -14819266.104 9 -11522338.59848  21066773.085    21066772.9474   21066783.1334
        -0.000          -0.000
  13958345.658 9  10869792.44946  23815486.827    23815486.0324   23815501.3294
        -0.000          -0.000
 01  1 16 21 56  0.0000000  0  7  7 26  9  2 24  4  8                0.000000026
   2493818.297 9   1953344.29248  21229319.142    21229318.2394   21229328.0524
        -0.000          -0.000
   4445522.752 9   3477078.97346  23437293.062    23437293.0894   23437306.2274
        -0.000          -0.000
 -15522286.933 9 -12062956.33747  22253488.417    22253487.9414   22253498.9534
        -0.000          -0.000
    879407.663 9    701393.17948  21803123.870    21803122.8524   21803133.2474
        -0.000          -0.000
 -11246103.023 9  -8742952.46746  23198721.951    23198721.5504   23198736.0334
        -0.000          -0.000
 -14883810.956 9 -11572633.21948  21054490.587    21054490.4204   21054500.5984
        -0.000          -0.000
  14067133.838 9  10954562.13446  23836188.824    23836187.9594   23836203.3984
        -0.000          -0.000
 01  1 16 21 56 30.0000000  0  7  7 26  9  2 24  4  8                0.000000026
   2545636.581 9   1993722.15748  21239179.848    21239178.9424   21239188.7574
        -0.000          -0.000
   4506687.085 9   3524739.39646  23448932.438    23448932.4614   23448945.4884
        -0.000          -0.000
 -15597770.061 9 -12121774.30847  22239124.525    22239124.0654   22239134.7274
        -0.000          -0.000
    899693.909 9    717200.60548  21806984.117    21806983.1604   21806993.6754
        -0.000          -0.000
 -11348605.254 9  -8822824.13846  23179216.307    23179215.7834   23179230.3134
        -0.000          -0.000
 -14947892.728 9 -11622566.99748  21042296.133    21042296.0124   21042306.1714
        -0.000          -0.000
  14176071.821 9  11039448.59146  23856919.161    23856918.4674   23856933.8274
        -0.000          -0.000
 01  1 16 21 57  0.0000000  0  7  7 26  9  2 24  4  8                0.000000025
   2597630.637 9   2034236.97548  21249074.025    21249073.0934   21249082.9434
        -0.000          -0.000
   4568075.458 9   3572574.37046  23460614.538    23460614.5644   23460627.3594
        -0.000          -0.000
 -15672908.340 9 -12180323.49847  22224825.969    22224825.5334   22224836.3574
        -0.000          -0.000
    920170.753 9    733156.54248  21810880.721    21810879.8024   21810890.3524
        -0.000          -0.000
 -11450977.654 9  -8902594.66846  23159735.357    23159734.8604   23159749.2114
        -0.000          -0.000
 -15011508.519 9 -11672137.68048  21030190.448    21030190.2724   21030200.4374
        -0.000          -0.000
  14285157.487 9  11124450.06146  23877677.826    23877676.9184   23877692.5694
        -0.000          -0.000
 01  1 16 21 57 30.0000000  0  7  7 26  9  2 24  4  8                0.000000025
   2649797.931 9   2074886.78348  21259001.190    21259000.2504   21259010.0774
        -0.000          -0.000
   4629684.231 9   3620581.11546  23472338.605    23472338.5084   23472351.2134
        -0.000          -0.000
 -15747699.619 9 -12238602.32447  22210593.732    22210593.2474   22210604.0694
        -0.000          -0.000
    940838.416 9    749261.16948  21814813.646    21814812.7194   21814823.3254
        -0.000          -0.000
 -11553217.525 9  -8982261.91446  23140279.631    23140279.0594   23140293.3714
        -0.000          -0.000
 -15074656.542 9 -11721343.87148  21018173.715    21018173.5514   21018183.7154
        -0.000          -0.000
  14394387.972 9  11209564.43646  23898464.134    23898463.0894   23898478.7114
        -0.000          -0.000
 01  1 16 21 58  0.0000000  0  7  7 26  9  2 24  4  8                0.000000024
   2702137.260 9   2115670.63848  21268961.032    21268960.0654   21268969.9344
        -0.000          -0.000
   4691511.184 9   3668757.85146  23484103.930    23484103.8524   23484116.6454
        -0.000          -0.000
 -15822141.093 9 -12296608.59147  22196427.748    22196427.3634   22196438.0604
        -0.000          -0.000
    961698.640 9    765515.83648  21818783.209    21818782.3514   21818792.9164
        -0.000          -0.000
 -11655321.082 9  -9061822.97746  23120849.847    23120849.2704   23120863.5194
        -0.000          -0.000
 -15137333.913 9 -11770183.32748  21006246.546    21006246.3884   21006256.5284
        -0.000          -0.000
  14503761.443 9  11294790.20246  23919277.401    23919276.3994   23919292.1694
        -0.000          -0.000
 01  1 16 21 58 30.0000000  0  7  7 26  9  2 24  4  8                0.000000024
   2754646.169 9   2156586.63548  21278953.125    21278952.1984   21278962.0574
        -0.000          -0.000
   4753552.887 9   3717101.93346  23495910.191    23495910.0704   23495922.9884
        -0.000          -0.000
 -15896231.005 9 -12354340.87847  22182328.984    22182328.4544   22182339.2454
        -0.000          -0.000
    982751.804 9    781920.85448  21822789.635    21822788.7084   21822799.2154
        -0.000          -0.000
 -11757286.575 9  -9141276.48946  23101446.311    23101445.7424   23101459.9424
        -0.000          -0.000
 -15199538.530 9 -11818654.40848  20994409.374    20994409.2134   20994419.3274
        -0.000          -0.000
  14613275.475 8  11380125.49045  23940117.510    23940116.4334   23940132.2524
        -0.000          -0.000
 01  1 16 21 59  0.0000000  0  7  7 26  9  2 24  4  8                0.000000023
   2807323.661 9   2197633.99348  21288977.400    21288976.4684   21288986.3084
        -0.000          -0.000
   4815806.985 9   3765611.51346  23507756.692    23507756.5284   23507769.6824
        -0.000          -0.000
 -15969966.437 9 -12411796.99047  22168297.446    22168296.9984   22168307.6084
        -0.000          -0.000
   1003999.580 9    798477.52448  21826832.995    21826832.0884   21826842.6064
        -0.000          -0.000
 -11859110.337 9  -9220619.53846  23082069.745    23082069.2164   23082083.3804
        -0.000          -0.000
 -15261267.262 9 -11866754.66648  20982662.713    20982662.5654   20982672.6714
        -0.000          -0.000
  14722928.315 8  11465568.94546  23960984.001    23960982.9284   23960998.9424
        -0.000          -0.000
 01  1 16 21 59 30.0000000  0  7  7 26  9  2 24  4  8                0.000000022
   2860168.251 9   2238811.55548  21299033.405    21299032.4674   21299042.3374
        -0.000          -0.000
   4878270.898 9   3814284.60146  23519643.151    23519643.0894   23519656.2964
        -0.000          -0.000
 -16043344.827 9 -12468974.84247  22154333.929    22154333.4644   22154344.1894
        -0.000          -0.000
   1025443.222 9    815186.82448  21830913.665    21830912.7334   21830923.2634
        -0.000          -0.000
 -11960789.060 9  -9299849.58146  23062720.789    23062720.2014   23062734.4214
        -0.000          -0.000
 -15322517.394 9 -11914481.99248  20971007.143    20971007.0244   20971017.0864
        -0.000          -0.000
  14832718.087 9  11551119.10146  23981876.234    23981875.3234   23981891.3184
        -0.000          -0.000
 01  1 16 22  0  0.0000000  0  7  7 26  9  2 24  4  8                0.000000022
   2913177.431 9   2280117.36848  21309120.697    21309119.7834   21309129.6694
        -0.000          -0.000
   4940940.987 9   3863118.33846  23531569.034    23531568.9244   23531582.0854
        -0.000          -0.000
 -16116364.399 9 -12525873.12747  22140438.716    22140438.2634   22140448.8944
        -0.000          -0.000
   1047083.078 9    832049.01548  21835031.639    21835030.6834   21835041.2514
        -0.000          -0.000
 -12062320.072 9  -9378964.55346  23043399.957    23043399.3674   23043413.5644
        -0.000          -0.000
 -15383287.129 9 -11961834.98348  20959443.039    20959442.8904   20959452.9174
        -0.000          -0.000
  14942641.700 9  11636773.49346  24002794.348    24002793.2104   24002809.5724
        -0.000          -0.000
 01  1 16 22  0 30.0000000  0  7  7 26  9  2 24  4  8                0.000000022
   2966349.704 9   2321550.26648  21319239.087    21319238.1884   21319248.0324
        -0.000          -0.000
   5003814.932 9   3912110.93046  23543533.720    23543533.6104   23543546.6844
        -0.000          -0.000
 -16189022.282 9 -12582489.57147  22126612.357    22126611.8564   22126622.5014
        -0.000          -0.000
   1068920.624 9    849065.25048  21839187.165    21839186.2464   21839196.8824
        -0.000          -0.000
 -12163700.705 9  -9457962.34046  23024107.723    23024107.1834   23024121.3384
        -0.000          -0.000
 -15443573.690 9 -12008811.47748  20947970.868    20947970.7124   20947980.7144
        -0.000          -0.000
  15052697.648 9  11722531.09046  24023737.504    24023736.4624   24023752.6644
        -0.000          -0.000
 01  1 16 22  1  0.0000000  0  7  7 26  9  2 24  4  8                0.000000022
   3019683.643 9   2363109.14148  21329388.242    21329387.3134   21329397.1524
        -0.000          -0.000
   5066889.785 9   3961260.07146  23555536.590    23555536.4414   23555549.5494
        -0.000          -0.000
 -16261316.036 9 -12638822.27047  22112855.190    22112854.6994   22112865.4074
        -0.000          -0.000
   1090956.880 9    866236.32548  21843380.482    21843379.6034   21843390.2824
        -0.000          -0.000
 -12264927.829 9  -9536840.53346  23004844.718    23004844.2284   23004858.2754
        -0.000          -0.000
 -15503374.479 9 -12055409.44848  20936591.076    20936590.9504   20936600.9374
        -0.000          -0.000
  15162883.482 9  11808389.86445  24044705.430    24044704.3974   24044720.6134
        -0.000          -0.000
 01  1 16 22  1 30.0000000  0  7  7 26  9  2 24  4  8                0.000000022
   3073176.851 9   2404792.11548  21339567.687    21339566.8054   21339576.6444
        -0.000          -0.000
   5130162.077 9   4010563.06246  23567577.067    23567576.8564   23567589.9324
        -0.000          -0.000
 -16333243.918 9 -12694869.89147  22099167.763    22099167.2354   22099177.9034
        -0.000          -0.000
   1113192.556 9    883562.79248  21847611.838    21847610.9444   21847621.6204
        -0.000          -0.000
 -12365998.836 9  -9615597.07146  22985611.491    22985610.9934   22985625.0584
        -0.000          -0.000
 -15562687.710 9 -12101627.51048  20925304.147    20925304.0144   20925313.9614
        -0.000          -0.000
  15273196.592 9  11894347.79945  24065697.694    24065696.6444   24065712.8494
        -0.000          -0.000
 01  1 16 22  2  0.0000000  0  7  7 26  9  2 24  4  8                0.000000021
   3126828.181 9   2446598.30848  21349777.265    21349776.3474   21349786.1774
        -0.000          -0.000
   5193629.597 9   4060018.17246  23579654.681    23579654.4254   23579667.6114
        -0.000          -0.000
 -16404803.125 9 -12750630.22747  22085550.384    22085549.8924   22085560.5454
        -0.000          -0.000
   1135629.246 9    901045.89448  21851881.396    21851880.4884   21851891.1894
        -0.000          -0.000
 -12466910.364 9  -9694229.33346  22966408.634    22966408.0274   22966422.1254
        -0.000          -0.000
 -15621510.315 9 -12147463.26148  20914110.567    20914110.4134   20914120.3634
        -0.000          -0.000
  15383635.316 9  11980403.62245  24086713.554    24086712.7254   24086728.8884
        -0.000          -0.000
 01  1 16 22  2 30.0000000  0  8  7 26  9  2  5 24  4  8             0.000000020
   3180635.762 9   2488526.25448  21360016.555    21360015.6494   21360025.5074
        -0.000          -0.000
   5257289.486 9   4109623.17346  23591768.808    23591768.5884   23591781.8964
        -0.000          -0.000
 -16475991.304 9 -12806101.44647  22072003.669    22072003.1904   22072013.8274
        -0.000          -0.000
   1158267.849 9    918686.32648  21856189.435    21856188.5254   21856199.2114
        -0.000          -0.000
  -1047869.135 8   -800457.23042         0.000           0.0004          0.0004
        -0.000          -0.000
 -12567659.605 9  -9772735.16346  22947236.572    22947236.0394   22947250.0474
        -0.000          -0.000
 -15679840.114 9 -12192915.00848  20903010.746    20903010.5874   20903020.5014
        -0.000          -0.000
  15494197.303 9  12066555.48145  24107753.028    24107752.1114   24107768.4374
        -0.000          -0.000
 01  1 16 22  3  0.0000000  0  8  7 26  9  2  5 24  4  8             0.000000020
   3234597.824 9   2530574.57848  21370285.292    21370284.3504   21370294.1784
        -0.000          -0.000
   5321138.586 9   4159375.61246  23603918.877    23603918.7164   23603932.0424
        -0.000          -0.000
 -16546806.363 9 -12861281.94048  22058527.982    22058527.5294   22058538.0144
        -0.000          -0.000
   1181109.198 9    936484.75148  21860536.073    21860535.1464   21860545.8284
        -0.000          -0.000
  -1124354.951 8   -860055.81452         0.000           0.0004          0.0005
        -0.000          -0.000
 -12668243.648 9  -9851112.25046  22928096.009    22928095.4604   22928109.4254
        -0.000          -0.000
 -15737674.680 9 -12237980.86448  20892005.192    20892005.0264   20892014.9064
        -0.000          -0.000
  15604880.287 9  12152801.63645  24128815.683    24128814.7094   24128831.0524
        -0.000          -0.000
 01  1 16 22  3 30.0000000  0  8  7 26  9  2  5 24  4  8             0.000000020
   3288712.362 9   2572741.71448  21380582.987    21380582.0214   21380591.8824
        -0.000          -0.000
   5385173.736 9   4209273.00546  23616104.512    23616104.2914   23616117.7174
        -0.000          -0.000
 -16617245.890 9 -12916169.77548  22045123.738    22045123.2094   22045133.8554
        -0.000          -0.000
   1204154.039 9    954441.72848  21864921.363    21864920.4804   21864931.1584
        -0.000          -0.000
  -1200905.939 9   -919704.90852         0.000           0.0004          0.0005
        -0.000          -0.000
 -12768660.147 9  -9929358.79547  22908987.318    22908986.7294   22909000.7534
        -0.000          -0.000
 -15795012.027 9 -12282659.27048  20881094.237    20881094.0794   20881103.9374
        -0.000          -0.000
  15715681.791 9  12239140.11345  24149900.713    24149899.5624   24149916.2214
        -0.000          -0.000
 01  1 16 22  4  0.0000000  0  8  7 26  9  2  5 24  4  8             0.000000021
   3342977.924 9   2615026.53248  21390909.361    21390908.4124   21390918.3074
        -0.000          -0.000
   5449392.300 9   4259313.33846  23628324.932    23628324.7024   23628338.3104
        -0.000          -0.000
 -16687307.434 9 -12970763.12448  22031791.478    22031791.0094   22031801.4484
        -0.000          -0.000
   1227403.515 9    972558.17148  21869345.699    21869344.7884   21869355.4474
        -0.000          -0.000
  -1277521.539 8   -700052.70142         0.000           0.0004          0.0004
        -0.000          -0.000
 -12868905.871 9 -10007472.25647  22889911.092    22889910.5754   22889924.5234
        -0.000          -0.000
 -15851849.904 9 -12326948.47748  20870278.308    20870278.1674   20870288.0054
        -0.000          -0.000
  15826599.864 8  12325569.49745  24171008.419    24171007.0424   24171023.4764
        -0.000          -0.000
 01  1 16 22  4 30.0000000  0  8  7 26  9  2  5 24  4  8             0.000000019
   3397392.976 9   2657427.82848  21401264.159    21401263.2344   21401273.2184
        -0.000          -0.000
   5513791.391 9   4309494.32946  23640579.792    23640579.5384   23640593.0674
        -0.000          -0.000
 -16756988.742 9 -13025060.13248  22018531.373    22018530.8984   22018541.4924
        -0.000          -0.000
   1250858.884 9    990835.05748  21873809.115    21873808.1784   21873818.9004
        -0.000          -0.000
  -1354201.569 8   -759802.64952         0.000           0.0004          0.0005
        -0.000          -0.000
 -12968977.705 9 -10085450.20347  22870867.977    22870867.4584   22870881.4324
        -0.000          -0.000
 -15908185.403 9 -12370846.21648  20859557.995    20859557.8394   20859567.6654
        -0.000          -0.000
  15937632.341 9  12412087.90945  24192137.174    24192136.0214   24192152.9864
        -0.000          -0.000
 01  1 16 22  5  0.0000000  0  8  7 26  9  2  5 24  4  8             0.000000018
   3451956.582 9   2699944.88448  21411647.286    21411646.3954   21411656.3504
        -0.000          -0.000
   5578369.093 9   4359814.50146  23652868.706    23652868.4604   23652881.9684
        -0.000          -0.000
 -16826286.424 9 -13079058.26048  22005344.485    22005344.0284   22005354.4314
        -0.000          -0.000
   1274521.894 9   1009273.73448  21878312.028    21878311.1304   21878321.9074
        -0.000          -0.000
  -1430945.08618   -819602.77745         0.000           0.0005   24989986.8334
        -0.000          -0.000
 -13068872.195 9 -10163289.96547  22851858.659    22851858.0984   22851872.0524
        -0.000          -0.000
 -15964015.716 9 -12414350.30148  20848933.812    20848933.6644   20848943.4884
        -0.000          -0.000
  16048777.578 9  12498694.29545  24213287.490    24213286.3304   24213303.1774
        -0.000          -0.000
 01  1 16 22  5 30.0000000  0  8  7 26  9  2  5 24  4  8             0.000000018
   3506666.800 9   2742576.18248  21422058.412    21422057.4684   21422067.3884
        -0.000          -0.000
   5643122.226 9   4410271.35546  23665190.801    23665190.6294   23665204.1294
        -0.000          -0.000
 -16895198.630 9 -13132755.98848  21992230.814    21992230.4154   21992240.8414
        -0.000          -0.000
   1298393.427 9   1027874.90748  21882854.667    21882853.7464   21882864.5084
        -0.000          -0.000
  -1507752.262 8   -879452.35945  24975354.650    24975355.3514   24975367.9734
        -0.000          -0.000
 -13168586.105 9 -10240989.00747  22832883.653    22832883.0754   22832897.0754
        -0.000          -0.000
 -16019338.794 9 -12457459.13448  20838406.172    20838406.0024   20838415.8184
        -0.000          -0.000
  16160033.429 8  12585386.81745  24234459.004    24234457.9034   24234475.1174
        -0.000          -0.000
 01  1 16 22  6  0.0000000  0  8  7 26  9  2  5 24  4  8             0.000000018
   3561521.172 9   2785319.80848  21432496.983    21432496.0224   21432505.9274
        -0.000          -0.000
   5708046.987 9   4460861.94046  23677545.707    23677545.4964   23677558.9234
        -0.000          -0.000
 -16963723.696 9 -13186152.04548  21979190.867    21979190.3844   21979200.8664
        -0.000          -0.000
   1322473.658 9   1046638.69148  21887437.036    21887436.1034   21887446.8434
        -0.000          -0.000
  -1584623.617 8   -939351.88545  24960726.384    24960724.9704   24960741.9134
        -0.000          -0.000
 -13268117.705 9 -10318545.98547  22813943.336    22813942.7564   22813956.7364
        -0.000          -0.000
 -16074152.982 9 -12500171.42048  20827975.324    20827975.1834   20827984.9624
        -0.000          -0.000
  16271396.788 8  12672163.17545  24255650.913    24255649.7724   24255666.7204
        -0.000          -0.000
 01  1 16 22  6 30.0000000  0  8  7 26  9  2  5 24  4  8             0.000000018
   3616518.451 9   2828174.79048  21442962.638    21442961.6674   21442971.5914
        -0.000          -0.000
   5773140.913 9   4511584.34446  23689932.916    23689932.5904   23689945.9854
        -0.000          -0.000
 -17031859.038 9 -13239244.45248  21966225.106    21966224.6994   21966235.0174
        -0.000          -0.000
   1346763.817 9   1065566.06348  21892059.310    21892058.3844   21892069.1394
        -0.000          -0.000
  -1661558.849 8   -999301.19445  24946085.987    24946083.7064   24946101.4694
        -0.000          -0.000
 -13367463.139 9 -10395957.88347  22795038.369    22795037.8144   22795051.8444
        -0.000          -0.000
 -16128455.939 9 -12542485.34648  20817641.784    20817641.6374   20817651.3944
        -0.000          -0.000
  16382865.600 8  12759021.65145  24276863.130    24276862.0994   24276879.1664
        -0.000          -0.000
 01  1 16 22  7  0.0000000  0  8  7 26  9  2  5 24  4  8             0.000000017
   3671657.336 9   2871140.11548  21453455.234    21453454.2534   21453464.2514
        -0.000          -0.000
   5838401.569 9   4562436.68546  23702351.644    23702351.4244   23702364.6394
        -0.000          -0.000
 -17099602.048 9 -13292031.10348  21953333.942    21953333.4644   21953343.9384
        -0.000          -0.000
   1371265.522 9   1084658.27548  21896721.834    21896720.9254   21896731.6974
        -0.000          -0.000
  -1738557.415 8  -1059299.87245  24931433.212    24931431.2204   24931448.5994
        -0.000          -0.000
 -13466619.613 9 -10473222.53847  22776169.439    22776168.8774   22776182.9094
        -0.000          -0.000
 -16182244.919 9 -12584398.76848  20807406.032    20807405.8734   20807415.6284
        -0.000          -0.000
  16494438.321 9  12845961.04845  24298094.672    24298093.8594   24298111.1244
        -0.000          -0.000
 01  1 16 22  7 30.0000000  0  8  7 26  9  2  5 24  4  8             0.000000017
   3726935.686 9   2914214.11748  21463974.377    21463973.3914   21463983.3594
        -0.000          -0.000
   5903825.551 9   4613416.27046  23714801.507    23714801.2854   23714814.5054
        -0.000          -0.000
 -17166950.531 9 -13344510.36948  21940517.886    21940517.4264   21940527.8004
        -0.000          -0.000
   1395979.371 9   1103915.80748  21901424.805    21901423.8704   21901434.6034
        -0.000          -0.000
  -1815619.336 8  -1119347.92545  24916768.648    24916766.5714   24916784.0684
        -0.000          -0.000
 -13565584.473 9 -10550337.87347  22757336.853    22757336.3944   22757350.3944
        -0.000          -0.000
 -16235518.082 9 -12625910.25248  20797268.410    20797268.2714   20797278.0234
        -0.000          -0.000
  16606112.253 8  12932979.39445  24319345.770    24319344.9284   24319362.3244
        -0.000          -0.000
 01  1 16 22  8  0.0000000  0  8  7 26  9  2  5 24  4  8             0.000000017
   3782352.129 9   2957395.71748  21474519.794    21474518.8304   21474528.7474
        -0.000          -0.000
   5969410.294 9   4664521.13446  23727281.914    23727281.7544   23727295.0294
        -0.000          -0.000
 -17233902.058 9 -13396680.29548  21927777.363    21927776.8964   21927787.3564
        -0.000          -0.000
   1420906.677 9   1123339.65648  21906168.266    21906167.3464   21906178.1024
        -0.000          -0.000
  -1892744.374 8  -1179445.17545  24902092.304    24902090.2524   24902107.8074
        -0.000          -0.000
 -13664354.529 9 -10627301.41347  22738541.390    22738540.9764   22738554.9614
        -0.000          -0.000
 -16288273.019 9 -12667017.92248  20787229.412    20787229.2914   20787238.9994
        -0.000          -0.000
  16717885.185 8  13020074.84145  24340615.759    24340614.9434   24340632.4794
        -0.000          -0.000
 01  1 16 22  8 30.0000000  0  8  7 26  9  2  5 24  4  8             0.000000017
   3837905.021 9   3000683.64648  21485091.216    21485090.2624   21485100.1654
        -0.000          -0.000
   6035152.798 9   4715748.92446  23739792.391    23739792.2344   23739805.5324
        -0.000          -0.000
 -17300454.580 9 -13448539.33548  21915112.881    21915112.3844   21915122.6434
        -0.000          -0.000
   1446048.175 9   1142930.40748  21910952.511    21910951.6444   21910962.4204
        -0.000          -0.000
  -1969932.364 8  -1239591.50645  24887403.920    24887402.3714   24887419.0734
        -0.000          -0.000
 -13762927.125 9 -10704111.06647  22719783.633    22719783.1324   22719797.0734
        -0.000          -0.000
 -16340507.907 9 -12707720.36648  20777289.398    20777289.3024   20777298.9704
        -0.000          -0.000
  16829755.102 9  13107245.86845  24361904.160    24361903.3744   24361920.6034
        -0.000          -0.000
 01  1 16 22  9  0.0000000  0  8  7 26  9  2  5 24  4  8             0.000000017
   3893592.100 9   3044076.13248  21495688.114    21495687.1854   21495697.0914
        -0.000          -0.000
   6101049.713 9   4767097.02646  23752332.231    23752332.0524   23752345.5034
        -0.000          -0.000
 -17366606.391 9 -13500086.10548  21902524.463    21902524.0284   21902534.3384
        -0.000          -0.000
   1471404.609 9   1162688.64448  21915777.797    21915776.9034   21915787.6494
        -0.000          -0.000
  -2047183.442 9  -1299787.03245  24872703.541    24872701.8064   24872718.6604
        -0.000          -0.000
 -13861299.709 9 -10780764.87547  22701063.843    22701063.3314   22701077.2014
        -0.000          -0.000
 -16392220.853 9 -12748016.09648  20767448.706    20767448.5854   20767458.2574
        -0.000          -0.000
  16941719.145 8  13194490.20345  24383210.464    24383209.6554   24383227.2034
        -0.000          -0.000
 01  1 16 22  9 30.0000000  0  8  7 26  9  2  5 24  4  8             0.000000017
   3949412.505 9   3087572.52148  21506310.530    21506309.5424   21506319.3994
        -0.000          -0.000
   6167098.758 9   4818563.66846  23764901.101    23764900.8914   23764914.4364
        -0.000          -0.000
 -17432354.583 9 -13551318.37148  21890012.939    21890012.4604   21890022.7644
        -0.000          -0.000
   1496977.448 9   1182615.51348  21920644.163    21920643.2744   21920653.9824
        -0.000          -0.000
  -2124496.890 8  -1360031.13745  24857991.138    24857989.8424   24858006.0134
        -0.000          -0.000
 -13959468.431 9 -10857259.82247  22682382.887    22682382.3734   22682396.1884
        -0.000          -0.000
 -16443409.019 9 -12787902.90948  20757707.891    20757707.7684   20757717.4154
        -0.000          -0.000
  17053775.885 8  13281806.84845  24404534.465    24404533.6724   24404551.1134
        -0.000          -0.000
 01  1 16 22 10  0.0000000  0  8  7 26  9  2  5 24  4  8             0.000000016
   4005364.070 9   3131171.10448  21516957.689    21516956.7414   21516966.7074
        -0.000          -0.000
   6233296.501 9   4870146.18446  23777498.283    23777498.0604   23777511.4744
        -0.000          -0.000
 -17497697.356 9 -13602234.72648  21877578.640    21877578.1184   21877588.3884
        -0.000          -0.000
   1522767.222 9   1202711.41248  21925551.892    21925550.9774   21925561.6254
        -0.000          -0.000
  -2201873.050 9  -1420324.11045  24843266.914    24843265.6854   24843281.7684
        -0.000          -0.000
 -14057431.130 9 -10933594.23447  22663741.094    22663740.5994   22663754.3524
        -0.000          -0.000
 -16494070.934 9 -12827379.65148  20748067.228    20748067.0824   20748076.7164
        -0.000          -0.000
  17165922.443 9  13369193.38745  24425875.538    24425874.5994   24425892.1694
        -0.000          -0.000
 01  1 16 22 10 30.0000000  0  8  7 26  9  2  5 24  4  8             0.000000016
   4061446.284 9   3174871.49148  21527629.788    21527628.8234   21527638.8554
        -0.000          -0.000
   6299640.991 9   4921843.03846  23790123.193    23790123.0004   23790136.5534
        -0.000          -0.000
 -17562631.280 9 -13652832.50748  21865221.947    21865221.4924   21865231.7664
        -0.000          -0.000
   1548776.045 9   1222977.99648  21930501.240    21930500.3214   21930510.9674
        -0.000          -0.000
  -2279310.624 9  -1480664.91945  24828530.940    24828529.7774   24828545.8364
        -0.000          -0.000
 -14155184.331 9 -11009765.40447  22645139.178    22645138.7074   22645152.3434
        -0.000          -0.000
 -16544203.654 9 -12866444.03748  20738527.207    20738527.0774   20738536.6914
        -0.000          -0.000
  17278157.497 8  13456648.94945  24447233.409    24447232.4134   24447249.9874
        -0.000          -0.000
 01  1 16 22 11  0.0000000  0  8  7 26  9  2  5 24  4  8             0.000000016
   4117656.453 9   3218671.59048  21538326.201    21538325.2874   21538335.3644
        -0.000          -0.000
   6366128.520 9   4973651.35746  23802775.509    23802775.3424   23802788.8894
        -0.000          -0.000
 -17627154.938 9 -13703110.59548  21852943.480    21852943.0034   21852953.2434
        -0.000          -0.000
   1575003.999 9   1243415.33348  21935492.280    21935491.3154   21935502.0114
        -0.000          -0.000
  -2356810.399 9  -1541054.19645  24813783.155    24813781.8764   24813798.1454
        -0.000          -0.000
 -14252725.760 9 -11085771.54447  22626577.575    22626577.0874   22626590.6754
        -0.000          -0.000
 -16593805.788 9 -12905094.97448  20729088.166    20729088.0414   20729097.6384
        -0.000          -0.000
  17390478.100 8  13544171.07845  24468607.461    24468606.6064   24468624.7574
        -0.000          -0.000
 01  1 16 22 11 30.0000000  0  8  7 26  9  2  5 24  4  8             0.000000017
   4173993.686 9   3262570.70448  21549046.906    21549045.9464   21549056.0014
        -0.000          -0.000
   6432756.899 9   5025569.43846  23815454.566    23815454.3744   23815468.0274
        -0.000          -0.000
 -17691265.617 9 -13753066.88348  21840743.570    21840743.0984   21840753.3744
        -0.000          -0.000
   1601452.660 9   1264024.64448  21940525.247    21940524.3314   21940535.0284
        -0.000          -0.000
  -2434371.362 8  -1601491.14745  24799023.706    24799022.5044   24799038.5684
        -0.000          -0.000
 -14350051.592 9 -11161609.69447  22608057.002    22608056.4984   22608070.0544
        -0.000          -0.000
 -16642874.780 9 -12943330.47648  20719750.613    20719750.4854   20719760.0644
        -0.000          -0.000
  17502882.548 9  13631758.70145  24489997.970    24489996.9974   24490014.3634
        -0.000          -0.000
 01  1 16 22 12  0.0000000  0  8  7 26  9  2  5 24  4  8             0.000000016
   4230455.628 9   3306566.99948  21559791.256    21559790.3284   21559800.3824
        -0.000          -0.000
   6499522.198 9   5077594.19846  23828159.776    23828159.5594   23828173.2764
        -0.000          -0.000
 -17754962.130 9 -13802700.43648  21828622.415    21828621.9404   21828632.2574
        -0.000          -0.000
   1628122.175 9   1284806.05248  21945600.277    21945599.3774   21945610.0484
        -0.000          -0.000
  -2511994.339 8  -1661976.42945  24784252.360    24784251.3604   24784267.2154
        -0.000          -0.000
 -14447159.969 9 -11237278.40247  22589577.872    22589577.3614   22589590.8214
        -0.000          -0.000
 -16691409.594 9 -12981149.73048  20710514.713    20710514.5794   20710524.1354
        -0.000          -0.000
  17615367.879 9  13719409.14245  24511403.287    24511402.1974   24511420.4914
        -0.000          -0.000
 01  1 16 22 12 30.0000000  0  8  7 26  9  2  5 24  4  8            -0.000000096
   4287046.180 9   3350663.50448  21570560.031    21570559.1434   21570569.2314
        -0.000          -0.000
   6566427.383 9   5129727.96846  23840891.515    23840891.3154   23840904.9914
        -0.000          -0.000
 -17818236.624 9 -13852005.16448  21816581.616    21816581.1854   21816591.3654
        -0.000          -0.000
   1655019.212 9   1305764.73948  21950718.726    21950717.7944   21950728.4844
        -0.000          -0.000
  -2589673.301 8  -1722505.30045  24769470.262    24769469.4144   24769485.3934
        -0.000          -0.000
 -14544042.356 9 -11312771.01447  22571141.577    22571141.1544   22571154.5744
        -0.000          -0.000
 -16739402.577 9 -13018546.77348  20701381.887    20701381.7724   20701391.3014
        -0.000          -0.000
  17727937.341 8  13807125.35545  24532825.166    24532823.9214   24532841.7114
        -0.000          -0.000
 01  1 16 22 13  0.0000000  0  8  7 26  9  2  5 24  4  8            -0.000000092
   4343762.012 9   3394857.63848  21581352.771    21581351.8914   21581361.9664
        -0.000          -0.000
   6633467.617 9   5181966.95146  23853648.911    23853648.6934   23853662.5924
        -0.000          -0.000
 -17881088.744 9 -13900980.75348  21804621.221    21804620.7354   21804630.9634
        -0.000          -0.000
   1682142.817 9   1326899.98648  21955880.230    21955879.3114   21955890.0704
        -0.000          -0.000
  -2667409.860 8  -1783079.06945  24754677.485    24754676.3154   24754692.5704
        -0.000          -0.000
 -14640697.667 9 -11388086.68547  22552748.568    22552748.1484   22552761.5054
        -0.000          -0.000
 -16786853.271 9 -13055521.25248  20692352.297    20692352.1634   20692361.6694
        -0.000          -0.000
  17840586.996 9  13894903.84645  24554261.814    24554260.5884   24554279.0534
        -0.000          -0.000
 01  1 16 22 13 30.0000000  0  8  7 26  9  2  5 24  4  8            -0.000000090
   4400595.812 9   3439143.69648  21592167.957    21592167.0044   21592177.0744
        -0.000          -0.000
   6700634.140 9   5234304.34446  23866430.304    23866430.1044   23866444.0874
        -0.000          -0.000
 -17943521.997 9 -13949629.96748  21792740.512    21792740.0304   21792750.2064
        -0.000          -0.000
   1709488.124 9   1348207.98248  21961083.829    21961082.9494   21961093.7424
        -0.000          -0.000
  -2745209.515 8  -1843702.00545  24739872.518    24739871.4244   24739887.5144
        -0.000          -0.000
 -14737128.585 9 -11463227.51647  22534398.287    22534397.8214   22534411.1394
        -0.000          -0.000
 -16833765.955 9 -13092076.50448  20683425.043    20683424.9234   20683434.4184
        -0.000          -0.000
  17953308.720 8  13982738.62545  24575712.334    24575711.1594   24575729.3004
        -0.000          -0.000
 01  1 16 22 14  0.0000000  0  8  7 26  9  2  5 24  4  8            -0.000000088
   4457546.656 9   3483520.95248  21603005.288    21603004.3714   21603014.4904
        -0.000          -0.000
   6767924.811 9   5286738.49146  23879235.504    23879235.2694   23879249.1294
        -0.000          -0.000
 -18005533.212 9 -13997950.30748  21780940.071    21780939.6094   21780949.7774
        -0.000          -0.000
   1737057.168 9   1369690.31548  21966330.012    21966329.1574   21966339.9184
        -0.000          -0.000
  -2823071.230 8  -1904373.33545  24725055.877    24725054.8014   24725070.8644
        -0.000          -0.000
 -14833331.544 9 -11538190.72147  22516091.396    22516090.8954   22516104.1894
        -0.000          -0.000
 -16880137.688 9 -13128210.23848  20674600.721    20674600.5924   20674610.0864
        -0.000          -0.000
  18066101.236 9  14070628.49645  24597176.254    24597175.3384   24597193.7514
        -0.000          -0.000
 01  1 16 22 14 30.0000000  0  8  7 26  9  2  5 24  4  8            -0.000000087
   4514613.185 9   3527988.35248  21613864.662    21613863.7534   21613873.8794
        -0.000          -0.000
   6835337.024 9   5339267.33246  23892063.756    23892063.4794   23892077.4094
        -0.000          -0.000
 -18067120.148 9 -14045940.05448  21769220.471    21769219.9834   21769230.0794
        -0.000          -0.000
   1764850.974 9   1391347.79448  21971619.104    21971618.2154   21971628.9004
        -0.000          -0.000
  -2900994.646 8  -1965092.75945  24710227.388    24710226.3764   24710242.3584
        -0.000          -0.000
 -14929303.555 9 -11612973.97147  22497828.406    22497827.9084   22497841.1504
        -0.000          -0.000
 -16925966.435 9 -13163920.87248  20665879.745    20665879.6194   20665889.1214
        -0.000          -0.000
  18178962.301 8  14158571.76645  24618653.162    24618652.1814   24618670.4874
        -0.000          -0.000
 01  1 16 22 15  0.0000000  0  8  7 26  9  2  5 24  4  8            -0.000000086
   4571794.780 9   3572545.41548  21624746.062    21624745.1204   21624755.2484
        -0.000          -0.000
   6902868.650 9   5391889.21946  23904914.765    23904914.5624   23904928.4454
        -0.000          -0.000
 -18128280.087 9 -14093597.07348  21757582.030    21757581.5804   21757591.6384
        -0.000          -0.000
   1792871.212 9   1413181.70148  21976951.285    21976950.3544   21976961.0944
        -0.000          -0.000
  -2978978.775 8  -2025859.49445  24695387.342    24695386.3704   24695402.2154
        -0.000          -0.000
 -15025041.180 9 -11687574.60247  22479610.062    22479609.5804   22479622.7324
        -0.000          -0.000
 -16971249.474 9 -13199206.28148  20657262.606    20657262.4654   20657271.9774
        -0.000          -0.000
  18291890.438 8  14246567.34345  24640143.200    24640142.1844   24640160.4434
        -0.000          -0.000
 01  1 16 22 15 30.0000000  0  8  7 26  9  2  5 24  4  8            -0.000000086
   4629090.118 9   3617191.10548  21635649.054    21635648.0834   21635658.2614
        -0.000          -0.000
   6970517.026 9   5444602.09046  23917788.002    23917787.7014   23917801.5624
        -0.000          -0.000
 -18189010.541 9 -14140919.41048  21746025.336    21746024.8604   21746034.9964
        -0.000          -0.000
   1821119.190 9   1435193.06648  21982326.674    21982325.7634   21982336.5764
        -0.000          -0.000
  -3057022.808 8  -2086672.91345  24680535.899    24680534.9914   24680550.7744
        -0.000          -0.000
 -15120541.276 9 -11761990.13347  22461436.906    22461436.4314   22461449.5134
        -0.000          -0.000
 -17015984.731 9 -13234064.84748  20648749.680    20648749.5484   20648759.0424
        -0.000          -0.000
  18404883.909 8  14334613.76245  24661645.338    24661644.3784   24661662.7294
        -0.000          -0.000
 01  1 16 22 16  0.0000000  0  8  7 26  9  2  5 24  4  8            -0.000000087
   4686499.668 9   3661925.79648  21646573.749    21646572.8194   21646582.9234
        -0.000          -0.000
   7038281.346 9   5497405.31046  23930683.066    23930682.9334   23930696.7534
        -0.000          -0.000
 -18249307.284 9 -14187903.81448  21734551.225    21734550.7344   21734560.7664
        -0.000          -0.000
   1849597.939 9   1457384.27148  21987745.955    21987745.0814   21987755.9794
        -0.000          -0.000
  -3135124.472 8  -2147531.22445  24665673.566    24665672.6114   24665688.4864
        -0.000          -0.000
 -15215798.685 9 -11836216.56647  22443309.929    22443309.4404   22443322.5544
        -0.000          -0.000
 -17060168.298 9 -13268493.52548  20640341.804    20640341.6394   20640351.1144
        -0.000          -0.000
  18517942.353 9  14422710.78345  24683159.648    24683159.0724   24683177.5624
        -0.000          -0.000
 01  1 16 22 16 30.0000000  0  8  7 26  9  2  5 24  4  8            -0.000000085
   4744020.438 9   3706747.14048  21657519.558    21657518.6524   21657528.7394
        -0.000          -0.000
   7106157.365 9   5550295.54446  23943599.681    23943599.3914   23943613.3754
        -0.000          -0.000
 -18309169.731 9 -14234549.78748  21723159.681    21723159.2204   21723169.3294
        -0.000          -0.000
   1878307.014 9   1479754.95548  21993209.115    21993208.2294   21993219.1424
        -0.000          -0.000
  -3213285.030 8  -2208435.38645  24650799.878    24650799.0774   24650814.9254
        -0.000          -0.000
 -15310812.055 9 -11910252.83947  22425229.320    22425228.8784   22425242.0184
        -0.000          -0.000
 -17103800.025 9 -13302492.20648  20632038.872    20632038.7274   20632048.1794
        -0.000          -0.000
  18631061.999 8  14510855.56545  24704686.039    24704685.3224   24704703.7164
        -0.000          -0.000
 01  1 16 22 17  0.0000000  0  8  7 26  9  2  5 24  4  8            -0.000000085
   4801650.395 9   3751653.56248  21668486.201    21668485.3004   21668495.4494
        -0.000          -0.000
   7174141.569 9   5603270.11046  23956536.670    23956536.4854   23956550.4364
        -0.000          -0.000
 -18368596.108 9 -14280855.98448  21711851.109    21711850.6784   21711860.6014
        -0.000          -0.000
   1907246.958 9   1502305.53748  21998716.171    21998715.3164   21998726.2354
        -0.000          -0.000
  -3291504.479 8  -2269385.44045  24635914.946    24635914.0234   24635930.0964
        -0.000          -0.000
 -15405578.627 9 -11984096.79947  22407195.764    22407195.2924   22407208.3844
        -0.000          -0.000
 -17146878.343 9 -13336059.65848  20623841.211    20623841.1024   20623850.5384
        -0.000          -0.000
  18744240.473 8  14599046.02145  24726223.454    24726222.5214   24726241.6344
        -0.000          -0.000
 01  1 16 22 17 30.0000000  0  8  7 26  9  2  5 24  4  8            -0.000000084
   4859388.814 9   3796644.50648  21679473.472    21679472.5634   21679482.6834
        -0.000          -0.000
   7242231.762 9   5656327.23946  23969493.942    23969493.6954   23969507.8714
        -0.000          -0.000
 -18427583.598 9 -14326820.17948  21700626.200    21700625.7104   21700635.7124
        -0.000          -0.000
   1936419.353 9   1525037.24248  22004267.468    22004266.6434   22004277.5434
        -0.000          -0.000
  -3369781.800 8  -2330380.56945  24621019.164    24621018.1044   24621034.2534
        -0.000          -0.000
 -15500094.983 9 -12057745.78647  22389209.800    22389209.3134   22389222.3874
        -0.000          -0.000
 -17189400.863 9 -13369194.02849  20615749.381    20615749.2844   20615758.7224
        -0.000          -0.000
  18857475.853 8  14687280.94045  24747771.836    24747770.9754   24747789.7544
        -0.000          -0.000
 01  1 16 22 18  0.0000000  0  8  7 26  9  2  5 24  4  8            -0.000000082
   4917234.139 9   3841718.74648  21690481.098    21690480.1734   21690490.3534
        -0.000          -0.000
   7310425.285 9   5709464.88646  23982470.862    23982470.6014   23982484.7104
        -0.000          -0.000
 -18486130.196 9 -14372440.84148  21689485.068    21689484.6324   21689494.5074
        -0.000          -0.000
   1965825.171 9   1547950.83748  22009863.382    22009862.4994   22009873.2894
        -0.000          -0.000
  -3448116.547 8  -2391420.48745  24606112.540    24606111.5834   24606127.5934
        -0.000          -0.000
 -15594358.310 9 -12131197.61447  22371271.888    22371271.4414   22371284.5344
        -0.000          -0.000
 -17231365.957 9 -13401894.04749  20607763.620    20607763.5324   20607772.9654
        -0.000          -0.000
  18970766.223 8  14775558.65245  24769330.545    24769329.6984   24769348.9194
        -0.000          -0.000
 01  1 16 22 18 30.0000000  0  8  7 26  9  2  5 24  4  8            -0.000000082
   4975183.865 9   3886874.33148  21701508.605    21701507.7094   21701517.8724
        -0.000          -0.000
   7378717.917 9   5762679.78646  23995466.726    23995466.4844   23995480.5004
        -0.000          -0.000
 -18544234.901 9 -14417717.15248  21678428.023    21678427.5574   21678437.5454
        -0.000          -0.000
   1995464.300 9   1571046.23548  22015503.558    22015502.6554   22015513.4584
        -0.000          -0.000
  -3526509.450 9  -2452505.72745  24591194.900    24591193.9204   24591209.8264
        -0.000          -0.000
 -15688366.542 9 -12204450.65447  22353382.608    22353382.2254   22353395.2354
        -0.000          -0.000
 -17272772.757 9 -13434159.03849  20599884.135    20599884.0574   20599893.4664
        -0.000          -0.000
  19084108.315 8  14863876.58945  24790899.197    24790898.3564   24790917.6014
        -0.000          -0.000
 01  1 16 22 19  0.0000000  0  8  7 26  9  2  5 24  4  8            -0.000000082
   5033237.793 9   3932111.11548  21712555.928    21712555.0514   21712565.2224
        -0.000          -0.000
   7447108.269 9   5815970.77146  24008480.849    24008480.7044   24008495.0564
        -0.000          -0.000
 -18601894.209 9 -14462646.42848  21667455.784    21667455.3334   21667465.1874
        -0.000          -0.000
   2025338.911 9   1594325.12448  22021188.606    22021187.6894   22021198.4684
        -0.000          -0.000
  -3604958.891 9  -2513635.03045  24576266.418    24576265.4854   24576281.2564
        -0.000          -0.000
 -15782116.138 9 -12277502.15847  22335542.598    22335542.2164   22335555.1374
        -0.000          -0.000
 -17313618.448 9 -13465986.79649  20592111.450    20592111.3284   20592120.7064
        -0.000          -0.000
  19197500.944 8  14952234.03845  24812477.578    24812476.6394   24812495.7524
        -0.000          -0.000
 01  1 16 22 19 30.0000000  0  8  7 26  9  2  5 24  4  8            -0.000000081
   5091394.062 9   3977427.64448  21723622.801    21723621.8894   21723632.0764
        -0.000          -0.000
   7515592.962 9   5869335.33146  24021513.272    24021513.0424   24021527.3694
        -0.000          -0.000
 -18659106.516 9 -14507227.36748  21656568.561    21656568.1104   21656578.0344
        -0.000          -0.000
   2055449.610 9   1617787.98548  22026918.542    22026917.5824   22026928.4444
        -0.000          -0.000
  -3683465.001 9  -2574808.47445  24561327.223    24561326.2384   24561341.8624
        -0.000          -0.000
 -15875604.432 9 -12350350.05347  22317752.303    22317751.9024   22317764.7704
        -0.000          -0.000
 -17353901.690 9 -13497376.29349  20584445.752    20584445.6654   20584454.9974
        -0.000          -0.000
  19310941.635 8  15040628.75245  24834064.999    24834064.0154   24834083.5424
        -0.000          -0.000
 01  1 16 22 20  0.0000000  0  8  7 26  9  2  5 24  4  8            -0.000000028
   5149646.901 9   4022819.42248  21734707.947    21734707.0154   21734717.2254
        -0.000          -0.000
   7584164.985 9   5922767.88646  24034562.084    24034561.9384   24034576.4014
        -0.000          -0.000
 -18715873.888 9 -14551461.62848  21645766.052    21645765.6084   21645775.4984
        -0.000          -0.000
   2085793.088 9   1641432.24548  22032692.650    22032691.7154   22032702.6744
        -0.000          -0.000
  -3762031.824 9  -2636029.22645  24546376.388    24546375.4894   24546390.9494
        -0.000          -0.000
 -15968832.613 9 -12422995.24547  22300011.490    22300011.0544   22300023.9224
        -0.000          -0.000
 -17393624.979 9 -13528329.45649  20576886.640    20576886.5284   20576895.8564
        -0.000          -0.000
  19424423.992 8  15129056.13645  24855660.238    24855659.4344   24855678.1344
        -0.000          -0.000
 01  1 16 22 20 30.0000000  0  8  7 26  9  2  5 24  4  8            -0.000000035
   5207993.831 9   4068284.52748  21745810.972    21745810.0894   21745820.2514
        -0.000          -0.000
   7652820.213 9   5976265.30446  24047626.968    24047626.8344   24047641.3134
        -0.000          -0.000
 -18772195.745 9 -14595348.73448  21635048.243    21635047.8684   21635057.7464
        -0.000          -0.000
   2116369.038 9   1665257.63048  22038511.002    22038510.1274   22038521.1174
        -0.000          -0.000
  -3840660.035 8  -2697297.82045  24531413.826    24531412.9174   24531428.4144
        -0.000          -0.000
 -16061798.969 9 -12495436.40547  22282320.564    22282320.0714   22282332.9234
        -0.000          -0.000
 -17432787.953 9 -13558846.01349  20569434.143    20569434.0374   20569443.3484
        -0.000          -0.000
  19537944.643 8  15217513.16145  24877262.762    24877262.0494   24877281.5994
        -0.000          -0.000
 01  1 16 22 21  0.0000000  0  8  7 26  9  2  5 24  4  8            -0.000000040
   5266443.368 9   4113829.58348  21756933.625    21756932.7394   21756942.9094
        -0.000          -0.000
   7721566.008 9   6029833.28846  24060709.003    24060708.7684   24060723.2564
        -0.000          -0.000
 -18828059.649 9 -14638878.98948  21624417.694    21624417.2584   21624427.1954
        -0.000          -0.000
   2147188.589 9   1689272.82348  22044375.703    22044374.8864   22044385.8734
        -0.000          -0.000
  -3919339.165 8  -2758606.07045  24516441.456    24516440.5124   24516456.3324
        -0.000          -0.000
 -16154490.644 9 -12567663.52947  22264681.793    22264681.3124   22264694.1034
        -0.000          -0.000
 -17471378.870 9 -13588916.81749  20562090.496    20562090.3914   20562099.6984
        -0.000          -0.000
  19651511.293 8  15306006.16545  24898874.099    24898873.4984   24898892.9804
        -0.000          -0.000
 01  1 16 22 21 30.0000000  0  8  7 26  9  2  5 24  4  8            -0.000000044
   5324992.924 9   4159452.57848  21768075.221    21768074.3464   21768084.5464
        -0.000          -0.000
   7790398.175 9   6083468.59046  24073807.388    24073807.2894   24073821.7294
        -0.000          -0.000
 -18883465.041 9 -14682051.97148  21613874.397    21613873.9864   21613883.8884
        -0.000          -0.000
   2178251.245 9   1713477.45648  22050286.822    22050285.9254   22050296.9164
        -0.000          -0.000
  -3998069.961 8  -2819954.56645  24501459.083    24501458.3144   24501474.0404
        -0.000          -0.000
 -16246905.981 9 -12639675.31147  22247095.644    22247095.1474   22247107.9024
        -0.000          -0.000
 -17509397.556 9 -13618541.72049  20554855.779    20554855.6504   20554864.9624
        -0.000          -0.000
  19765120.547 8  15394532.25045  24920493.559    24920492.8204   24920512.7874
        -0.000          -0.000
 01  1 16 22 22  0.0000000  0  8  7 26  9  2  5 24  4  8            -0.000000045
   5383639.405 9   4205151.10148  21779235.294    21779234.4104   21779244.6554
        -0.000          -0.000
   7859312.196 9   6137167.63846  24086921.529    24086921.3414   24086935.7974
        -0.000          -0.000
 -18938411.567 9 -14724867.39848  21603418.388    21603417.9654   21603427.7704
        -0.000          -0.000
   2209556.586 9   1737871.19348  22056244.099    22056243.1914   22056254.0774
        -0.000          -0.000
  -4076853.650 8  -2881344.28545  24486466.779    24486466.2624   24486481.5314
        -0.000          -0.000
 -16339043.851 9 -12711470.88247  22229562.274    22229561.7854   22229574.4724
        -0.000          -0.000
 -17546843.845 9 -13647720.60149  20547729.974    20547729.8434   20547739.1294
        -0.000          -0.000
  19878768.804 8  15483088.80645  24942120.593    24942119.9094   24942139.5984
        -0.000          -0.000
 01  1 16 22 22 30.0000000  0  8  7 26  9  2  5 24  4  8            -0.000000046
   5442380.145 9   4250923.08048  21790413.327    21790412.4224   21790422.6934
        -0.000          -0.000
   7928303.991 9   6190927.30746  24100050.350    24100050.1224   24100064.6384
        -0.000          -0.000
 -18992898.218 9 -14767324.48548  21593049.939    21593049.4534   21593059.1994
        -0.000          -0.000
   2241104.317 9   1762453.81148  22062247.519    22062246.5954   22062257.4084
        -0.000          -0.000
  -4155691.035 8  -2942775.88845  24471464.392    24471463.8784   24471479.3474
        -0.000          -0.000
 -16430902.536 9 -12783048.88947  22212082.013    22212081.5464   22212094.2254
        -0.000          -0.000
 -17583717.549 9 -13676453.30649  20540713.087    20540712.9704   20540722.2184
        -0.000          -0.000
  19992452.208 8  15571672.61745  24963754.081    24963753.5314   24963773.5444
        -0.000          -0.000
 01  1 16 22 23  0.0000000  0  8  7 26  9  2  5 24  4  8            -0.000000046
   5501213.178 9   4296766.98548  21801608.889    21801608.0114   21801618.2094
        -0.000          -0.000
   7997370.231 9   6244744.98746  24113193.331    24113193.1734   24113207.5974
        -0.000          -0.000
 -19046923.627 9 -14809422.15848  21582769.146    21582768.7304   21582778.4944
        -0.000          -0.000
   2272894.811 9   1787225.59048  22068297.087    22068296.1574   22068306.9994
        -0.000          -0.000
  -4234582.102 9  -3004249.35845  24456451.990    24456451.3114   24456466.4634
        -0.000          -0.000
 -16522479.796 9 -12854407.60447  22194655.251    22194654.8104   22194667.4684
        -0.000          -0.000
 -17620017.648 9 -13704739.05349  20533805.368    20533805.2524   20533814.4654
        -0.000          -0.000
  20106168.523 8  15660282.23845  24985394.206    24985393.2024   24985413.0814
        -0.000          -0.000
 01  1 16 22 23 30.0000000  0  8  7 26  9  2  5 24  4  8            -0.000000047
   5560135.808 9   4342680.69348  21812821.529    21812820.6584   21812830.9654
        -0.000          -0.000
   8066506.835 9   6298617.48546  24126349.740    24126349.5364   24126364.1354
        -0.000          -0.000
 -19100487.234 9 -14851159.97548  21572576.317    21572575.8274   21572585.6074
        -0.000          -0.000
   2304927.607 9   1812186.17848  22074392.756    22074391.8374   22074402.7144
        -0.000          -0.000
  -4313527.684 9  -3065765.29245  24441429.176    24441428.4614   24441443.1984
        -0.000          -0.000
 -16613773.987 9 -12925545.73547  22177282.406    22177281.9784   22177294.5994
        -0.000          -0.000
 -17655743.992 9 -13732577.70649  20527006.879    20527006.7394   20527015.9184
        -0.000          -0.000
  20219913.801 8  15748914.30045  25007039.866    25007038.9954   25007059.1584
        -0.000          -0.000
 01  1 16 22 24  0.0000000  0  8  7 26  9  2  5 24  4  8            -0.000000046
   5619148.525 9   4388664.61348  21824051.328    21824050.4344   21824060.6504
        -0.000          -0.000
   8135712.715 9   6352543.95146  24139519.245    24139519.1384   24139533.7854
        -0.000          -0.000
 -19153585.299 9 -14892535.04448  21562472.064    21562471.6414   21562481.3784
        -0.000          -0.000
   2337205.407 9   1837337.66748  22080535.048    22080534.1344   22080544.9934
        -0.000          -0.000
  -4392525.738 9  -3127322.10945  24426396.361    24426395.6184   24426410.3984
        -0.000          -0.000
 -16704780.708 9 -12996459.88547  22159964.369    22159963.8474   22159976.4374
        -0.000          -0.000
 -17690893.150 9 -13759966.59949  20520318.149    20520318.0194   20520327.1844
        -0.000          -0.000
  20333688.146 8  15837569.06745  25028690.831    25028689.9464   25028709.7134
        -0.000          -0.000
 01  1 16 22 24 30.0000000  0  8  7 26  9  2  5 24  4  8            -0.000000046
   5678250.090 9   4434717.76448  21835298.007    21835297.1284   21835307.3044
        -0.000          -0.000
   8204985.213 9   6406522.32746  24152701.543    24152701.3334   24152715.9184
        -0.000          -0.000
 -19206215.505 9 -14933545.53548  21552456.802    21552456.3654   21552466.0944
        -0.000          -0.000
   2369729.212 9   1862680.85448  22086724.214    22086723.2794   22086734.1024
        -0.000          -0.000
  -4471575.790 8  -3188919.41945  24411353.591    24411352.8624   24411367.5434
        -0.000          -0.000
 -16795497.014 9 -13067147.72447  22142701.418    22142700.9674   22142713.5094
        -0.000          -0.000
 -17725463.688 9 -13786904.61649  20513739.555    20513739.4244   20513748.6064
        -0.000          -0.000
  20447488.966 8  15926244.50245  25050346.773    25050346.1754   25050365.9294
        -0.000          -0.000
 01  1 16 22 25  0.0000000  0  8  7 26  9  2  5 24  4  8            -0.000000047
   5737438.781 9   4480838.80448  21846561.256    21846560.3714   21846570.5584
        -0.000          -0.000
   8274321.163 9   6460550.14546  24165895.871    24165895.6984   24165910.2414
        -0.000          -0.000
 -19258376.350 9 -14974190.30448  21542530.927    21542530.4674   21542540.1614
        -0.000          -0.000
   2402499.737 9   1888216.28548  22092960.214    22092959.3124   22092970.1454
        -0.000          -0.000
  -4550677.507 8  -3250556.95645  24396300.837    24396300.1644   24396314.8634
        -0.000          -0.000
 -16885920.367 9 -13137607.30347  22125494.358    22125493.8504   22125506.3284
        -0.000          -0.000
 -17759454.567 9 -13813390.94949  20507271.235    20507271.1224   20507280.2834
        -0.000          -0.000
  20561314.380 8  16014939.02745  25072007.606    25072007.1794   25072027.4174
        -0.000          -0.000
 01  1 16 22 25 30.0000000  0  8  7 26  9  2  5 24  4  8            -0.000000048
   5796712.912 9   4527026.42948  21857840.800    21857839.8724   21857850.0534
        -0.000          -0.000
   8343717.254 9   6514624.82346  24179101.674    24179101.4454   24179116.0824
        -0.000          -0.000
 -19310066.337 9 -15014468.15848  21532694.563    21532694.1264   21532703.8194
        -0.000          -0.000
   2435517.475 9   1913944.35748  22099243.334    22099242.3834   22099253.3264
        -0.000          -0.000
  -4629830.811 8  -3312234.65845  24381238.181    24381237.2424   24381252.5374
        -0.000          -0.000
 -16976048.337 9 -13207836.70847  22108343.435    22108342.9134   22108355.3264
        -0.000          -0.000
 -17792864.481 9 -13839424.57849  20500913.556    20500913.4134   20500922.5424
        -0.000          -0.000
  20675161.335 8  16103650.37045  25093672.677    25093671.9924   25093692.1714
        -0.000          -0.000
 01  1 16 22 26  0.0000000  0  8  7 26  9  2  5 24  4  8            -0.000000049
   5856071.881 9   4573280.14548  21869136.299    21869135.4234   21869145.7944
        -0.000          -0.000
   8413171.719 9   6568744.98646  24192318.502    24192318.3854   24192333.0634
        -0.000          -0.000
 -19361282.628 9 -15054376.90548  21522948.422    21522947.9734   21522957.6374
        -0.000          -0.000
   2468784.294 9   1939866.52948  22105573.833    22105572.9104   22105583.7794
        -0.000          -0.000
  -4709034.168 8  -3373951.33745  24366166.029    24366165.0154   24366180.6824
        -0.000          -0.000
 -17065876.532 9 -13277832.52647  22091249.592    22091249.0374   22091261.4284
        -0.000          -0.000
 -17825691.458 9 -13865003.96749  20494666.726    20494666.5984   20494675.7104
        -0.000          -0.000
  20789028.655 8  16192377.55745  25115341.122    25115340.3394   25115360.9574
        -0.000          -0.000
 01  1 16 22 26 30.0000000  0  8  7 26  9  2  5 24  4  8            -0.000000049
   5915512.921 9   4619597.82748  21880447.604    21880446.7524   21880457.0194
        -0.000          -0.000
   8482680.091 9   6622907.16846  24205545.752    24205545.5004   24205560.2544
        -0.000          -0.000
 -19412024.764 9 -15093916.17248  21513292.457    21513292.0284   21513301.7154
        -0.000          -0.000
   2502299.534 9   1965982.25148  22111951.612    22111950.6654   22111961.5404
        -0.000          -0.000
  -4788288.751 8  -3435707.98745  24351084.280    24351083.1964   24351098.9764
        -0.000          -0.000
 -17155404.574 9 -13347594.46747  22074212.824    22074212.2814   22074224.6254
        -0.000          -0.000
 -17857935.708 9 -13890129.28449  20488530.810    20488530.6854   20488539.7884
        -0.000          -0.000
  20902912.785 8  16281117.79545  25137013.408    25137012.4364   25137033.0224
        -0.000          -0.000
 01  1 16 22 27  0.0000000  0  8  7 26  9  2  5 24  4  8            -0.000000049
   5975035.558 9   4665979.08248  21891774.547    21891773.6504   21891783.8744
        -0.000          -0.000
   8552240.545 9   6677109.92746  24218782.840    24218782.6554   24218797.4714
        -0.000          -0.000
 -19462289.946 9 -15133083.78448  21503727.282    21503726.7904   21503736.4524
        -0.000          -0.000
   2536064.925 9   1992292.90048  22118376.992    22118376.0574   22118386.9314
        -0.000          -0.000
  -4867593.092 9  -3497503.43945  24335993.180    24335992.1234   24336007.8304
        -0.000          -0.000
 -17244628.344 9 -13417119.31447  22057233.923    22057233.4464   22057245.7814
        -0.000          -0.000
 -17889594.910 9 -13914798.71649  20482506.242    20482506.1064   20482515.1874
        -0.000          -0.000
  21016812.231 8  16369869.95445  25158687.795    25158687.1524   25158707.8304
        -0.000          -0.000
 01  1 16 22 27 30.0000000  0  8  7 26  9  2  5 24  4  8            -0.000000049
   6034637.788 9   4712422.37648  21903116.523    21903115.6094   21903125.7624
        -0.000          -0.000
   8621849.602 9   6731350.53746  24232029.027    24232028.8654   24232043.8714
        -0.000          -0.000
 -19512077.021 9 -15171878.85248  21494253.054    21494252.6184   21494262.2924
        -0.000          -0.000
   2570080.567 9   2018798.55148  22124849.998    22124849.0364   22124859.8884
        -0.000          -0.000
  -4946947.288 9  -3559337.76545  24320892.610    24320891.5374   24320906.9894
        -0.000          -0.000
 -17333546.095 9 -13486405.71047  22040313.397    22040312.8494   22040325.1614
        -0.000          -0.000
 -17920668.464 9 -13939011.80249  20476593.092    20476592.9504   20476602.0294
        -0.000          -0.000
  21130724.214 8  16458631.86145  25180365.303    25180364.5664   25180385.1824
        -0.000          -0.000
 01  1 16 22 28  0.0000000  0  8  7 26  9  2  5 24  4  8            -0.000000050
   6094318.566 9   4758926.84148  21914473.414    21914472.4964   21914482.8094
        -0.000          -0.000
   8691504.633 9   6785626.97446  24245284.041    24245283.9194   24245298.9374
        -0.000          -0.000
 -19561383.975 9 -15210299.80248  21484870.231    21484869.7644   21484879.3364
        -0.000          -0.000
   2604347.859 9   2045500.30348  22131370.902    22131369.9414   22131380.7344
        -0.000          -0.000
  -5026350.605 9  -3621210.37046  24305782.616    24305781.6684   24305796.8754
        -0.000          -0.000
 -17422154.244 9 -13555450.86447  22023451.757    22023451.1724   22023463.4584
        -0.000          -0.000
 -17951154.883 9 -13962767.38249  20470791.689    20470791.5264   20470800.5944
        -0.000          -0.000
  21244646.835 8  16547402.09545  25202044.517    25202043.7784   25202064.1284
        -0.000          -0.000
 01  1 16 22 28 30.0000000  0  8  7 26  9  2  5 24  4  8            -0.000000049
   6154077.475 9   4805492.19448  21925845.189    21925844.3034   21925854.6254
        -0.000          -0.000
   8761203.761 9   6839937.77646  24258547.591    24258547.3774   24258562.4604
        -0.000          -0.000
 -19610207.938 9 -15248344.39148  21475579.332    21475578.8764   21475588.5274
        -0.000          -0.000
   2638868.455 9   2072399.43748  22137939.969    22137939.0244   22137949.8404
        -0.000          -0.000
  -5105801.610 9  -3683120.13545  24290663.526    24290662.5454   24290677.5664
        -0.000          -0.000
 -17510449.686 9 -13624252.35247  22006649.543    22006649.0044   22006661.2354
        -0.000          -0.000
 -17981051.927 9 -13986063.71349  20465102.430    20465102.2654   20465111.3134
        -0.000          -0.000
  21358577.985 8  16636178.95454  25223725.609    25223720.4594          0.0005
        -0.000          -0.000
 01  1 16 22 29  0.0000000  0  8  7 26  9  2  5 24  4  8            -0.000000050
   6213911.629 9   4852116.17748  21937231.380    21937230.4014   21937240.6944
        -0.000          -0.000
   8830942.796 9   6894279.63746  24271818.578    24271818.2794   24271833.5464
        -0.000          -0.000
 -19658548.575 9 -15286012.37048  21466380.366    21466379.9044   21466389.4884
        -0.000          -0.000
   2673641.717 9   2099495.45648  22144557.126    22144556.2024   22144566.9994
        -0.000          -0.000
  -5185301.223 9  -3745067.75345  24275535.162    24275534.1884   24275549.1954
        -0.000          -0.000
 -17598430.618 9 -13692808.77447  21989907.183    21989906.6454   21989918.8414
        -0.000          -0.000
 -18010359.913 9 -14008901.03549  20459525.223    20459525.0864   20459534.1204
        -0.000          -0.000
  21472515.92518  16724961.01453         0.000           0.0005          0.0005
        -0.000          -0.000
 01  1 16 22 29 30.0000000  0  8  7 26  9  2  5 24  4  8            -0.000000050
   6273820.199 9   4898798.15748  21948631.600    21948630.6294   21948640.8914
        -0.000          -0.000
   8900718.927 9   6948650.43246  24285096.768    24285096.4984   24285111.7274
        -0.000          -0.000
 -19706403.861 9 -15323302.15048  21457273.771    21457273.3194   21457282.9474
        -0.000          -0.000
   2708668.810 9   2126789.26548  22151222.637    22151221.6984   22151232.5044
        -0.000          -0.000
  -5264848.768 9  -3807052.74345  24260397.717    24260396.7074   24260411.6804
        -0.000          -0.000
 -17686094.455 9 -13761118.10848  21973225.179    21973224.6734   21973236.8524
        -0.000          -0.000
 -18039077.477 9 -14031278.29449  20454060.439    20454060.2794   20454069.3134
        -0.000          -0.000
  21586457.62319  16813745.99253         0.000           0.0005          0.0005
        -0.000          -0.000
 01  1 16 22 30  0.0000000  0  8  7 26  9  2  5 24  4  8            -0.000000050
   6333803.325 9   4945538.22348  21960045.969    21960045.0574   21960055.2404
        -0.000          -0.000
   8970531.132 9   7003049.32145  24298381.709    24298381.5004   24298396.7854
        -0.000          -0.000
 -19753770.611 9 -15360211.26548  21448260.100    21448259.6594   21448269.2384
        -0.000          -0.000
   2743951.896 9   2154282.56547  22157936.782    22157935.8304   22157946.6824
        -0.000          -0.000
  -5344442.055 9  -3869073.38045  24245251.539    24245250.5534   24245265.3324
        -0.000          -0.000
 -17773437.069 9 -13829177.15048  21956604.318    21956603.8294   21956615.9604
        -0.000          -0.000
 -18067201.924 9 -14053193.38649  20448708.481    20448708.3244   20448717.3294
        -0.000          -0.000
  21700402.648 8   7109542.95442         0.000           0.0004          0.0004
        -0.000          -0.000
 01  1 16 22 30 30.0000000  0  8  7 26  9  2  5 24  4  8            -0.000000051
   6393857.902 9   4992333.96848  21971474.087    21971473.1064   21971483.3214
        -0.000          -0.000
   9040374.763 9   7057472.70945  24311672.592    24311672.3994   24311687.5844
        -0.000          -0.000
 -19800648.677 9 -15396739.57948  21439339.484    21439339.0444   21439348.6144
        -0.000          -0.000
   2779490.335 9   2181974.82347  22164699.464    22164698.5294   22164709.4404
        -0.000          -0.000
  -5424082.277 9  -3931130.57845  24230096.452    24230095.6144   24230110.1634
        -0.000          -0.000
 -17860457.100 9 -13896984.82848  21940044.858    21940044.3444   21940056.4124
        -0.000          -0.000
 -18094733.753 9 -14074646.70049  20443469.302    20443469.1314   20443478.1214
        -0.000          -0.000
  21814346.668 9   7198328.58952         0.000           0.0004          0.0005
        -0.000          -0.000
 01  1 16 22 31  0.0000000  0  8  7 26  9  2  5 24  4  8            -0.000000050
   6453984.082 9   5039185.51248  21982915.687    21982914.7354   21982924.9074
        -0.000          -0.000
   9110248.595 9   7111919.62945  24324969.345    24324969.1444   24324984.5014
        -0.000          -0.000
 -19847034.924 9 -15432884.66048  21430512.457    21430511.9764   21430521.5694
        -0.000          -0.000
   2815286.331 9   2209867.77647  22171511.250    22171510.3434   22171521.1774
        -0.000          -0.000
  -5503767.343 9  -3993222.72645  24214932.825    24214931.9714   24214946.4554
        -0.000          -0.000
 -17947150.304 9 -13964537.83948  21923547.582    21923547.0644   21923559.0794
        -0.000          -0.000
 -18121670.595 9 -14095636.38049  20438343.307    20438343.1504   20438352.1164
        -0.000          -0.000
  21928289.490 8   7287109.61452         0.000           0.0004          0.0005
        -0.000          -0.000
 01  1 16 22 31 30.0000000  0  8  7 26  9  2  5 24  4  8            -0.000000051
   6514178.650 9   5086090.34448  21994370.239    21994369.3054   21994379.6604
        -0.000          -0.000
   9180147.555 9   7166386.12445  24338270.928    24338270.7854   24338286.0024
        -0.000          -0.000
 -19892929.852 9 -15468646.90548  21421778.938    21421778.4824   21421787.9814
        -0.000          -0.000
   2851338.779 9   2237960.56547  22178371.844    22178370.8744   22178381.8174
        -0.000          -0.000
  -5583498.622 8  -4055350.89445  24199760.364    24199759.5554   24199773.9254
        -0.000          -0.000
 -18033516.276 9 -14031835.86748  21907112.581    21907112.0624   21907124.0294
        -0.000          -0.000
 -18148013.367 9 -14116163.15649  20433330.399    20433330.2404   20433339.2054
        -0.000          -0.000
  22042226.505 8   7198200.68842         0.000           0.0004          0.0004
        -0.000          -0.000
 01  1 16 22 32  0.0000000  0  8  7 26  9  2  5 24  4  8            -0.000000051
   6574442.282 9   5133049.00348  22005838.015    22005837.0764   22005847.3284
        -0.000          -0.000
   9250070.958 9   7220871.67845  24351577.042    24351576.8344   24351592.1764
        -0.000          -0.000
 -19938329.878 9 -15504023.50448  21413139.540    21413139.1024   21413148.5754
        -0.000          -0.000
   2887650.327 9   2266255.25147  22185281.680    22185280.7204   22185291.6654
        -0.000          -0.000
  -5663273.761 8  -4117513.20845  24184579.470    24184578.5854   24184593.1424
        -0.000          -0.000
 -18119549.984 9 -14098875.00048  21890740.731    21890740.2664   21890752.1764
        -0.000          -0.000
 -18173759.240 9 -14136224.81749  20428431.059    20428430.9024   20428439.8474
        -0.000          -0.000
  22156157.29917   7287012.25142         0.000           0.0005          0.0004
        -0.000          -0.000
 01  1 16 22 32 30.0000000  0  8  7 26  9  2  5 24  4  8            -0.000000051
   6634772.924 9   5180059.86848  22017318.547    22017317.6784   22017327.9944
        -0.000          -0.000
   9320015.276 9   7275373.48645  24364887.260    24364886.9794   24364902.5414
        -0.000          -0.000
 -19983233.592 9 -15539013.36348  21404594.718    21404594.1984   21404603.7004
        -0.000          -0.000
   2924220.944 9   2294751.80847  22192240.926    22192239.9524   22192250.8124
        -0.000          -0.000
  -5743092.857 8  -4179709.77245  24169390.198    24169389.2714   24169403.7994
        -0.000          -0.000
 -18205249.817 9 -14165653.96248  21874432.530    21874432.0364   21874443.9174
        -0.000          -0.000
 -18198907.726 9 -14155820.97749  20423645.400    20423645.2654   20423654.1794
        -0.000          -0.000
  22270079.894 9   7375911.36952         0.000           0.0004          0.0005
        -0.000          -0.000
 01  1 16 22 33  0.0000000  0  8  7 26  9  2  5 24  4  8            -0.000000050
   6695169.077 9   5227121.79648  22028811.743    22028810.7824   22028820.9934
        -0.000          -0.000
   9389977.364 9   7329889.18046  24378200.821    24378200.7014   24378216.0534
        -0.000          -0.000
 -20027639.767 9 -15573615.54048  21396144.413    21396143.9684   21396153.3854
        -0.000          -0.000
   2961051.059 9   2323450.55347  22199249.575    22199248.5904   22199259.4684
        -0.000          -0.000
  -5822955.681 9  -4241940.41345  24154192.692    24154191.7424   24154206.3214
        -0.000          -0.000
 -18290613.619 9 -14232171.08248  21858188.273    21858187.7724   21858199.5944
        -0.000          -0.000
 -18223458.326 9 -14174951.25249  20418973.547    20418973.3894   20418982.2984
        -0.000          -0.000
  22383991.624 8   7287816.71542         0.000           0.0004          0.0004
        -0.000          -0.000
 01  1 16 22 33 30.0000000  0  8  7 26  9  2  5 24  4  8            -0.000000050
   6755629.509 9   5274233.80148  22040316.975    22040316.0174   22040326.3224
        -0.000          -0.000
   9459954.535 9   7384416.59245  24391517.129    24391516.8644   24391532.5384
        -0.000          -0.000
 -20071546.657 9 -15607828.65248  21387789.202    21387788.7224   21387798.2254
        -0.000          -0.000
   2998141.720 9   2352352.33747  22206307.789    22206306.7444   22206317.5394
        -0.000          -0.000
  -5902861.688 9  -4304204.71945  24138987.038    24138986.1074   24139000.4494
        -0.000          -0.000
 -18375638.429 9 -14298424.05748  21842008.510    21842008.0034   21842019.7674
        -0.000          -0.000
 -18247409.964 9 -14193614.80249  20414415.673    20414415.5044   20414424.3854
        -0.000          -0.000
  22497890.092 8   7376570.36242         0.000           0.0004          0.0004
        -0.000          -0.000
 01  1 16 22 34  0.0000000  0  8  7 26  9  2  5 24  4  8            -0.000000051
   6816153.141 9   5321395.05448  22051834.126    22051833.2044   22051843.5744
        -0.000          -0.000
   9529944.040 9   7438953.64146  24404835.945    24404835.7434   24404851.3374
        -0.000          -0.000
 -20114952.622 9 -15641651.44348  21379529.252    21379528.7904   21379538.1734
        -0.000          -0.000
   3035493.703 9   2381457.74647  22213415.484    22213414.5534   22213425.4164
        -0.000          -0.000
  -5982810.248 9  -4366502.16845  24123773.300    24123772.4304   24123786.6614
        -0.000          -0.000
 -18460321.210 9 -14364410.50648  21825893.859    21825893.3194   21825905.0664
        -0.000          -0.000
 -18270761.650 9 -14211810.85449  20409971.930    20409971.7714   20409980.6184
        -0.000          -0.000
  22611773.451 7   7465318.46152         0.000           0.0004          0.0005
        -0.000          -0.000
 01  1 16 22 34 30.0000000  0  8  7 26  9  2  5 24  4  8            -0.000000051
   6876739.442 9   5368605.14047  22063363.316    22063362.3924   22063372.7684
        -0.000          -0.000
   9599943.931 9   7493498.76246  24418156.644    24418156.4714   24418171.8874
        -0.000          -0.000
 -20157855.270 9 -15675082.02548  21371365.132    21371364.6824   21371374.1844
        -0.000          -0.000
   3073108.649 9   2410768.07347  22220573.413    22220572.4674   22220583.3954
        -0.000          -0.000
  -6062799.860 9  -4428831.59345  24108551.710    24108550.8184   24108565.1234
        -0.000          -0.000
 -18544658.948 9 -14430128.09448  21809844.788    21809844.2894   21809855.9974
        -0.000          -0.000
 -18293511.667 9 -14229538.07949  20405642.689    20405642.5384   20405651.3554
        -0.000          -0.000
  22725641.102 8   1259640.646 1         0.000           0.000           0.000
        -0.000          -0.000
 01  1 16 22 35  0.0000000  0  8  7 26  9  2  5 24  4  8            -0.000000051
   6937386.055 9   5415862.23647  22074904.020    22074903.1124   22074913.3874
        -0.000          -0.000
   9669950.394 9   7548049.02946  24431478.611    24431478.5294   24431493.8824
        -0.000          -0.000
 -20200253.968 9 -15708119.93348  21363296.883    21363296.4384   21363305.7624
        -0.000          -0.000
   3110986.201 9   2440283.03247  22227781.311    22227780.3484   22227791.2544
        -0.000          -0.000
  -6142830.978 9  -4491193.34946  24093322.188    24093321.3414   24093335.6944
        -0.000          -0.000
 -18628649.887 9 -14495575.45048  21793861.756    21793861.2244   21793872.8794
        -0.000          -0.000
 -18315660.316 9 -14246796.69949  20401427.925    20401427.7764   20401436.5894
        -0.000          -0.000
  22839488.545 8   7465284.67342         0.000           0.0004          0.0004
        -0.000          -0.000
 01  1 16 22 35 30.0000000  0  8  7 26  9  2  5 24  4  8            -0.000000051
   6998092.654 9   5463166.06247  22086456.096    22086455.1554   22086465.5064
        -0.000          -0.000
   9739961.441 9   7602602.82046  24444801.429    24444801.2864   24444816.8784
        -0.000          -0.000
 -20242146.407 9 -15740763.33248  21355324.987    21355324.5274   21355333.9574
        -0.000          -0.000
   3149127.922 9   2470003.83447  22235039.387    22235038.4834   22235049.4324
        -0.000          -0.000
  -6222901.913 9  -4553586.10646  24078085.086    24078084.1994   24078098.6464
        -0.000          -0.000
 -18712290.531 9 -14560749.84148  21777945.421    21777944.8634   21777956.4724
        -0.000          -0.000
 -18337205.830 9 -14263585.34849  20397327.870    20397327.7544   20397336.5504
        -0.000          -0.000
  22953316.214 8   7553980.40052         0.000           0.0004          0.0005
        -0.000          -0.000
 01  1 16 22 36  0.0000000  0  8  7 26  9  2  5 24  4  8            -0.000000051
   7058857.771 9   5510515.49347  22098019.327    22098018.3904   22098028.8054
        -0.000          -0.000
   9809973.957 9   7657157.79345  24458124.579    24458124.3424   24458139.8754
        -0.000          -0.000
 -20283531.297 9 -15773011.25048  21347449.672    21347449.2294   21347458.5484
        -0.000          -0.000
   3187534.378 9   2499930.91047  22242347.959    22242347.0434   22242358.0374
        -0.000          -0.000
  -6303012.550 9  -4616009.79146  24062840.455    24062839.6134   24062854.0894
        -0.000          -0.000
 -18795578.413 9 -14625649.35948  21762096.103    21762095.6054   21762107.1684
        -0.000          -0.000
 -18358147.788 9 -14279903.69349  20393342.730    20393342.5834   20393351.3724
        -0.000          -0.000
  23067120.547 8   7642657.99944         0.000           0.0004   25548886.7074
        -0.000          -0.000
 01  1 16 22 36 30.0000000  0  8  7 26  9  2  5 24  4  8            -0.000000051
   7119680.010 9   5557909.41747  22109593.451    22109592.5184   22109602.9844
        -0.000          -0.000
   9879985.061 9   7711711.59145  24471447.368    24471447.0304   24471463.1004
        -0.000          -0.000
 -20324407.312 9 -15804862.62548  21339671.200    21339670.7244   21339680.1474
        -0.000          -0.000
   3226206.114 9   2530064.71947  22249707.042    22249706.0694   22249716.9764
        -0.000          -0.000
  -6383162.350 9  -4678464.00346  24047588.508    24047587.5724   24047602.0454
        -0.000          -0.000
 -18878511.525 9 -14690272.42948  21746314.371    21746313.8704   21746325.3934
        -0.000          -0.000
 -18378485.473 9 -14295751.18149  20389472.496    20389472.3624   20389481.1494
        -0.000          -0.000
  23180900.030 9   7731316.29944  25570512.233    25570513.7424   25570535.6264
        -0.000          -0.000
 01  1 16 22 37  0.0000000  0  8  7 26  9  2  5 24  4  8            -0.000000051
   7180558.350 9   5605347.07247  22121178.264    22121177.3484   22121187.6964
        -0.000          -0.000
   9949992.061 8   7766262.30445  24484769.466    24484769.3174   24484784.9334
        -0.000          -0.000
 -20364772.813 9 -15836316.21448  21331989.885    21331989.4114   21331998.7294
        -0.000          -0.000
   3265143.924 9   2560405.86047  22257116.676    22257115.6804   22257126.6454
        -0.000          -0.000
  -6463350.624 9  -4740948.20346  24032329.096    24032328.2054   24032342.6204
        -0.000          -0.000
 -18961087.069 9 -14754616.87448  21730600.627    21730600.1194   21730611.6184
        -0.000          -0.000
 -18398218.152 9 -14311127.23449  20385717.458    20385717.3024   20385726.0794
        -0.000          -0.000
  23294650.674 9   7819951.65345  25592159.149    25592160.7664   25592187.8344
        -0.000          -0.000
 01  1 16 22 37 30.0000000  0  8  7 26  9  2  5 24  4  8            -0.000000051
   7241491.846 9   5652827.70547  22132773.619    22132772.7004   22132782.9294
        -0.000          -0.000
  10019992.664 9   7820807.88345  24498090.143    24498090.0644   24498106.0964
        -0.000          -0.000
 -20404625.804 9 -15867370.43348  21324406.002    21324405.5514   21324414.8964
        -0.000          -0.000
   3304348.970 9   2590955.22647  22264577.011    22264576.0754   22264587.2034
        -0.000          -0.000
  -6543576.200 9  -4803461.47246  24017062.557    24017061.6244   24017075.9974
        -0.000          -0.000
 -19043302.031 9 -14818680.35248  21714955.537    21714955.0304   21714966.5174
        -0.000          -0.000
 -18417344.698 9 -14326030.98049  20382077.742    20382077.6214   20382086.3674
        -0.000          -0.000
  23408373.791 8   7908565.98744  25613800.663    25613797.8644   25613824.2394
        -0.000          -0.000
 01  1 16 22 38  0.0000000  0  8  7 26  9  2  5 24  4  8            -0.000000051
   7302479.721 9   5700350.70447  22144379.244    22144378.2564   22144388.5434
        -0.000          -0.000
  10089984.220 9   7875346.49245  24511409.326    24511409.0254   24511425.3574
        -0.000          -0.000
 -20443964.533 9 -15898023.93048  21316920.116    21316919.6244   21316928.9454
        -0.000          -0.000
   3343822.036 9   2621713.43247  22272088.516    22272087.6244   22272098.7704
        -0.000          -0.000
  -6623838.197 8  -4866003.10145  24001789.008    24001788.0984   24001802.3164
        -0.000          -0.000
 -19125153.536 9 -14882460.61648  21699379.610    21699379.1334   21699390.5734
        -0.000          -0.000
 -18435864.297 9 -14340461.77649  20378553.581    20378553.4414   20378562.1324
        -0.000          -0.000
  23522066.639 7   7997156.85554  25635436.485    25635436.4434          0.0005
        -0.000          -0.000
 01  1 16 22 38 30.0000000  0  7  7 26  9  2  5 24  4               -0.000000051
   7363519.977 9   5747914.51047  22155994.703    22155993.7654   22156004.1304
        -0.000          -0.000
  10159963.582 9   7929875.63245  24524726.226    24524726.0254   24524742.0344
        -0.000          -0.000
 -20482788.380 9 -15928276.22748  21309532.121    21309531.6684   21309540.9104
        -0.000          -0.000
   3383563.217 9   2652680.56447  22279651.134    22279650.1794   22279661.2074
        -0.000          -0.000
  -6704136.784 8  -4928573.24245  23986508.255    23986507.4684   23986521.4884
        -0.000          -0.000
 -19206639.738 9 -14945956.22948  21683873.183    21683872.7074   21683884.1184
        -0.000          -0.000
 -18453776.792 9 -14354419.51049  20375144.882    20375144.7414   20375153.4094
        -0.000          -0.000
 01  1 16 22 39  0.0000000  0  7  7 26  9  2  5 24  4               -0.000000051
   7424612.014 9   5795518.67847  22167620.044    22167619.1374   22167629.5034
        -0.000          -0.000
  10229928.064 8   7984393.12345  24538040.258    24538040.0684   24538056.2864
        -0.000          -0.000
 -20521095.372 9 -15958125.76948  21302242.486    21302242.0354   21302251.3214
        -0.000          -0.000
   3423573.624 9   2683857.48747  22287264.926    22287263.9094   22287274.9824
        -0.000          -0.000
  -6784470.707 8  -4991170.92345  23971220.830    23971220.0904   23971234.1934
        -0.000          -0.000
 -19287757.364 9 -15009164.63948  21668436.884    21668436.4044   21668447.8104
        -0.000          -0.000
 -18471081.196 9 -14367903.40649  20371851.936    20371851.7904   20371860.4464
        -0.000          -0.000
 01  1 16 22 39 30.0000000  0  7  7 26  9  2  5 24  4               -0.000000051
   7485754.209 9   5843161.92147  22179255.084    22179254.2014   22179264.5224
        -0.000          -0.000
  10299874.889 9   8038896.83145  24551350.783    24551350.4624   24551366.8284
        -0.000          -0.000
 -20558884.233 9 -15987571.57048  21295051.440    21295050.9834   21295060.3044
        -0.000          -0.000
   3463853.664 9   2715244.50247  22294929.896    22294928.9624   22294940.0994
        -0.000          -0.000
  -6864839.375 9  -5053795.66945  23955927.122    23955926.4274   23955940.3564
        -0.000          -0.000
 -19368504.013 9 -15072083.97648  21653071.231    21653070.7514   21653082.1194
        -0.000          -0.000
 -18487777.139 9 -14380913.17949  20368674.766    20368674.6304   20368683.2664
        -0.000          -0.000
 01  1 16 22 40  0.0000000  0  7  7 26  9  2  5 24  4               -0.000000050
   7546945.519 9   5890843.43247  22190899.555    22190898.5904   22190908.8364
        -0.000          -0.000
  10369801.306 9   8093384.63845  24564657.575    24564657.2414   24564673.8504
        -0.000          -0.000
 -20596153.682 9 -16016612.64748  21287959.251    21287958.8134   21287968.1074
        -0.000          -0.000
   3504403.852 9   2746842.02647  22302646.402    22302645.4304   22302656.5574
        -0.000          -0.000
  -6945242.186 9  -5116447.04246  23940627.003    23940626.2994   23940640.1534
        -0.000          -0.000
 -19448877.853 9 -15134712.81348  21637776.502    21637776.0104   21637787.3634
        -0.000          -0.000
 -18503864.210 9 -14393448.51049  20365613.469    20365613.3294   20365621.9464
        -0.000          -0.000
 01  1 16 22 40 30.0000000  0  7  7 26  9  2  5 24  4               -0.000000050
   7608184.558 9   5938562.13547  22202553.073    22202552.1034   22202562.3794
        -0.000          -0.000
  10439704.347 8   8147854.27645  24577960.042    24577959.8434   24577976.2344
        -0.000          -0.000
 -20632902.690 9 -16045248.18348  21280966.090    21280965.6644   21280974.9684
        -0.000          -0.000
   3545224.825 9   2778650.56147  22310414.333    22310413.3924   22310424.5054
        -0.000          -0.000
  -7025678.774 9  -5179124.73546  23925320.453    23925319.6764   23925333.4844
        -0.000          -0.000
 -19528876.486 9 -15197049.28348  21622553.222    21622552.6884   21622564.0184
        -0.000          -0.000
 -18519341.933 9 -14405509.02349  20362668.106    20362667.9784   20362676.5864
        -0.000          -0.000
 01  1 16 22 41  0.0000000  0  7  7 26  9  2  5 24  4               -0.000000050
   7669470.524 9   5986317.39547  22214215.418    22214214.4694   22214224.6964
        -0.000          -0.000
  10509581.425 9   8202303.62145  24591257.406    24591257.2054   24591273.7794
        -0.000          -0.000
 -20669129.538 9 -16073476.84548  21274072.344    21274071.8774   21274081.1104
        -0.000          -0.000
   3586317.559 9   2810670.83947  22318234.037    22318233.0894   22318244.2194
        -0.000          -0.000
  -7106148.053 9  -5241827.91846  23910007.553    23910006.8574   23910020.4134
        -0.000          -0.000
 -19608497.113 9 -15259091.20248  21607401.821    21607401.2884   21607412.6024
        -0.000          -0.000
 -18534209.692 9 -14417094.24049  20359838.819    20359838.6774   20359847.2814
        -0.000          -0.000
 01  1 16 22 41 30.0000000  0  7  7 26  9  2  5 24  4               -0.000000049
   7730802.447 9   6034108.49147  22225886.659    22225885.6704   22225895.7394
        -0.000          -0.000
  10579430.202 9   8256730.93745  24604549.526    24604549.2054   24604565.6354
        -0.000          -0.000
 -20704832.661 9 -16101297.40548  21267278.198    21267277.7504   21267287.0314
        -0.000          -0.000
   3627682.755 9   2842903.43647  22326105.576    22326104.6294   22326115.7364
        -0.000          -0.000
  -7186649.069 9  -5304555.84045  23894688.572    23894687.7734   23894701.3524
        -0.000          -0.000
 -19687736.929 9 -15320836.38948  21592322.866    21592322.3474   21592333.6444
        -0.000          -0.000
 -18548466.690 9 -14428203.54549  20357125.780    20357125.6254   20357134.2224
        -0.000          -0.000
 01  1 16 22 42  0.0000000  0  7  7 26  9  2  5 24  4               -0.000000050
   7792179.326 9   6081934.58947  22237566.194    22237565.3134   22237575.3804
        -0.000          -0.000
  10649247.888 9   8311134.03945  24617835.551    24617835.3274   24617851.9204
        -0.000          -0.000
 -20740010.526 9 -16128708.67248  21260584.027    21260583.5644   21260592.8034
        -0.000          -0.000
   3669321.213 9   2875348.97847  22334029.173    22334028.1744   22334039.2884
        -0.000          -0.000
  -7267181.151 8  -5367307.95545  23879363.483    23879362.7924   23879376.3344
        -0.000          -0.000
 -19766593.278 9 -15382282.76748  21577316.915    21577316.3654   21577327.6534
        -0.000          -0.000
 -18562112.467 9 -14438836.57149  20354529.038    20354528.8634   20354537.4554
        -0.000          -0.000
 01  1 16 22 42 30.0000000  0  7  7 26  9  2  5 24  4               -0.000000050
   7853600.741 9   6129795.40047  22249254.346    22249253.3144   22249263.5064
        -0.000          -0.000
  10719032.518 9   8365511.33945  24631115.367    24631115.2424   24631131.8404
        -0.000          -0.000
 -20774661.176 9 -16155709.13048  21253990.222    21253989.7494   21253998.9494
        -0.000          -0.000
   3711234.392 9   2908008.57147  22342004.888    22342003.9724   22342015.1054
        -0.000          -0.000
  -7347742.846 9  -5430083.13245  23864032.852    23864032.1154   23864045.8354
        -0.000          -0.000
 -19845063.459 9 -15443428.23548  21562384.434    21562383.9234   21562395.1534
        -0.000          -0.000
 -18575145.902 9 -14448992.44849  20352048.824    20352048.6504   20352057.2314
        -0.000          -0.000
 01  1 16 22 43  0.0000000  0  7  7 26  9  2  5 24  4               -0.000000049
   7915064.366 9   6177689.09647  22260950.317    22260949.4454   22260959.7014
        -0.000          -0.000
  10788780.198 8   8419859.88945  24644388.070    24644387.8164   24644404.4914
        -0.000          -0.000
 -20808784.624 9 -16182298.76948  21247496.678    21247496.2244   21247505.4574
        -0.000          -0.000
   3753421.714 9   2940881.79247  22350032.985    22350032.0644   22350043.0754
        -0.000          -0.000
  -7428334.433 9  -5492881.58846  23848696.655    23848695.8714   23848709.8124
        -0.000          -0.000
 -19923145.663 9 -15504271.38748  21547525.818    21547525.2694   21547536.4664
        -0.000          -0.000
 -18587567.795 9 -14458671.80249  20349684.993    20349684.8264   20349693.3964
        -0.000          -0.000
 01  1 16 22 43 30.0000000  0  7  7 26  9  2  5 24  4               -0.000000049
   7976569.736 9   6225615.33247  22272654.418    22272653.4534   22272663.7514
        -0.000          -0.000
  10858488.956 8   8474178.04845  24657653.377    24657653.1114   24657669.9854
        -0.000          -0.000
 -20842378.780 9 -16208475.98848  21241103.919    21241103.4504   21241112.5834
        -0.000          -0.000
   3795884.223 9   2973969.41347  22358113.371    22358112.3714   22358123.4934
        -0.000          -0.000
  -7508954.669 9  -5555702.35746  23833355.021    23833354.1924   23833368.3174
        -0.000          -0.000
 -20000836.955 9 -15564809.93148  21532741.560    21532740.9944   21532752.1374
        -0.000          -0.000
 -18599377.079 9 -14467873.79449  20347437.702    20347437.5424   20347446.1014
        -0.000          -0.000
 01  1 16 22 44  0.0000000  0  7  7 26  9  2  5 24  4               -0.000000049
   8038115.433 9   6273572.96947  22284366.162    22284365.2854   22284375.6784
        -0.000          -0.000
  10928155.617 8   8528463.49745  24670910.750    24670910.2754   24670927.1644
        -0.000          -0.000
 -20875442.848 9 -16234240.14448  21234811.964    21234811.5164   21234820.7194
        -0.000          -0.000
   3838622.234 9   3007271.73247  22366246.107    22366245.1504   22366256.2684
        -0.000          -0.000
  -7589603.225 9  -5618545.18446  23818007.946    23818007.0374   23818021.4394
        -0.000          -0.000
 -20078135.223 9 -15625042.22548  21518032.067    21518031.5374   21518042.6604
        -0.000          -0.000
 -18610573.748 9 -14476598.42449  20345307.014    20345306.8574   20345315.4074
        -0.000          -0.000
 01  1 16 22 44 30.0000000  0  7  7 26  9  2  5 24  4               -0.000000049
   8099701.098 9   6321561.78347  22296085.614    22296084.6524   22296094.8524
        -0.000          -0.000
  10997778.284 9   8582714.56845  24684159.602    24684159.4514   24684176.6414
        -0.000          -0.000
 -20907975.019 9 -16259589.83748  21228621.288    21228620.8224   21228629.9674
        -0.000          -0.000
   3881636.750 9   3040789.51047  22374431.497    22374430.5344   22374441.6534
        -0.000          -0.000
  -7670278.691 9  -5681408.96746  23802655.760    23802654.8554   23802669.3404
        -0.000          -0.000
 -20155037.573 9 -15684966.00048  21503397.910    21503397.3884   21503408.4804
        -0.000          -0.000
 -18621156.854 9 -14484844.95049  20343293.090    20343292.9214   20343301.4374
        -0.000          -0.000
 01  1 16 22 45  0.0000000  0  7  7 26  9  2  5 24  4               -0.000000048
   8161325.478 9   6369580.75147  22307812.505    22307811.5634   22307821.7414
        -0.000          -0.000
  11067353.895 8   8636929.04245  24697399.573    24697399.3364   24697416.4294
        -0.000          -0.000
 -20939974.313 9 -16284524.30048  21222531.942    21222531.4774   21222540.6574
        -0.000          -0.000
   3924928.408 9   3074523.22547  22382669.588    22382668.6614   22382679.8194
        -0.000          -0.000
  -7750980.185 9  -5744293.08246  23787298.688    23787297.7574   23787312.0964
        -0.000          -0.000
 -20231541.776 9 -15744579.54748  21488839.553    21488839.0374   21488850.1004
        -0.000          -0.000
 -18631126.400 9 -14492613.37749  20341395.944    20341395.7654   20341404.2584
        -0.000          -0.000
 01  1 16 22 45 30.0000000  0  7  7 26  9  2  5 24  4               -0.000000047
   8222987.038 9   6417628.67747  22319546.381    22319545.4104   22319555.6304
        -0.000          -0.000
  11136879.420 9   8691104.49645  24710630.277    24710630.1364   24710647.1364
        -0.000          -0.000
 -20971439.775 9 -16309042.79348  21216544.231    21216543.7634   21216552.9184
        -0.000          -0.000
   3968497.454 9   3108473.10347  22390960.600    22390959.6214   22390970.7434
        -0.000          -0.000
  -7831707.358 9  -5807197.28346  23771936.869    23771935.9914   23771949.6534
        -0.000          -0.000
 -20307645.589 9 -15803881.08648  21474357.353    21474356.8324   21474367.8864
        -0.000          -0.000
 -18640482.556 9 -14499903.83449  20339615.477    20339615.3174   20339623.8034
        -0.000          -0.000
 01  1 16 22 46  0.0000000  0  7  7 26  9  2  5 24  4               -0.000000047
   8284684.226 9   6465704.39547  22331286.984    22331286.0724   22331296.1974
        -0.000          -0.000
  11206351.745 9   8745238.41645  24723850.596    24723850.2944   24723867.5754
        -0.000          -0.000
 -21002370.803 9 -16333144.84148  21210658.197    21210657.7374   21210666.8754
        -0.000          -0.000
   4012343.964 9   3142639.18047  22399304.344    22399303.3944   22399314.5774
        -0.000          -0.000
  -7912459.858 9  -5870121.20146  23756570.214    23756569.3694   23756582.5464
        -0.000          -0.000
 -20383347.819 9 -15862869.70748  21459951.555    21459951.0654   21459962.0914
        -0.000          -0.000
 -18649225.352 9 -14506716.34149  20337951.737    20337951.5694   20337960.0404
        -0.000          -0.000
 01  1 16 22 46 30.0000000  0  7  7 26  9  2  5 24  4               -0.000000047
   8346417.013 9   6513807.81747  22343034.219    22343033.2904   22343043.7334
        -0.000          -0.000
  11275769.212 8   8799329.69045  24737060.656    24737060.4394   24737077.5494
        -0.000          -0.000
 -21032765.261 9 -16356828.78348  21204874.290    21204873.8214   21204882.9774
        -0.000          -0.000
   4056469.471 9   3177022.65247  22407701.188    22407700.1924   22407711.3664
        -0.000          -0.000
  -7993235.935 9  -5933063.42346  23741198.954    23741198.0524   23741211.2674
        -0.000          -0.000
 -20458644.531 9 -15921542.33848  21445623.003    21445622.4754   21445633.4844
        -0.000          -0.000
 -18657354.003 9 -14513050.29449  20336404.867    20336404.7004   20336413.1674
        -0.000          -0.000
 01  1 16 22 47  0.0000000  0  7  7 26  9  2  5 24  4               -0.000000047
   8408185.151 9   6561938.82947  22354788.357    22354787.4334   22354797.8004
        -0.000          -0.000
  11345129.891 8   8853376.58645  24750259.459    24750259.4114   24750276.9564
        -0.000          -0.000
 -21062621.215 9 -16380093.11448  21199192.857    21199192.3954   21199201.5094
        -0.000          -0.000
   4100875.204 9   3211624.48947  22416151.411    22416150.3924   22416161.5214
        -0.000          -0.000
  -8074034.118 9  -5996022.81446  23725823.323    23725822.4154   23725835.9074
        -0.000          -0.000
 -20533532.714 9 -15979896.63248  21431372.198    21431371.6604   21431382.6284
        -0.000          -0.000
 -18664867.361 9 -14518904.79649  20334975.061    20334974.9204   20334983.3664
        -0.000          -0.000
 01  1 16 22 47 30.0000000  0  7  7 26  9  2  5 24  4               -0.000000047
   8469985.869 9   6610095.18347  22366548.578    22366547.6514   22366558.2104
        -0.000          -0.000
  11414429.232 8   8907375.81945  24763447.114    24763446.9824   24763464.4614
        -0.000          -0.000
 -21091939.484 9 -16402938.47748  21193613.739    21193613.2974   21193622.3604
        -0.000          -0.000
   4145559.873 9   3246443.68047  22424654.759    22424653.6854   22424664.7504
        -0.000          -0.000
  -8154855.265 9  -6059000.11246  23710443.330    23710442.4334   23710456.1584
        -0.000          -0.000
 -20608011.460 9 -16037931.89148  21417199.208    21417198.7024   21417209.6444
        -0.000          -0.000
 -18671767.302 9 -14524281.31149  20333662.042    20333661.8794   20333670.3254
        -0.000          -0.000
 01  1 16 22 48  0.0000000  0  7  7 26  9  2  5 24  4               -0.000000047
   8531819.170 9   6658276.94647  22378315.135    22378314.2054   22378324.7714
        -0.000          -0.000
  11483665.841 8   8961326.00345  24776622.569    24776622.4704   24776640.2424
        -0.000          -0.000
 -21120717.802 9 -16425363.08648  21188137.328    21188136.9084   21188146.0114
        -0.000          -0.000
   4190525.333 9   3281481.67247  22433211.363    22433210.3124   22433221.4044
        -0.000          -0.000
  -8235697.531 9  -6121993.91946  23695059.457    23695058.5934   23695072.2314
        -0.000          -0.000
 -20682077.742 9 -16095645.74148  21403104.766    21403104.2494   21403115.1804
        -0.000          -0.000
 -18678052.339 9 -14529178.68149  20332465.977    20332465.8074   20332474.2614
        -0.000          -0.000
 01  1 16 22 48 30.0000000  0  7  7 26  9  2  5 24  4               -0.000000046
   8593684.336 9   6706483.53747  22390087.612    22390086.7154   22390097.3154
        -0.000          -0.000
  11552837.182 8   9015225.44545  24789785.704    24789785.6684   24789802.9754
        -0.000          -0.000
 -21148954.822 9 -16447365.91048  21182763.988    21182763.5384   21182772.6004
        -0.000          -0.000
   4235772.123 9   3316738.87347  22441821.463    22441820.4914   22441831.6184
        -0.000          -0.000
  -8316559.817 9  -6185003.34246  23679671.784    23679670.9654   23679684.3444
        -0.000          -0.000
 -20755729.221 9 -16153036.36348  21389089.283    21389088.7524   21389099.6684
        -0.000          -0.000
 -18683722.230 9 -14533596.71649  20331386.939    20331386.8044   20331395.2394
        -0.000          -0.000
 01  1 16 22 49  0.0000000  0  7  7 26  9  2  5 24  4               -0.000000046
   8655579.937 9   6754713.84447  22401866.130    22401865.1614   22401875.7194
        -0.000          -0.000
  11621940.359 8   9069071.70645  24802935.844    24802935.8254   24802953.5064
        -0.000          -0.000
 -21176649.950 9 -16468946.48348  21177493.737    21177493.3064   21177502.3404
        -0.000          -0.000
   4281300.472 9   3352215.47847  22450485.255    22450484.2634   22450495.3904
        -0.000          -0.000
  -8397441.802 9  -6248028.12346  23664280.244    23664279.4624   23664292.6144
        -0.000          -0.000
 -20828964.183 9 -16210102.43148  21375153.002    21375152.4704   21375163.3644
        -0.000          -0.000
 -18688777.402 9 -14537535.75449  20330424.960    20330424.8104   20330433.2094
        -0.000          -0.000
 01  1 16 22 49 30.0000000  0  7  7 26  9  2  5 24  4               -0.000000046
   8717506.046 9   6802967.92447  22413650.230    22413649.3134   22413659.8174
        -0.000          -0.000
  11690973.718 8   9122863.58345  24816072.762    24816072.6994   24816090.3094
        -0.000          -0.000
 -21203801.326 9 -16490103.35248  21172326.958    21172326.5334   21172335.5414
        -0.000          -0.000
   4327111.932 9   3387912.68347  22459202.857    22459201.8784   22459213.0004
        -0.000          -0.000
  -8478341.537 9  -6311066.67546  23648885.235    23648884.4394   23648897.8304
        -0.000          -0.000
 -20901779.036 9 -16266841.14348  21361296.639    21361296.1534   21361307.0054
        -0.000          -0.000
 -18693216.810 9 -14540994.97649  20329580.095    20329579.9654   20329588.3594
        -0.000          -0.000
 01  1 16 22 50  0.0000000  0  7  7 26  9  2  5 24  4               -0.000000045
   8779460.026 9   6851243.72447  22425439.797    22425438.8324   22425449.2004
        -0.000          -0.000
  11759932.777 8   9176597.56245  24829195.607    24829195.4164   24829213.1114
        -0.000          -0.000
 -21230409.525 9 -16510836.97048  21167263.554    21167263.0994   21167272.0604
        -0.000          -0.000
   4373205.246 9   3423829.53547  22467974.075    22467973.1564   22467984.3834
        -0.000          -0.000
  -8559259.788 9  -6374119.65846  23633486.869    23633486.0784   23633499.5954
        -0.000          -0.000
 -20974173.247 9 -16323252.08248  21347520.416    21347519.9004   21347530.6984
        -0.000          -0.000
 -18697042.145 9 -14543975.70249  20328852.114    20328851.9794   20328860.3634
        -0.000          -0.000
 01  1 16 22 50 30.0000000  0  7  7 26  9  2  5 24  4               -0.000000045
   8841441.333 9   6899540.81247  22437234.301    22437233.4164   22437243.8224
        -0.000          -0.000
  11828815.717 8   9230272.18345  24842303.731    24842303.5404   24842321.5894
        -0.000          -0.000
 -21256473.032 9 -16531146.14848  21162303.809    21162303.3524   21162312.3574
        -0.000          -0.000
   4419581.440 9   3459966.78647  22476799.241    22476798.2664   22476809.4384
        -0.000          -0.000
  -8640195.039 9  -6437185.90146  23618085.465    23618084.6304   23618098.0994
        -0.000          -0.000
 -21046144.046 9 -16379333.09048  21333824.782    21333824.2214   21333834.9954
        -0.000          -0.000
 -18700253.082 9 -14546477.68149  20328241.041    20328240.9124   20328249.2714
        -0.000          -0.000
 01  1 16 22 51  0.0000000  0  7  7 26  9  2  5 24  4               -0.000000044
   8903449.815 9   6947859.07447  22449034.269    22449033.3684   22449043.7174
        -0.000          -0.000
  11897620.429 9   9283885.88245  24855397.201    24855396.9464   24855414.9154
        -0.000          -0.000
 -21281990.032 9 -16551029.48348  21157448.010    21157447.5744   21157456.5054
        -0.000          -0.000
   4466241.623 9   3496325.32647  22485678.460    22485677.4804   22485688.6114
        -0.000          -0.000
  -8721145.602 9  -6500264.09946  23602681.109    23602680.2644   23602693.6174
        -0.000          -0.000
 -21117688.397 9 -16435081.80448  21320210.202    21320209.6664   21320220.4034
        -0.000          -0.000
 -18702848.716 9 -14548500.20649  20327747.060    20327746.9144   20327755.2614
        -0.000          -0.000
 01  1 16 22 51 30.0000000  0  7  7 26  9  2  5 24  4               -0.000000044
   8965483.590 9   6996197.03347  22460838.926    22460837.9664   22460848.3954
        -0.000          -0.000
  11966343.591 8   9337435.99945  24868475.001    24868474.6834   24868492.8454
        -0.000          -0.000
 -21306960.578 9 -16570487.00048  21152696.286    21152695.8144   21152704.7894
        -0.000          -0.000
   4513185.407 9   3532904.86447  22494611.574    22494610.6154   22494621.7344
        -0.000          -0.000
  -8802111.629 9  -6563354.36146  23587273.608    23587272.7214   23587286.0044
        -0.000          -0.000
 -21188805.176 9 -16490497.34648  21306677.020    21306676.5054   21306687.1874
        -0.000          -0.000
 -18704830.214 9 -14550044.18549  20327369.966    20327369.8254   20327378.1444
        -0.000          -0.000
 01  1 16 22 52  0.0000000  0  7  7 26  9  2  5 24  4               -0.000000044
   9027542.858 9   7044554.87747  22472648.294    22472647.3404   22472657.8694
        -0.000          -0.000
  12034983.634 8   9390921.34145  24881537.111    24881536.8994   24881555.0024
        -0.000          -0.000
 -21331382.679 9 -16589517.16248  21148048.898    21148048.4314   21148057.3234
        -0.000          -0.000
   4560414.406 9   3569706.63247  22503598.986    22503598.0334   22503609.1674
        -0.000          -0.000
  -8883091.094 9  -6626455.06246  23571863.439    23571862.5594   23571875.7754
        -0.000          -0.000
 -21259490.613 9 -16545576.77948  21293225.944    21293225.3874   21293236.0524
        -0.000          -0.000
 -18706196.262 9 -14551108.59649  20327109.995    20327109.8454   20327118.1554
        -0.000          -0.000
 01  1 16 22 52 30.0000000  0  7  7 26  9  2  5 24  4               -0.000000043
   9089626.516 9   7092931.72347  22484462.364    22484461.4814   22484472.0944
        -0.000          -0.000
  12103537.794 8   9444339.79445  24894582.723    24894582.4604   24894600.9664
        -0.000          -0.000
 -21355255.654 9 -16608119.42548  21143505.974    21143505.4864   21143514.4524
        -0.000          -0.000
   4607928.884 9   3606730.85147  22512640.828    22512639.7844   22512650.8454
        -0.000          -0.000
  -8964082.902 9  -6689565.41746  23556451.059    23556450.2094   23556463.1974
        -0.000          -0.000
 -21329743.441 9 -16600319.11848  21279857.109    21279856.5824   21279867.2484
        -0.000          -0.000
 -18706947.469 9 -14551693.91249  20326966.970    20326966.8344   20326975.1344
        -0.000          -0.000
 01  1 16 22 53  0.0000000  0  7  7 26  9  2  5 24  4               -0.000000043
   9151733.503 9   7141326.74347  22496281.054    22496280.0694   22496290.7634
        -0.000          -0.000
  12172003.200 9   9497689.02145  24907611.623    24907611.3884   24907629.8334
        -0.000          -0.000
 -21378578.916 9 -16626293.34448  21139067.691    21139067.1884   21139076.1004
        -0.000          -0.000
   4655728.921 9   3643977.58647  22521736.789    22521735.8174   22521747.0384
        -0.000          -0.000
  -9045086.749 9  -6752685.14346  23541036.585    23541035.7504   23541048.4884
        -0.000          -0.000
 -21399560.995 9 -16654722.28248  21266571.157    21266570.6504   21266581.2914
        -0.000          -0.000
 -18707084.200 9 -14551800.41249  20326940.939    20326940.7924   20326949.0784
        -0.000          -0.000
 01  1 16 22 53 30.0000000  0  7  7 26  9  2  5 24  4               -0.000000043
   9213861.509 9   7189738.15247  22508103.560    22508102.6554   22508113.2464
        -0.000          -0.000
  12240376.240 8   9550966.33645  24920622.976    24920622.7024   24920640.9434
        -0.000          -0.000
 -21401352.843 9 -16644039.20748  21134733.892    21134733.4194   21134742.3044
        -0.000          -0.000
   4703813.812 9   3681446.29447  22530886.968    22530886.0424   22530897.2724
        -0.000          -0.000
  -9126102.852 9  -6815814.42346  23525619.684    23525618.9134   23525631.4584
        -0.000          -0.000
 -21468942.573 9 -16708785.73448  21253368.179    21253367.6704   21253378.2964
        -0.000          -0.000
 -18706608.050 9 -14551429.34449  20327031.470    20327031.3394   20327039.6364
        -0.000          -0.000
 01  1 16 22 54  0.0000000  0  7  7 26  9  2  5 24  4               -0.000000042
   9276011.889 9   7238167.00447  22519930.466    22519929.5374   22519940.1114
        -0.000          -0.000
  12308656.356 8   9604171.17345  24933616.656    24933616.3564   24933634.6894
        -0.000          -0.000
 -21423574.134 9 -16661354.44348  21130505.295    21130504.8064   21130513.6774
        -0.000          -0.000
   4752186.115 9   3719138.95647  22540091.885    22540091.0294   22540102.3444
        -0.000          -0.000
  -9207127.970 9  -6878950.71346  23510201.004    23510200.1784   23510212.7824
        -0.000          -0.000
 -21537884.000 9 -16762506.21548  21240248.969    21240248.4724   21240259.0454
        -0.000          -0.000
 -18705516.902 9 -14550579.05349  20327239.065    20327238.9354   20327247.2144
        -0.000          -0.000
 01  1 16 22 54 30.0000000  0  7  7 26  9  2  5 24  4               -0.000000042
   9338181.917 9   7286611.14747  22531761.111    22531760.1274   22531770.7804
        -0.000          -0.000
  12376839.393 9   9657300.38745  24946591.679    24946591.3834   24946609.7854
        -0.000          -0.000
 -21445243.940 9 -16678239.96149  21126381.632    21126381.1414   21126389.9834
        -0.000          -0.000
   4800844.594 9   3757054.61347  22549351.439    22549350.4294   22549361.7694
        -0.000          -0.000
  -9288162.958 9  -6942094.68446  23494780.274    23494779.3834   23494792.0864
        -0.000          -0.000
 -21606384.581 9 -16815883.18348  21227213.677    21227213.1664   21227223.6704
        -0.000          -0.000
 -18703812.894 9 -14549251.20449  20327563.324    20327563.1714   20327571.4324
        -0.000          -0.000
 01  1 16 22 55  0.0000000  0  7  7 26  9  2  5 24  4               -0.000000048
   9400381.297 9   7335078.18347  22543597.183    22543596.2634   22543606.9644
        -0.000          -0.000
  12444933.208 9   9710360.07745  24959549.674    24959549.5234   24959567.9964
        -0.000          -0.000
 -21466351.227 9 -16694687.14649  21122364.962    21122364.5114   21122373.3394
        -0.000          -0.000
   4849800.257 9   3795201.85747  22558667.350    22558666.3804   22558677.6994
        -0.000          -0.000
  -9369196.089 9  -7005237.22846  23479360.079    23479359.2074   23479371.9124
        -0.000          -0.000
 -21674432.193 9 -16868907.19048  21214264.540    21214264.0214   21214274.5084
        -0.000          -0.000
 -18701485.674 9 -14547437.73849  20328006.178    20328006.0044   20328014.2524
        -0.000          -0.000
 01  1 16 22 55 30.0000000  0  7  7 26  9  2  5 24  4               -0.000000044
   9462595.768 9   7383556.97147  22555436.265    22555435.2984   22555445.9924
        -0.000          -0.000
  12512921.846 8   9763337.81545  24972487.948    24972487.6964   24972506.2144
        -0.000          -0.000
 -21486908.439 9 -16710705.69949  21118453.039    21118452.5704   21118461.3934
        -0.000          -0.000
   4899040.048 9   3833570.49147  22568037.480    22568036.5334   22568047.7284
        -0.000          -0.000
  -9450239.901 9  -7068388.10946  23463938.032    23463937.1244   23463949.7984
        -0.000          -0.000
 -21742037.970 9 -16921586.90748  21201399.514    21201399.0074   21201409.4564
        -0.000          -0.000
 -18698548.821 9 -14545149.23449  20328564.978    20328564.8074   20328573.0624
        -0.000          -0.000
 01  1 16 22 56  0.0000000  0  7  7 26  9  2  5 24  4               -0.000000042
   9524825.588 9   7432047.71547  22567278.223    22567277.2494   22567287.9194
        -0.000          -0.000
  12580803.889 9   9816232.45245  24985405.622    24985405.4124   24985424.0704
        -0.000          -0.000
 -21506913.923 9 -16726294.34549  21114646.054    21114645.5954   21114654.4214
        -0.000          -0.000
   4948565.189 9   3872161.46847  22577461.800    22577460.8294   22577472.1404
        -0.000          -0.000
  -9531292.444 9  -7131545.79246  23448514.237    23448513.3124   23448525.9454
        -0.000          -0.000
 -21809198.610 9 -16973919.76848  21188619.191    21188618.6854   21188629.1144
        -0.000          -0.000
 -18695001.978 9 -14542385.41949  20329239.867    20329239.7104   20329247.9634
        -0.000          -0.000
 01  1 16 22 56 30.0000000  0  7  7 26  9  2  5 24  4               -0.000000043
   9587071.436 9   7480550.94647  22579123.250    22579122.2884   22579132.9604
        -0.000          -0.000
  12648578.370 8   9869043.32945  24998303.223    24998302.8854   24998321.6374
        -0.000          -0.000
 -21526365.113 9 -16741451.07349  21110944.551    21110944.1074   21110952.9224
        -0.000          -0.000
   4998377.879 9   3910976.50747  22586940.839    22586939.9074   22586951.2284
        -0.000          -0.000
  -9612351.123 9  -7194708.22846  23433089.007    23433088.0824   23433100.8054
        -0.000          -0.000
 -21875910.579 9 -17025903.01648  21175924.209    21175923.7334   21175934.1314
        -0.000          -0.000
 -18690843.678 9 -14539145.14349  20330031.153    20330030.9934   20330039.2504
        -0.000          -0.000
 01  1 16 22 57  0.0000000  0  7  7 26  9  2  5 24  4               -0.000000043
   9649334.000 9   7529067.20047  22590971.436    22590970.4574   22590981.2844
        -0.000          -0.000
  12716244.377 9   9921769.58745  25011179.587    25011179.4894   25011198.3404
        -0.000          -0.000
 -21545259.791 9 -16756174.16149  21107349.035    21107348.5574   21107357.3564
        -0.000          -0.000
   5048479.797 9   3950016.93347  22596474.952    22596473.9874   22596485.3434
        -0.000          -0.000
  -9693413.594 9  -7257873.61646  23417663.049    23417662.1604   23417674.9074
        -0.000          -0.000
 -21942170.049 9 -17077533.66648  21163315.411    21163314.9224   21163325.2954
        -0.000          -0.000
 -18686072.972 9 -14535427.66949  20330938.940    20330938.7644   20330947.0204
        -0.000          -0.000
 01  1 16 22 57 30.0000000  0  7  7 26  9  2  5 24  4               -0.000000042
   9711611.550 9   7577595.13947  22602822.387    22602821.4724   22602832.3144
        -0.000          -0.000
  12783798.359 9   9974408.64045  25024035.359    25024035.1804   25024053.9684
        -0.000          -0.000
 -21563598.115 9 -16770463.72649  21103859.313    21103858.8624   21103867.6324
        -0.000          -0.000
   5098870.649 9   3989282.51547  22606064.049    22606063.0894   22606074.5114
        -0.000          -0.000
  -9774479.352 9  -7321041.64446  23402236.815    23402235.8994   23402248.3854
        -0.000          -0.000
 -22007976.073 9 -17128810.97348  21150792.860    21150792.3614   21150802.7214
        -0.000          -0.000
 -18680691.014 9 -14531233.89649  20331963.040    20331962.8654   20331971.1204
        -0.000          -0.000
 01  1 16 22 58  0.0000000  0  7  7 26  9  2  5 24  4               -0.000000043
   9773902.970 9   7626133.90647  22614676.150    22614675.2064   22614685.8554
        -0.000          -0.000
  12851237.678 9  10026958.29445  25036868.861    25036868.5664   25036887.6714
        -0.000          -0.000
 -21581379.739 9 -16784319.50249  21100475.555    21100475.0854   21100483.8804
        -0.000          -0.000
   5149550.363 9   4028773.16147  22615708.011    22615707.0624   22615718.4724
        -0.000          -0.000
  -9855547.720 9  -7384211.67546  23386810.045    23386809.1194   23386821.4524
        -0.000          -0.000
 -22073326.871 9 -17179733.56548  21138356.914    21138356.4314   21138366.7644
        -0.000          -0.000
 -18674698.595 9 -14526564.44149  20333103.280    20333103.1364   20333111.3824
        -0.000          -0.000
 01  1 16 22 58 30.0000000  0  7  7 26  9  2  5 24  4               -0.000000044
   9836208.232 9   7674683.41847  22626532.399    22626531.3884   22626542.3084
        -0.000          -0.000
  12918560.496 8  10079417.16845  25049680.538    25049680.3064   25049699.5934
        -0.000          -0.000
 -21598603.535 9 -16797740.61549  21097197.930    21097197.4844   21097206.2544
        -0.000          -0.000
   5200520.037 9   4068489.74647  22625407.174    22625406.2974   22625417.7444
        -0.000          -0.000
  -9936617.068 9  -7447382.43646  23371382.934    23371382.0304   23371394.4484
        -0.000          -0.000
 -22138219.939 9 -17230299.48848  21126008.097    21126007.6094   21126017.9074
        -0.000          -0.000
 -18668095.433 9 -14521419.08949  20334359.807    20334359.6564   20334367.8704
        -0.000          -0.000
 01  1 16 22 59  0.0000000  0  7  7 26  9  2  5 24  4               -0.000000044
   9898527.250 9   7723243.68547  22638391.267    22638390.3484   22638401.2254
        -0.000          -0.000
  12985765.194 9  10131783.95345  25062469.159    25062469.0224   25062488.5604
        -0.000          -0.000
 -21615268.287 9 -16810726.10849  21094026.727    21094026.2504   21094035.0254
        -0.000          -0.000
   5251780.648 9   4108433.04747  22635161.816    22635160.8544   22635172.3854
        -0.000          -0.000
 -10017685.519 9  -7510552.45946  23355955.822    23355954.9694   23355967.5934
        -0.000          -0.000
 -22202652.668 9 -17280506.70548  21113746.896    21113746.3884   21113756.6534
        -0.000          -0.000
 -18660881.398 9 -14515797.73449  20335732.554    20335732.4154   20335740.6174
        -0.000          -0.000
 01  1 16 22 59 30.0000000  0  7  7 26  9  2  5 24  4               -0.000000044
   9960859.110 9   7771813.94847  22650252.803    22650251.8174   22650262.6234
        -0.000          -0.000
  13052849.054 8  10184056.69745  25075235.406    25075235.2564   25075254.5824
        -0.000          -0.000
 -21631373.214 9 -16823275.37649  21090962.036    21090961.5614   21090970.3364
        -0.000          -0.000
   5303332.492 9   4148603.27247  22644971.890    22644970.9524   22644982.4974
        -0.000          -0.000
 -10098751.898 9  -7573720.91446  23340529.286    23340528.4584   23340540.9074
        -0.000          -0.000
 -22266622.625 9 -17330353.31448  21101573.739    21101573.2254   21101583.4724
        -0.000          -0.000
 -18653057.051 9 -14509700.80749  20337221.460    20337221.3154   20337229.4934
        -0.000          -0.000
 01  1 16 23  0  0.0000000  0  7  7 26  9  2  5 24  4               -0.000000045
  10023202.075 9   7820392.85047  22662116.190    22662115.2454   22662126.1274
        -0.000          -0.000
  13119808.741 8  10236232.48245  25087977.593    25087977.3644   25087997.4994
        -0.000          -0.000
 -21646918.905 9 -16835388.87449  21088003.757    21088003.2594   21088012.0634
        -0.000          -0.000
   5355174.907 9   4188999.89347  22654837.194    22654836.2144   22654847.7974
        -0.000          -0.000
 -10179816.298 9  -7636887.87046  23325103.221    23325102.3684   23325114.5274
        -0.000          -0.000
 -22330129.434 9 -17379839.02848  21089488.701    21089488.1914   21089498.4214
        -0.000          -0.000
 -18644623.852 9 -14503129.45349  20338826.234    20338826.0844   20338834.2304
        -0.000          -0.000
 01  1 16 23  0 30.0000000  0  7  7 26  9  2  5 24  4               -0.000000045
  10085555.964 9   7868980.29847  22673981.640    22673980.7494   22673991.3994
        -0.000          -0.000
  13186642.306 8  10288310.12245  25100696.080    25100695.8494   25100715.3564
        -0.000          -0.000
 -21661904.310 9 -16847065.79149  21085152.101    21085151.6434   21085160.4114
        -0.000          -0.000
   5407308.820 9   4229623.65847  22664757.898    22664756.9754   22664768.5614
        -0.000          -0.000
 -10260877.023 9  -7700051.91046  23309677.691    23309676.7774   23309689.0234
        -0.000          -0.000
 -22393170.693 9 -17428961.97748  21077492.286    21077491.7764   21077501.9804
        -0.000          -0.000
 -18635582.041 9 -14496083.85449  20340546.818    20340546.6734   20340554.8174
        -0.000          -0.000
 01  1 16 23  1  0.0000000  0  7  7 26  9  2  5 24  4               -0.000000046
  10147920.751 9   7917576.21947  22685849.422    22685848.5434   22685859.0594
        -0.000          -0.000
  13253348.232 8  10340288.23645  25113389.992    25113389.7514   25113409.7554
        -0.000          -0.000
 -21676328.002 9 -16858305.01649  21082407.353    21082406.8844   21082415.6364
        -0.000          -0.000
   5459735.202 9   4270475.32047  22674734.325    22674733.4494   22674745.0144
        -0.000          -0.000
 -10341932.113 9  -7763211.53446  23294253.217    23294252.3154   23294264.6624
        -0.000          -0.000
 -22455743.041 9 -17477719.54048  21065585.090    21065584.5904   21065594.7624
        -0.000          -0.000
 -18625931.290 9 -14488563.75949  20342383.274    20342383.1114   20342391.2574
        -0.000          -0.000
 01  1 16 23  1 30.0000000  0  7  7 26  9  2  5 24  4               -0.000000046
  10210293.776 9   7966178.54847  22697718.713    22697717.7774   22697728.4554
        -0.000          -0.000
  13319922.045 8  10392163.38645  25126059.195    25126058.8604   25126078.7774
        -0.000          -0.000
 -21690191.252 9 -16869107.53149  21079769.257    21079768.8204   21079777.5194
        -0.000          -0.000
   5512452.386 9   4311553.60047  22684766.223    22684765.2944   22684776.8174
        -0.000          -0.000
 -10422982.456 9  -7826367.46446  23278829.783    23278828.8734   23278841.3074
        -0.000          -0.000
 -22517846.916 9 -17526112.05448  21053767.024    21053766.5214   21053776.6564
        -0.000          -0.000
 -18615674.204 9 -14480571.18649  20344335.121    20344334.9504   20344343.0664
        -0.000          -0.000
 01  1 16 23  2  0.0000000  0  7  7 26  9  2  5 24  4               -0.000000046
  10272676.573 9   8014788.51347  22709589.833    22709588.9584   22709599.5594
        -0.000          -0.000
  13386363.451 8  10443935.41145  25138703.001    25138702.7074   25138722.7044
        -0.000          -0.000
 -21703491.537 9 -16879471.37249  21077238.291    21077237.8224   21077246.5354
        -0.000          -0.000
   5565462.888 9   4352860.42147  22694853.788    22694852.8904   22694864.3584
        -0.000          -0.000
 -10504024.776 9  -7889517.14946  23263407.773    23263406.8694   23263419.3784
        -0.000          -0.000
 -22579477.915 9 -17574136.09748  21042038.942    21042038.4504   21042048.5664
        -0.000          -0.000
 -18604809.166 9 -14472104.89049  20346402.629    20346402.4794   20346410.5744
        -0.000          -0.000
 01  1 16 23  2 30.0000000  0  7  7 26  9  2  5 24  4               -0.000000047
  10335066.509 9   8063404.05847  22721462.398    22721461.3704   22721471.8694
        -0.000          -0.000
  13452668.143 8  10495600.78845  25151320.662    25151320.3724   25151340.7424
        -0.000          -0.000
 -21716230.330 9 -16889397.69249  21074814.165    21074813.7104   21074822.3994
        -0.000          -0.000
   5618764.949 9   4394394.41847  22704997.023    22704996.0584   22705007.4724
        -0.000          -0.000
 -10585059.800 9  -7952661.16646  23247987.009    23247986.1944   23247998.4634
        -0.000          -0.000
 -22640636.473 9 -17621792.00248  21030400.757    21030400.2674   21030410.3444
        -0.000          -0.000
 -18593338.918 9 -14463166.99749  20348585.357    20348585.1784   20348593.2524
        -0.000          -0.000
 01  1 16 23  3  0.0000000  0  7  7 26  9  2  5 24  4               -0.000000047
  10397464.521 9   8112025.86047  22733336.220    22733335.2394   22733345.9554
        -0.000          -0.000
  13518835.478 8  10547159.13945  25163912.284    25163911.9364   25163932.4934
        -0.000          -0.000
 -21728405.534 9 -16898884.84749  21072497.300    21072496.8244   21072505.4964
        -0.000          -0.000
   5672360.714 9   4436157.31247  22715196.022    22715195.0284   22715206.4354
        -0.000          -0.000
 -10666084.458 9  -8015797.14446  23232568.555    23232567.7384   23232579.6174
        -0.000          -0.000
 -22701319.216 9 -17669077.13948  21018853.134    21018852.6414   21018862.6794
        -0.000          -0.000
 -18581262.205 9 -14453756.53149  20350883.420    20350883.2574   20350891.3284
        -0.000          -0.000
 01  1 16 23  3 30.0000000  0  7  7 26  9  2  5 24  4               -0.000000047
  10459868.971 9   8160652.70447  22745211.422    22745210.4194   22745221.1264
        -0.000          -0.000
  13584862.172 9  10598607.99745  25176477.308    25176476.9474   25176497.2764
        -0.000          -0.000
 -21740017.707 9 -16907933.28049  21070287.566    21070287.0944   21070295.7694
        -0.000          -0.000
   5726249.228 9   4478148.29847  22725450.499    22725449.6184   22725461.1564
        -0.000          -0.000
 -10747098.819 9  -8078925.06346  23217152.085    23217151.2614   23217163.0114
        -0.000          -0.000
 -22761524.488 9 -17715990.22548  21007396.371    21007395.8834   21007405.8774
        -0.000          -0.000
 -18568581.127 9 -14443875.13249  20353296.540    20353296.3764   20353304.4254
        -0.000          -0.000
 01  1 16 23  4  0.0000000  0  7  7 26  9  2  5 24  4               -0.000000048
  10522279.628 9   8209284.40747  22757087.938    22757086.8774   22757097.4064
        -0.000          -0.000
  13650746.156 9  10649945.45445  25189014.825    25189014.6874   25189035.3524
        -0.000          -0.000
 -21751066.104 9 -16916542.40749  21068185.095    21068184.6294   21068193.2854
        -0.000          -0.000
   5780431.152 9   4520367.94647  22735761.107    22735760.1614   22735771.6784
        -0.000          -0.000
 -10828101.250 9  -8142043.63246  23201737.537    23201736.7034   23201748.8404
        -0.000          -0.000
 -22821250.051 9 -17762529.51548  20996030.918    20996030.4214   20996040.3704
        -0.000          -0.000
 -18555295.716 9 -14433522.82849  20355824.613    20355824.4564   20355832.5194
        -0.000          -0.000
 01  1 16 23  4 30.0000000  0  7  7 26  9  2  5 24  4               -0.000000050
  10584694.617 9   8257919.43147  22768964.864    22768963.8844   22768974.8014
        -0.000          -0.000
  13716483.963 8  10701169.05745  25201524.768    25201524.4784   25201545.5004
        -0.000          -0.000
 -21761551.381 9 -16924712.73849  21066189.748    21066189.2914   21066197.9854
        -0.000          -0.000
   5834905.893 9   4562815.74347  22746127.353    22746126.3954   22746138.0884
        -0.000          -0.000
 -10909091.742 9  -8205152.87246  23186324.932    23186324.1924   23186336.8474
        -0.000          -0.000
 -22880495.798 9 -17808694.92248  20984756.731    20984756.2264   20984766.1664
        -0.000          -0.000
 -18541408.071 9 -14422701.25049  20358467.308    20358467.1764   20358475.1914
        -0.000          -0.000
 01  1 16 23  5  0.0000000  0  7  7 26  9  2  5 24  4               -0.000000049
  10647116.131 9   8306559.55547  22780843.350    22780842.4014   22780853.3284
        -0.000          -0.000
  13782076.134 8  10752279.20845  25214006.992    25214006.7544   25214027.2164
        -0.000          -0.000
 -21771470.207 9 -16932441.67949  21064302.252    21064301.7874   21064310.4854
        -0.000          -0.000
   5889676.565 9   4605494.12347  22756549.855    22756548.9294   22756560.5974
        -0.000          -0.000
 -10990066.046 9  -8268249.61346  23170916.132    23170915.3684   23170927.7454
        -0.000          -0.000
 -22939257.235 9 -17854482.95148  20973574.710    20973574.2174   20973584.1274
        -0.000          -0.000
 -18526915.849 9 -14411408.57249  20361225.099    20361224.9474   20361232.9334
        -0.000          -0.000
 01  1 16 23  5 30.0000000  0  7  7 26  9  2  5 24  4               -0.000000049
  10709540.090 9   8355201.57247  22792722.113    22792721.1474   22792732.1294
        -0.000          -0.000
  13847516.794 8  10803271.19345  25226460.370    25226460.2244   25226481.2094
        -0.000          -0.000
 -21780825.587 9 -16939731.57149  21062521.981    21062521.4904   21062530.2034
        -0.000          -0.000
   5944739.764 9   4648400.45847  22767028.122    22767027.1554   22767038.8024
        -0.000          -0.000
 -11071026.512 9  -8331335.57246  23155509.990    23155509.1354   23155521.1774
        -0.000          -0.000
 -22997535.876 9 -17899894.77548  20962484.598    20962484.0944   20962493.9654
        -0.000          -0.000
 -18511823.655 9 -14399648.38649  20364096.986    20364096.8394   20364104.8234
        -0.000          -0.000
 01  1 16 23  6  0.0000000  0  7  7 26  9  2  5 24  4               -0.000000050
  10771967.329 9   8403846.16747  22804601.631    22804600.7624   22804611.5254
        -0.000          -0.000
  13912805.243 8  10854144.54945  25238884.755    25238884.7234   25238905.9434
        -0.000          -0.000
 -21789615.946 9 -16946581.18749  21060849.237    21060848.7384   21060857.4704
        -0.000          -0.000
   6000097.151 9   4691536.02347  22777562.360    22777561.4334   22777572.9564
        -0.000          -0.000
 -11151970.366 9  -8394408.51046  23140106.500    23140105.6694   23140117.9104
        -0.000          -0.000
 -23055328.160 9 -17944927.62848  20951487.002    20951486.4784   20951496.3284
        -0.000          -0.000
 -18496130.678 9 -14387420.06049  20367083.253    20367083.0924   20367091.0854
        -0.000          -0.000
 01  1 16 23  6 30.0000000  0  7  7 26  9  2  5 24  4               -0.000000050
  10834397.254 9   8452492.86847  22816481.939    22816480.9694   22816491.5014
        -0.000          -0.000
  13977939.032 8  10904897.41245  25251279.923    25251279.7614   25251300.8114
        -0.000          -0.000
 -21797841.083 9 -16952990.37049  21059283.993    21059283.5214   21059292.2464
        -0.000          -0.000
   6055749.117 9   4734901.11847  22788152.642    22788151.7214   22788163.3194
        -0.000          -0.000
 -11232896.280 9  -8457467.46746  23124706.517    23124705.8094   23124718.1464
        -0.000          -0.000
 -23112632.399 9 -17989580.18848  20940582.294    20940581.7774   20940591.5894
        -0.000          -0.000
 -18479837.819 9 -14374724.29549  20370183.631    20370183.4754   20370191.4814
        -0.000          -0.000
 01  1 16 23  7  0.0000000  0  7  7 26  9  2  5 24  4               -0.000000050
  10896829.391 9   8501141.26647  22828362.340    22828361.3154   22828371.8534
        -0.000          -0.000
  14042915.982 8  10955528.04145  25263645.222    25263644.9014   25263666.3904
        -0.000          -0.000
 -21805500.881 9 -16958959.02549  21057826.385    21057825.8914   21057834.5814
        -0.000          -0.000
   6111695.833 9   4778495.90647  22798798.890    22798798.0004   22798809.6684
        -0.000          -0.000
 -11313802.930 9  -8520511.48647  23109310.703    23109309.9284   23109321.9044
        -0.000          -0.000
 -23169446.476 9 -18033850.80748  20929770.876    20929770.3424   20929780.1394
        -0.000          -0.000
 -18462945.879 9 -14361561.71649  20373398.044    20373397.8904   20373405.8844
        -0.000          -0.000
 01  1 16 23  7 30.0000000  0  7  7 26  9  2  5 24  4               -0.000000050
  10959262.141 9   8549790.12347  22840242.611    22840241.6904   22840252.4194
        -0.000          -0.000
  14107732.890 8  11006033.93445  25275979.710    25275979.7234   25276001.6004
        -0.000          -0.000
 -21812595.728 9 -16964487.45949  21056476.248    21056475.7754   21056484.4644
        -0.000          -0.000
   6167936.474 9   4822319.72847  22809501.155    22809500.2924   22809511.9004
        -0.000          -0.000
 -11394690.030 9  -8583540.26346  23093918.483    23093917.6444   23093929.3554
        -0.000          -0.000
 -23225770.343 9 -18077739.44848  20919052.684    20919052.1624   20919061.9314
        -0.000          -0.000
 -18445456.755 9 -14347933.80349  20376726.133    20376725.9564   20376733.9464
        -0.000          -0.000
 01  1 16 23  8  0.0000000  0  7  7 26  9  2  5 24  4               -0.000000050
  11021696.330 9   8598440.13947  22852123.556    22852122.5954   22852133.3254
        -0.000          -0.000
  14172388.806 9  11056414.27345  25288284.031    25288283.9634   25288305.8974
        -0.000          -0.000
 -21819123.981 9 -16969574.38049  21055233.951    21055233.4754   21055242.1504
        -0.000          -0.000
   6224472.585 9   4866373.79747  22820259.576    22820258.8134   22820270.4184
        -0.000          -0.000
 -11475554.918 9  -8646551.68946  23078530.177    23078529.2674   23078541.1054
        -0.000          -0.000
 -23281601.025 9 -18121243.78348  20908428.413    20908427.8874   20908437.6314
        -0.000          -0.000
 -18427369.986 9 -14333840.18449  20380167.899    20380167.7134   20380175.6844
        -0.000          -0.000
 01  1 16 23  8 30.0000000  0  7  7 26  9  2  5 24  4               -0.000000051
  11084130.053 9   8647089.77447  22864004.153    22864003.2104   22864013.8524
        -0.000          -0.000
  14236880.246 8  11106666.62445  25300557.139    25300556.7694   25300578.6814
        -0.000          -0.000
 -21825086.938 9 -16974220.81749  21054099.249    21054098.7614   21054107.4324
        -0.000          -0.000
   6281302.961 9   4910657.14947  22831074.091    22831073.3274   22831084.8814
        -0.000          -0.000
 -11556397.559 9  -8709545.79446  23063146.090    23063145.2974   23063157.0924
        -0.000          -0.000
 -23336937.312 9 -18164362.88248  20897898.161    20897897.6374   20897907.3694
        -0.000          -0.000
 -18408687.754 9 -14319282.57449  20383722.938    20383722.7824   20383730.7444
        -0.000          -0.000
 01  1 16 23  9  0.0000000  0  7  7 26  9  2  5 24  4               -0.000000051
  11146563.045 9   8695738.85947  22875884.873    22875883.9654   22875894.5854
        -0.000          -0.000
  14301205.372 9  11156789.19745  25312798.159    25312797.8634   25312820.5074
        -0.000          -0.000
 -21830483.775 9 -16978426.12249  21053072.209    21053071.7324   21053080.4134
        -0.000          -0.000
   6338428.416 9   4955170.44147  22841944.844    22841943.9914   22841955.5124
        -0.000          -0.000
 -11637216.361 9  -8772521.35346  23047766.792    23047765.9644   23047777.5654
        -0.000          -0.000
 -23391777.715 9 -18207095.58148  20887462.321    20887461.8114   20887471.5084
        -0.000          -0.000
 -18389410.739 9 -14304261.50249  20387391.210    20387391.0534   20387399.0104
        -0.000          -0.000
 01  1 16 23  9 30.0000000  0  7  7 26  9  2  5 24  4               -0.000000051
  11208995.916 9   8744387.80547  22887765.492    22887764.5204   22887775.5054
        -0.000          -0.000
  14365362.680 8  11206781.11545  25325007.650    25325007.3314   25325029.8684
        -0.000          -0.000
 -21835313.400 9 -16982189.44149  21052153.142    21052152.6784   21052161.3714
        -0.000          -0.000
   6395850.016 9   4999914.49347  22852871.779    22852870.9364   22852882.4254
        -0.000          -0.000
 -11718009.073 9  -8835476.54546  23032392.301    23032391.4284   23032403.1104
        -0.000          -0.000
 -23446119.341 9 -18249439.61949  20877121.379    20877120.8804   20877130.5614
        -0.000          -0.000
 -18369538.816 9 -14288776.86449  20391172.675    20391172.5154   20391180.4954
        -0.000          -0.000
 01  1 16 23 10  0.0000000  0  7  7 26  9  2  5 24  4               -0.000000051
  11271426.943 9   8793035.36147  22899645.684    22899644.8264   22899655.5714
        -0.000          -0.000
  14429349.046 8  11256639.79345  25337184.452    25337184.4614   25337206.5684
        -0.000          -0.000
 -21839576.929 9 -16985511.64849  21051341.789    21051341.3304   21051350.0204
        -0.000          -0.000
   6453566.735 9   5044888.51947  22863855.165    22863854.2334   22863865.6954
        -0.000          -0.000
 -11798775.115 9  -8898410.96246  23017022.793    23017022.0174   23017033.7404
        -0.000          -0.000
 -23499962.174 9 -18291394.98849  20866875.346    20866874.8534   20866884.5074
        -0.000          -0.000
 -18349074.479 9 -14272830.59749  20395066.908    20395066.7594   20395074.7184
        -0.000          -0.000
 01  1 16 23 10 30.0000000  0  7  7 26  9  2  5 24  4               -0.000000051
  11333855.026 9   8841680.64047  22911525.595    22911524.6514   22911534.8674
        -0.000          -0.000
  14493161.706 8  11306363.16245  25349328.279    25349327.9934   25349350.3214
        -0.000          -0.000
 -21843274.867 9 -16988393.12649  21050638.126    21050637.6374   21050646.3324
        -0.000          -0.000
   6511578.270 9   5090092.25547  22874894.363    22874893.4914   22874904.9594
        -0.000          -0.000
 -11879513.715 9  -8961324.01247  23001658.778    23001657.9844   23001669.5324
        -0.000          -0.000
 -23553304.455 9 -18332960.32049  20856724.565    20856724.0714   20856733.6974
        -0.000          -0.000
 -18328019.109 9 -14256423.78149  20399073.576    20399073.4354   20399081.3704
        -0.000          -0.000
 01  1 16 23 11  0.0000000  0  7  7 26  9  2  5 24  4               -0.000000052
  11396279.391 9   8890322.99047  22923404.600    22923403.6394   22923413.8764
        -0.000          -0.000
  14556798.311 8  11355949.28645  25361438.547    25361438.4004   25361461.1604
        -0.000          -0.000
 -21846407.214 9 -16990833.88549  21050041.987    21050041.5294   21050050.1934
        -0.000          -0.000
   6569884.297 9   5135525.47647  22885989.714    22885988.7604   22886000.3984
        -0.000          -0.000
 -11960223.955 9  -9024214.98247  22986300.134    22986299.3064   22986310.6004
        -0.000          -0.000
 -23606145.209 9 -18374134.85549  20846669.236    20846668.7524   20846678.3504
        -0.000          -0.000
 -18306373.967 9 -14239557.40749  20403192.492    20403192.3444   20403200.2744
        -0.000          -0.000
 01  1 16 23 11 30.0000000  0  7  7 26  9  2  5 24  4               -0.000000051
  11458702.169 9   8938964.08647  22935282.937    22935282.0544   22935292.6714
        -0.000          -0.000
  14620259.056 8  11405398.31445  25373515.038    25373514.9814   25373538.1074
        -0.000          -0.000
 -21848971.371 9 -16992831.89649  21049554.065    21049553.5974   21049562.2034
        -0.000          -0.000
   6628487.481 9   5181190.28647  22897141.604    22897140.7194   22897152.2824
        -0.000          -0.000
 -12040902.064 9  -9087080.89047  22970947.514    22970946.6754   22970957.9614
        -0.000          -0.000
 -23658480.351 9 -18414915.40049  20836710.139    20836709.6564   20836719.2114
        -0.000          -0.000
 -18284137.819 9 -14222230.49949  20407423.861    20407423.7054   20407431.6154
        -0.000          -0.000
